<?xml version='1.0' encoding='UTF-8'?>
<gpx version="1.1" creator="https://www.komoot.de" xmlns="http://www.topografix.com/GPX/1/1" xmlns:xsi="http://www.w3.org/2001/XMLSchema-instance" xsi:schemaLocation="http://www.topografix.com/GPX/1/1 http://www.topografix.com/GPX/1/1/gpx.xsd">
  <metadata>
    <name>+50W / +65M - GRAVEL WORLD CHAMP. 2023</name>
    <author>
      <link href="https://www.komoot.de">
        <text>komoot</text>
        <type>text/html</type>
      </link>
    </author>
  </metadata>
  <trk>
    <name>+50W / +65M - GRAVEL WORLD CHAMP. 2023</name>
    <trkseg>
      <trkpt lat="45.752522" lon="12.282063">
        <ele>31.141489</ele>
        <time>2023-09-11T20:33:12.199Z</time>
      </trkpt>
      <trkpt lat="45.753002" lon="12.281222">
        <ele>31.141489</ele>
        <time>2023-09-11T20:33:31.808Z</time>
      </trkpt>
      <trkpt lat="45.753483" lon="12.280382">
        <ele>33.540086</ele>
        <time>2023-09-11T20:33:51.426Z</time>
      </trkpt>
      <trkpt lat="45.753308" lon="12.279964">
        <ele>34.862326</ele>
        <time>2023-09-11T20:34:00.227Z</time>
      </trkpt>
      <trkpt lat="45.753581" lon="12.279290">
        <ele>36.976226</ele>
        <time>2023-09-11T20:34:14.305Z</time>
      </trkpt>
      <trkpt lat="45.753828" lon="12.279237">
        <ele>37.947124</ele>
        <time>2023-09-11T20:34:27.883Z</time>
      </trkpt>
      <trkpt lat="45.754183" lon="12.279138">
        <ele>38.864292</ele>
        <time>2023-09-11T20:34:47.061Z</time>
      </trkpt>
      <trkpt lat="45.754353" lon="12.279136">
        <ele>39.260296</ele>
        <time>2023-09-11T20:34:55.754Z</time>
      </trkpt>
      <trkpt lat="45.755740" lon="12.279217">
        <ele>42.297125</ele>
        <time>2023-09-11T20:35:58.143Z</time>
      </trkpt>
      <trkpt lat="45.756894" lon="12.279407">
        <ele>41.882129</ele>
        <time>2023-09-11T20:36:39.676Z</time>
      </trkpt>
      <trkpt lat="45.756961" lon="12.279457">
        <ele>41.855142</ele>
        <time>2023-09-11T20:36:42.130Z</time>
      </trkpt>
      <trkpt lat="45.757015" lon="12.279595">
        <ele>41.815702</ele>
        <time>2023-09-11T20:36:45.732Z</time>
      </trkpt>
      <trkpt lat="45.756995" lon="12.279673">
        <ele>41.794988</ele>
        <time>2023-09-11T20:36:47.630Z</time>
      </trkpt>
      <trkpt lat="45.756694" lon="12.280167">
        <ele>41.609568</ele>
        <time>2023-09-11T20:37:02.355Z</time>
      </trkpt>
      <trkpt lat="45.756339" lon="12.280687">
        <ele>41.347336</ele>
        <time>2023-09-11T20:37:19.468Z</time>
      </trkpt>
      <trkpt lat="45.755917" lon="12.281173">
        <ele>41.067663</ele>
        <time>2023-09-11T20:37:38.926Z</time>
      </trkpt>
      <trkpt lat="45.755804" lon="12.281252">
        <ele>41.002710</ele>
        <time>2023-09-11T20:37:43.639Z</time>
      </trkpt>
      <trkpt lat="45.755962" lon="12.281411">
        <ele>40.902974</ele>
        <time>2023-09-11T20:37:48.400Z</time>
      </trkpt>
      <trkpt lat="45.757256" lon="12.282094">
        <ele>40.605177</ele>
        <time>2023-09-11T20:38:19.992Z</time>
      </trkpt>
      <trkpt lat="45.757414" lon="12.282186">
        <ele>40.582197</ele>
        <time>2023-09-11T20:38:23.899Z</time>
      </trkpt>
      <trkpt lat="45.757711" lon="12.282186">
        <ele>40.542176</ele>
        <time>2023-09-11T20:38:30.732Z</time>
      </trkpt>
      <trkpt lat="45.757853" lon="12.282230">
        <ele>40.522599</ele>
        <time>2023-09-11T20:38:33.946Z</time>
      </trkpt>
      <trkpt lat="45.757953" lon="12.282357">
        <ele>40.499159</ele>
        <time>2023-09-11T20:38:36.910Z</time>
      </trkpt>
      <trkpt lat="45.757945" lon="12.282412">
        <ele>40.487516</ele>
        <time>2023-09-11T20:38:37.695Z</time>
      </trkpt>
      <trkpt lat="45.757960" lon="12.282524">
        <ele>40.463880</ele>
        <time>2023-09-11T20:38:39.277Z</time>
      </trkpt>
      <trkpt lat="45.758006" lon="12.282635">
        <ele>40.437123</ele>
        <time>2023-09-11T20:38:41.161Z</time>
      </trkpt>
      <trkpt lat="45.758114" lon="12.282696">
        <ele>40.402640</ele>
        <time>2023-09-11T20:38:43.609Z</time>
      </trkpt>
      <trkpt lat="45.758211" lon="12.282723">
        <ele>40.373287</ele>
        <time>2023-09-11T20:38:45.527Z</time>
      </trkpt>
      <trkpt lat="45.758419" lon="12.282659">
        <ele>40.310093</ele>
        <time>2023-09-11T20:38:49.837Z</time>
      </trkpt>
      <trkpt lat="45.758557" lon="12.282524">
        <ele>40.260462</ele>
        <time>2023-09-11T20:38:53.104Z</time>
      </trkpt>
      <trkpt lat="45.758885" lon="12.282238">
        <ele>40.146416</ele>
        <time>2023-09-11T20:39:00.897Z</time>
      </trkpt>
      <trkpt lat="45.759230" lon="12.282241">
        <ele>40.043931</ele>
        <time>2023-09-11T20:39:08.396Z</time>
      </trkpt>
      <trkpt lat="45.760248" lon="12.283065">
        <ele>40.296458</ele>
        <time>2023-09-11T20:39:36.566Z</time>
      </trkpt>
      <trkpt lat="45.760406" lon="12.283196">
        <ele>40.359152</ele>
        <time>2023-09-11T20:39:41.023Z</time>
      </trkpt>
      <trkpt lat="45.762508" lon="12.284935">
        <ele>41.074010</ele>
        <time>2023-09-11T20:40:37.506Z</time>
      </trkpt>
      <trkpt lat="45.763029" lon="12.285327">
        <ele>41.210228</ele>
        <time>2023-09-11T20:40:51.226Z</time>
      </trkpt>
      <trkpt lat="45.764441" lon="12.286302">
        <ele>41.503307</ele>
        <time>2023-09-11T20:41:27.539Z</time>
      </trkpt>
      <trkpt lat="45.765200" lon="12.286852">
        <ele>41.520921</ele>
        <time>2023-09-11T20:41:46.505Z</time>
      </trkpt>
      <trkpt lat="45.765827" lon="12.287352">
        <ele>41.545760</ele>
        <time>2023-09-11T20:42:02.113Z</time>
      </trkpt>
      <trkpt lat="45.766799" lon="12.288135">
        <ele>41.717116</ele>
        <time>2023-09-11T20:42:27.048Z</time>
      </trkpt>
      <trkpt lat="45.767755" lon="12.288904">
        <ele>42.090635</ele>
        <time>2023-09-11T20:42:53.165Z</time>
      </trkpt>
      <trkpt lat="45.768130" lon="12.289206">
        <ele>42.337622</ele>
        <time>2023-09-11T20:43:04.263Z</time>
      </trkpt>
      <trkpt lat="45.768256" lon="12.289419">
        <ele>42.449489</ele>
        <time>2023-09-11T20:43:09.251Z</time>
      </trkpt>
      <trkpt lat="45.768345" lon="12.289514">
        <ele>42.513206</ele>
        <time>2023-09-11T20:43:12.068Z</time>
      </trkpt>
      <trkpt lat="45.768428" lon="12.289537">
        <ele>42.561749</ele>
        <time>2023-09-11T20:43:14.216Z</time>
      </trkpt>
      <trkpt lat="45.768595" lon="12.289228">
        <ele>42.718323</ele>
        <time>2023-09-11T20:43:20.973Z</time>
      </trkpt>
      <trkpt lat="45.768870" lon="12.288719">
        <ele>42.805669</ele>
        <time>2023-09-11T20:43:31.777Z</time>
      </trkpt>
      <trkpt lat="45.769078" lon="12.288241">
        <ele>42.741371</ele>
        <time>2023-09-11T20:43:40.885Z</time>
      </trkpt>
      <trkpt lat="45.770675" lon="12.290704">
        <ele>42.017254</ele>
        <time>2023-09-11T20:44:29.265Z</time>
      </trkpt>
      <trkpt lat="45.770446" lon="12.291855">
        <ele>41.671009</ele>
        <time>2023-09-11T20:44:46.498Z</time>
      </trkpt>
      <trkpt lat="45.770397" lon="12.292477">
        <ele>41.542113</ele>
        <time>2023-09-11T20:44:55.806Z</time>
      </trkpt>
      <trkpt lat="45.770891" lon="12.294756">
        <ele>40.894508</ele>
        <time>2023-09-11T20:45:31.274Z</time>
      </trkpt>
      <trkpt lat="45.771310" lon="12.296983">
        <ele>39.940570</ele>
        <time>2023-09-11T20:46:03.264Z</time>
      </trkpt>
      <trkpt lat="45.771205" lon="12.297541">
        <ele>39.715382</ele>
        <time>2023-09-11T20:46:11.061Z</time>
      </trkpt>
      <trkpt lat="45.770596" lon="12.298421">
        <ele>39.232379</ele>
        <time>2023-09-11T20:46:28.633Z</time>
      </trkpt>
      <trkpt lat="45.770416" lon="12.298786">
        <ele>39.140859</ele>
        <time>2023-09-11T20:46:35.498Z</time>
      </trkpt>
      <trkpt lat="45.770457" lon="12.299086">
        <ele>39.195817</ele>
        <time>2023-09-11T20:46:40.456Z</time>
      </trkpt>
      <trkpt lat="45.770950" lon="12.299043">
        <ele>39.323113</ele>
        <time>2023-09-11T20:46:52.102Z</time>
      </trkpt>
      <trkpt lat="45.771430" lon="12.299193">
        <ele>39.449727</ele>
        <time>2023-09-11T20:47:03.657Z</time>
      </trkpt>
      <trkpt lat="45.771903" lon="12.299548">
        <ele>39.577841</ele>
        <time>2023-09-11T20:47:16.506Z</time>
      </trkpt>
      <trkpt lat="45.771824" lon="12.299624">
        <ele>39.576517</ele>
        <time>2023-09-11T20:47:18.765Z</time>
      </trkpt>
      <trkpt lat="45.771620" lon="12.300121">
        <ele>39.570921</ele>
        <time>2023-09-11T20:47:28.395Z</time>
      </trkpt>
      <trkpt lat="45.771383" lon="12.300752">
        <ele>39.563965</ele>
        <time>2023-09-11T20:47:47.408Z</time>
      </trkpt>
      <trkpt lat="45.770687" lon="12.302765">
        <ele>39.004704</ele>
        <time>2023-09-11T20:48:42.687Z</time>
      </trkpt>
      <trkpt lat="45.769224" lon="12.305667">
        <ele>37.029062</ele>
        <time>2023-09-11T20:50:07.928Z</time>
      </trkpt>
      <trkpt lat="45.768366" lon="12.307877">
        <ele>35.636440</ele>
        <time>2023-09-11T20:51:08.628Z</time>
      </trkpt>
      <trkpt lat="45.767685" lon="12.309703">
        <ele>34.945477</ele>
        <time>2023-09-11T20:51:58.775Z</time>
      </trkpt>
      <trkpt lat="45.767685" lon="12.309703">
        <ele>34.945477</ele>
        <time>2023-09-11T20:51:58.783Z</time>
      </trkpt>
      <trkpt lat="45.766303" lon="12.313589">
        <ele>34.856429</ele>
        <time>2023-09-11T20:53:52.542Z</time>
      </trkpt>
      <trkpt lat="45.766247" lon="12.313748">
        <ele>34.858819</ele>
        <time>2023-09-11T20:53:55.581Z</time>
      </trkpt>
      <trkpt lat="45.766088" lon="12.314193">
        <ele>34.865531</ele>
        <time>2023-09-11T20:54:03.857Z</time>
      </trkpt>
      <trkpt lat="45.765193" lon="12.316696">
        <ele>34.675489</ele>
        <time>2023-09-11T20:54:48.395Z</time>
      </trkpt>
      <trkpt lat="45.764128" lon="12.319750">
        <ele>34.173421</ele>
        <time>2023-09-11T20:55:41.609Z</time>
      </trkpt>
      <trkpt lat="45.763731" lon="12.320950">
        <ele>33.887787</ele>
        <time>2023-09-11T20:56:01.892Z</time>
      </trkpt>
      <trkpt lat="45.762742" lon="12.323703">
        <ele>33.241985</ele>
        <time>2023-09-11T20:56:49.337Z</time>
      </trkpt>
      <trkpt lat="45.763618" lon="12.325202">
        <ele>33.003112</ele>
        <time>2023-09-11T20:57:20.084Z</time>
      </trkpt>
      <trkpt lat="45.763626" lon="12.325392">
        <ele>32.989717</ele>
        <time>2023-09-11T20:57:22.951Z</time>
      </trkpt>
      <trkpt lat="45.763625" lon="12.325560">
        <ele>32.977894</ele>
        <time>2023-09-11T20:57:25.828Z</time>
      </trkpt>
      <trkpt lat="45.763644" lon="12.325569">
        <ele>32.975876</ele>
        <time>2023-09-11T20:57:26.323Z</time>
      </trkpt>
      <trkpt lat="45.763943" lon="12.325701">
        <ele>32.944317</ele>
        <time>2023-09-11T20:57:33.275Z</time>
      </trkpt>
      <trkpt lat="45.763963" lon="12.325709">
        <ele>32.942223</ele>
        <time>2023-09-11T20:57:33.760Z</time>
      </trkpt>
      <trkpt lat="45.764527" lon="12.325970">
        <ele>32.947694</ele>
        <time>2023-09-11T20:57:46.803Z</time>
      </trkpt>
      <trkpt lat="45.764551" lon="12.326133">
        <ele>32.969114</ele>
        <time>2023-09-11T20:57:49.494Z</time>
      </trkpt>
      <trkpt lat="45.764617" lon="12.326201">
        <ele>32.984096</ele>
        <time>2023-09-11T20:57:51.411Z</time>
      </trkpt>
      <trkpt lat="45.764727" lon="12.326178">
        <ele>33.004585</ele>
        <time>2023-09-11T20:57:53.792Z</time>
      </trkpt>
      <trkpt lat="45.764779" lon="12.326080">
        <ele>33.020417</ele>
        <time>2023-09-11T20:57:55.612Z</time>
      </trkpt>
      <trkpt lat="45.765148" lon="12.326230">
        <ele>33.091113</ele>
        <time>2023-09-11T20:58:04.560Z</time>
      </trkpt>
      <trkpt lat="45.765484" lon="12.326381">
        <ele>33.156016</ele>
        <time>2023-09-11T20:58:12.889Z</time>
      </trkpt>
      <trkpt lat="45.765904" lon="12.326620">
        <ele>33.237232</ele>
        <time>2023-09-11T20:58:23.608Z</time>
      </trkpt>
      <trkpt lat="45.766513" lon="12.327111">
        <ele>33.247954</ele>
        <time>2023-09-11T20:58:39.435Z</time>
      </trkpt>
      <trkpt lat="45.766702" lon="12.327315">
        <ele>33.251584</ele>
        <time>2023-09-11T20:58:44.697Z</time>
      </trkpt>
      <trkpt lat="45.767640" lon="12.328463">
        <ele>33.213259</ele>
        <time>2023-09-11T20:59:11.405Z</time>
      </trkpt>
      <trkpt lat="45.770053" lon="12.331473">
        <ele>32.828928</ele>
        <time>2023-09-11T21:00:20.970Z</time>
      </trkpt>
      <trkpt lat="45.770709" lon="12.332327">
        <ele>32.841459</ele>
        <time>2023-09-11T21:00:41.016Z</time>
      </trkpt>
      <trkpt lat="45.771075" lon="12.332961">
        <ele>32.850908</ele>
        <time>2023-09-11T21:00:53.848Z</time>
      </trkpt>
      <trkpt lat="45.771334" lon="12.333580">
        <ele>32.834089</ele>
        <time>2023-09-11T21:01:05.261Z</time>
      </trkpt>
      <trkpt lat="45.771746" lon="12.335018">
        <ele>32.668723</ele>
        <time>2023-09-11T21:01:28.737Z</time>
      </trkpt>
      <trkpt lat="45.771859" lon="12.335419">
        <ele>32.622718</ele>
        <time>2023-09-11T21:01:35.182Z</time>
      </trkpt>
      <trkpt lat="45.773091" lon="12.339897">
        <ele>31.744337</ele>
        <time>2023-09-11T21:02:46.001Z</time>
      </trkpt>
      <trkpt lat="45.773362" lon="12.339556">
        <ele>31.666399</ele>
        <time>2023-09-11T21:02:54.255Z</time>
      </trkpt>
      <trkpt lat="45.773710" lon="12.339119">
        <ele>31.685231</ele>
        <time>2023-09-11T21:03:05.049Z</time>
      </trkpt>
      <trkpt lat="45.774704" lon="12.337870">
        <ele>31.891081</ele>
        <time>2023-09-11T21:03:36.792Z</time>
      </trkpt>
      <trkpt lat="45.778007" lon="12.341857">
        <ele>32.440536</ele>
        <time>2023-09-11T21:05:19.614Z</time>
      </trkpt>
      <trkpt lat="45.780379" lon="12.344641">
        <ele>32.016375</ele>
        <time>2023-09-11T21:07:10.740Z</time>
      </trkpt>
      <trkpt lat="45.780592" lon="12.344315">
        <ele>32.067800</ele>
        <time>2023-09-11T21:07:22.584Z</time>
      </trkpt>
      <trkpt lat="45.781103" lon="12.342218">
        <ele>32.339546</ele>
        <time>2023-09-11T21:08:21.108Z</time>
      </trkpt>
      <trkpt lat="45.781771" lon="12.341383">
        <ele>32.638380</ele>
        <time>2023-09-11T21:08:55.132Z</time>
      </trkpt>
      <trkpt lat="45.781927" lon="12.341424">
        <ele>32.691862</ele>
        <time>2023-09-11T21:09:01.281Z</time>
      </trkpt>
      <trkpt lat="45.783148" lon="12.342682">
        <ele>33.430071</ele>
        <time>2023-09-11T21:09:59.716Z</time>
      </trkpt>
      <trkpt lat="45.783513" lon="12.341713">
        <ele>33.899764</ele>
        <time>2023-09-11T21:10:30.694Z</time>
      </trkpt>
      <trkpt lat="45.784200" lon="12.341555">
        <ele>34.254158</ele>
        <time>2023-09-11T21:10:58.354Z</time>
      </trkpt>
      <trkpt lat="45.784322" lon="12.341300">
        <ele>34.355849</ele>
        <time>2023-09-11T21:11:06.723Z</time>
      </trkpt>
      <trkpt lat="45.784344" lon="12.340554">
        <ele>34.601384</ele>
        <time>2023-09-11T21:11:26.825Z</time>
      </trkpt>
      <trkpt lat="45.784565" lon="12.340109">
        <ele>34.781033</ele>
        <time>2023-09-11T21:11:41.397Z</time>
      </trkpt>
      <trkpt lat="45.784599" lon="12.339760">
        <ele>34.875424</ele>
        <time>2023-09-11T21:11:50.818Z</time>
      </trkpt>
      <trkpt lat="45.785197" lon="12.338458">
        <ele>35.065247</ele>
        <time>2023-09-11T21:12:32.491Z</time>
      </trkpt>
      <trkpt lat="45.785297" lon="12.338474">
        <ele>35.082815</ele>
        <time>2023-09-11T21:12:36.332Z</time>
      </trkpt>
      <trkpt lat="45.787161" lon="12.340363">
        <ele>34.687395</ele>
        <time>2023-09-11T21:13:59.547Z</time>
      </trkpt>
      <trkpt lat="45.787267" lon="12.340356">
        <ele>34.632471</ele>
        <time>2023-09-11T21:14:03.063Z</time>
      </trkpt>
      <trkpt lat="45.787716" lon="12.340431">
        <ele>34.284801</ele>
        <time>2023-09-11T21:14:18.285Z</time>
      </trkpt>
      <trkpt lat="45.788039" lon="12.340332">
        <ele>34.030765</ele>
        <time>2023-09-11T21:14:29.474Z</time>
      </trkpt>
      <trkpt lat="45.788272" lon="12.340556">
        <ele>33.815017</ele>
        <time>2023-09-11T21:14:39.022Z</time>
      </trkpt>
      <trkpt lat="45.788724" lon="12.340473">
        <ele>33.464536</ele>
        <time>2023-09-11T21:14:54.509Z</time>
      </trkpt>
      <trkpt lat="45.788941" lon="12.340600">
        <ele>33.290168</ele>
        <time>2023-09-11T21:15:02.603Z</time>
      </trkpt>
      <trkpt lat="45.789229" lon="12.340615">
        <ele>33.364456</ele>
        <time>2023-09-11T21:15:12.871Z</time>
      </trkpt>
      <trkpt lat="45.789862" lon="12.340919">
        <ele>33.536535</ele>
        <time>2023-09-11T21:15:38.410Z</time>
      </trkpt>
      <trkpt lat="45.789988" lon="12.340832">
        <ele>33.572583</ele>
        <time>2023-09-11T21:15:44.033Z</time>
      </trkpt>
      <trkpt lat="45.789935" lon="12.340589">
        <ele>33.618348</ele>
        <time>2023-09-11T21:15:50.972Z</time>
      </trkpt>
      <trkpt lat="45.789955" lon="12.340385">
        <ele>33.655377</ele>
        <time>2023-09-11T21:15:56.784Z</time>
      </trkpt>
      <trkpt lat="45.790072" lon="12.339904">
        <ele>33.746943</ele>
        <time>2023-09-11T21:16:10.763Z</time>
      </trkpt>
      <trkpt lat="45.790123" lon="12.339471">
        <ele>33.885461</ele>
        <time>2023-09-11T21:16:22.758Z</time>
      </trkpt>
      <trkpt lat="45.790112" lon="12.339038">
        <ele>34.026446</ele>
        <time>2023-09-11T21:16:34.478Z</time>
      </trkpt>
      <trkpt lat="45.790077" lon="12.338660">
        <ele>34.150520</ele>
        <time>2023-09-11T21:16:44.800Z</time>
      </trkpt>
      <trkpt lat="45.790138" lon="12.338245">
        <ele>34.288522</ele>
        <time>2023-09-11T21:16:56.280Z</time>
      </trkpt>
      <trkpt lat="45.790336" lon="12.337954">
        <ele>34.420819</ele>
        <time>2023-09-11T21:17:07.391Z</time>
      </trkpt>
      <trkpt lat="45.790483" lon="12.337794">
        <ele>34.506934</ele>
        <time>2023-09-11T21:17:14.658Z</time>
      </trkpt>
      <trkpt lat="45.791106" lon="12.336894">
        <ele>34.978555</ele>
        <time>2023-09-11T21:17:48.494Z</time>
      </trkpt>
      <trkpt lat="45.791602" lon="12.336244">
        <ele>35.348476</ele>
        <time>2023-09-11T21:18:14.632Z</time>
      </trkpt>
      <trkpt lat="45.791695" lon="12.336200">
        <ele>35.402394</ele>
        <time>2023-09-11T21:18:18.576Z</time>
      </trkpt>
      <trkpt lat="45.791787" lon="12.336200">
        <ele>35.453046</ele>
        <time>2023-09-11T21:18:22.382Z</time>
      </trkpt>
      <trkpt lat="45.791932" lon="12.336280">
        <ele>35.538583</ele>
        <time>2023-09-11T21:18:28.805Z</time>
      </trkpt>
      <trkpt lat="45.792446" lon="12.336770">
        <ele>35.967699</ele>
        <time>2023-09-11T21:18:54.327Z</time>
      </trkpt>
      <trkpt lat="45.792641" lon="12.336841">
        <ele>36.111835</ele>
        <time>2023-09-11T21:19:02.369Z</time>
      </trkpt>
      <trkpt lat="45.792983" lon="12.337022">
        <ele>36.373006</ele>
        <time>2023-09-11T21:19:16.769Z</time>
      </trkpt>
      <trkpt lat="45.793278" lon="12.337232">
        <ele>36.608956</ele>
        <time>2023-09-11T21:19:29.647Z</time>
      </trkpt>
      <trkpt lat="45.793438" lon="12.337062">
        <ele>36.751614</ele>
        <time>2023-09-11T21:19:37.493Z</time>
      </trkpt>
      <trkpt lat="45.793900" lon="12.335745">
        <ele>37.079901</ele>
        <time>2023-09-11T21:20:17.690Z</time>
      </trkpt>
      <trkpt lat="45.794220" lon="12.334756">
        <ele>37.264546</ele>
        <time>2023-09-11T21:20:45.942Z</time>
      </trkpt>
      <trkpt lat="45.794482" lon="12.333667">
        <ele>37.419154</ele>
        <time>2023-09-11T21:21:15.734Z</time>
      </trkpt>
      <trkpt lat="45.794731" lon="12.332523">
        <ele>37.568132</ele>
        <time>2023-09-11T21:21:47.651Z</time>
      </trkpt>
      <trkpt lat="45.794765" lon="12.332099">
        <ele>37.621187</ele>
        <time>2023-09-11T21:21:58.919Z</time>
      </trkpt>
      <trkpt lat="45.794672" lon="12.331901">
        <ele>37.664945</ele>
        <time>2023-09-11T21:22:05.190Z</time>
      </trkpt>
      <trkpt lat="45.794579" lon="12.331765">
        <ele>37.703270</ele>
        <time>2023-09-11T21:22:10.165Z</time>
      </trkpt>
      <trkpt lat="45.794554" lon="12.331677">
        <ele>37.722388</ele>
        <time>2023-09-11T21:22:12.636Z</time>
      </trkpt>
      <trkpt lat="45.794556" lon="12.331571">
        <ele>37.743722</ele>
        <time>2023-09-11T21:22:15.433Z</time>
      </trkpt>
      <trkpt lat="45.794588" lon="12.331358">
        <ele>37.787559</ele>
        <time>2023-09-11T21:22:18.915Z</time>
      </trkpt>
      <trkpt lat="45.794709" lon="12.331037">
        <ele>37.860975</ele>
        <time>2023-09-11T21:22:24.740Z</time>
      </trkpt>
      <trkpt lat="45.794747" lon="12.330855">
        <ele>37.899198</ele>
        <time>2023-09-11T21:22:27.811Z</time>
      </trkpt>
      <trkpt lat="45.794868" lon="12.329674">
        <ele>38.139355</ele>
        <time>2023-09-11T21:22:47.510Z</time>
      </trkpt>
      <trkpt lat="45.795282" lon="12.325553">
        <ele>39.359191</ele>
        <time>2023-09-11T21:24:41.359Z</time>
      </trkpt>
      <trkpt lat="45.795130" lon="12.324337">
        <ele>39.579175</ele>
        <time>2023-09-11T21:25:12.996Z</time>
      </trkpt>
      <trkpt lat="45.794921" lon="12.322507">
        <ele>39.657743</ele>
        <time>2023-09-11T21:26:00.329Z</time>
      </trkpt>
      <trkpt lat="45.794684" lon="12.319908">
        <ele>40.509335</ele>
        <time>2023-09-11T21:27:12.379Z</time>
      </trkpt>
      <trkpt lat="45.794759" lon="12.318785">
        <ele>40.889850</ele>
        <time>2023-09-11T21:27:43.669Z</time>
      </trkpt>
      <trkpt lat="45.794869" lon="12.316252">
        <ele>41.613411</ele>
        <time>2023-09-11T21:28:51.692Z</time>
      </trkpt>
      <trkpt lat="45.794853" lon="12.316191">
        <ele>41.630195</ele>
        <time>2023-09-11T21:28:53.366Z</time>
      </trkpt>
      <trkpt lat="45.794798" lon="12.316140">
        <ele>41.654386</ele>
        <time>2023-09-11T21:28:55.849Z</time>
      </trkpt>
      <trkpt lat="45.794428" lon="12.316065">
        <ele>41.792405</ele>
        <time>2023-09-11T21:29:10.089Z</time>
      </trkpt>
      <trkpt lat="45.794175" lon="12.315907">
        <ele>41.894325</ele>
        <time>2023-09-11T21:29:20.748Z</time>
      </trkpt>
      <trkpt lat="45.794065" lon="12.315727">
        <ele>41.955965</ele>
        <time>2023-09-11T21:29:27.254Z</time>
      </trkpt>
      <trkpt lat="45.793997" lon="12.315521">
        <ele>42.014661</ele>
        <time>2023-09-11T21:29:33.463Z</time>
      </trkpt>
      <trkpt lat="45.793971" lon="12.315296">
        <ele>42.073395</ele>
        <time>2023-09-11T21:29:39.643Z</time>
      </trkpt>
      <trkpt lat="45.793992" lon="12.314920">
        <ele>42.179767</ele>
        <time>2023-09-11T21:29:49.900Z</time>
      </trkpt>
      <trkpt lat="45.793973" lon="12.314504">
        <ele>42.307691</ele>
        <time>2023-09-11T21:30:01.098Z</time>
      </trkpt>
      <trkpt lat="45.793904" lon="12.314220">
        <ele>42.399976</ele>
        <time>2023-09-11T21:30:08.997Z</time>
      </trkpt>
      <trkpt lat="45.793801" lon="12.313963">
        <ele>42.490936</ele>
        <time>2023-09-11T21:30:16.871Z</time>
      </trkpt>
      <trkpt lat="45.793638" lon="12.313732">
        <ele>42.591784</ele>
        <time>2023-09-11T21:30:25.696Z</time>
      </trkpt>
      <trkpt lat="45.793455" lon="12.313059">
        <ele>42.813445</ele>
        <time>2023-09-11T21:30:45.472Z</time>
      </trkpt>
      <trkpt lat="45.793448" lon="12.312707">
        <ele>42.915709</ele>
        <time>2023-09-11T21:30:55.282Z</time>
      </trkpt>
      <trkpt lat="45.793410" lon="12.312587">
        <ele>42.925293</ele>
        <time>2023-09-11T21:30:58.963Z</time>
      </trkpt>
      <trkpt lat="45.793318" lon="12.312450">
        <ele>42.939124</ele>
        <time>2023-09-11T21:31:04.193Z</time>
      </trkpt>
      <trkpt lat="45.793289" lon="12.312348">
        <ele>42.947134</ele>
        <time>2023-09-11T21:31:07.221Z</time>
      </trkpt>
      <trkpt lat="45.793354" lon="12.312155">
        <ele>42.962719</ele>
        <time>2023-09-11T21:31:13.056Z</time>
      </trkpt>
      <trkpt lat="45.793380" lon="12.311862">
        <ele>42.984197</ele>
        <time>2023-09-11T21:31:20.896Z</time>
      </trkpt>
      <trkpt lat="45.793178" lon="12.310747">
        <ele>43.067967</ele>
        <time>2023-09-11T21:31:50.324Z</time>
      </trkpt>
      <trkpt lat="45.793068" lon="12.310393">
        <ele>43.096149</ele>
        <time>2023-09-11T21:32:00.041Z</time>
      </trkpt>
      <trkpt lat="45.792264" lon="12.309515">
        <ele>42.901930</ele>
        <time>2023-09-11T21:32:36.900Z</time>
      </trkpt>
      <trkpt lat="45.792200" lon="12.309073">
        <ele>42.836453</ele>
        <time>2023-09-11T21:32:48.132Z</time>
      </trkpt>
      <trkpt lat="45.792241" lon="12.308338">
        <ele>42.729504</ele>
        <time>2023-09-11T21:33:06.417Z</time>
      </trkpt>
      <trkpt lat="45.792550" lon="12.306933">
        <ele>43.106372</ele>
        <time>2023-09-11T21:33:45.141Z</time>
      </trkpt>
      <trkpt lat="45.792701" lon="12.305940">
        <ele>43.370536</ele>
        <time>2023-09-11T21:34:13.641Z</time>
      </trkpt>
      <trkpt lat="45.792763" lon="12.304301">
        <ele>44.163701</ele>
        <time>2023-09-11T21:34:59.908Z</time>
      </trkpt>
      <trkpt lat="45.792866" lon="12.303277">
        <ele>44.679425</ele>
        <time>2023-09-11T21:35:28.183Z</time>
      </trkpt>
      <trkpt lat="45.792741" lon="12.302096">
        <ele>45.171023</ele>
        <time>2023-09-11T21:36:00.738Z</time>
      </trkpt>
      <trkpt lat="45.792814" lon="12.301775">
        <ele>45.309765</ele>
        <time>2023-09-11T21:36:10.050Z</time>
      </trkpt>
      <trkpt lat="45.793077" lon="12.301083">
        <ele>45.633616</ele>
        <time>2023-09-11T21:36:31.705Z</time>
      </trkpt>
      <trkpt lat="45.793111" lon="12.300066">
        <ele>46.265567</ele>
        <time>2023-09-11T21:37:00.300Z</time>
      </trkpt>
      <trkpt lat="45.793163" lon="12.299790">
        <ele>46.464427</ele>
        <time>2023-09-11T21:37:08.531Z</time>
      </trkpt>
      <trkpt lat="45.793734" lon="12.298427">
        <ele>47.560570</ele>
        <time>2023-09-11T21:37:54.573Z</time>
      </trkpt>
      <trkpt lat="45.794042" lon="12.297969">
        <ele>47.868677</ele>
        <time>2023-09-11T21:38:12.925Z</time>
      </trkpt>
      <trkpt lat="45.794242" lon="12.297550">
        <ele>48.114545</ele>
        <time>2023-09-11T21:38:27.337Z</time>
      </trkpt>
      <trkpt lat="45.794274" lon="12.297277">
        <ele>48.248586</ele>
        <time>2023-09-11T21:38:35.088Z</time>
      </trkpt>
      <trkpt lat="45.794252" lon="12.296786">
        <ele>48.486818</ele>
        <time>2023-09-11T21:38:48.597Z</time>
      </trkpt>
      <trkpt lat="45.794117" lon="12.296145">
        <ele>48.784629</ele>
        <time>2023-09-11T21:39:06.435Z</time>
      </trkpt>
      <trkpt lat="45.794111" lon="12.295922">
        <ele>48.773737</ele>
        <time>2023-09-11T21:39:12.312Z</time>
      </trkpt>
      <trkpt lat="45.794192" lon="12.295302">
        <ele>48.742949</ele>
        <time>2023-09-11T21:39:28.696Z</time>
      </trkpt>
      <trkpt lat="45.794241" lon="12.294653">
        <ele>48.711087</ele>
        <time>2023-09-11T21:39:45.467Z</time>
      </trkpt>
      <trkpt lat="45.794321" lon="12.294243">
        <ele>48.690307</ele>
        <time>2023-09-11T21:39:56.295Z</time>
      </trkpt>
      <trkpt lat="45.795291" lon="12.292548">
        <ele>48.449518</ele>
        <time>2023-09-11T21:40:50.883Z</time>
      </trkpt>
      <trkpt lat="45.795707" lon="12.292014">
        <ele>48.343296</ele>
        <time>2023-09-11T21:41:11.224Z</time>
      </trkpt>
      <trkpt lat="45.796247" lon="12.290794">
        <ele>48.752250</ele>
        <time>2023-09-11T21:41:49.848Z</time>
      </trkpt>
      <trkpt lat="45.796702" lon="12.290214">
        <ele>49.052208</ele>
        <time>2023-09-11T21:42:14.307Z</time>
      </trkpt>
      <trkpt lat="45.796829" lon="12.289841">
        <ele>49.194819</ele>
        <time>2023-09-11T21:42:25.924Z</time>
      </trkpt>
      <trkpt lat="45.797001" lon="12.288879">
        <ele>49.552860</ele>
        <time>2023-09-11T21:42:53.478Z</time>
      </trkpt>
      <trkpt lat="45.797145" lon="12.288624">
        <ele>49.671339</ele>
        <time>2023-09-11T21:43:02.500Z</time>
      </trkpt>
      <trkpt lat="45.797364" lon="12.288431">
        <ele>49.804446</ele>
        <time>2023-09-11T21:43:12.495Z</time>
      </trkpt>
      <trkpt lat="45.797463" lon="12.288195">
        <ele>49.903888</ele>
        <time>2023-09-11T21:43:19.999Z</time>
      </trkpt>
      <trkpt lat="45.797627" lon="12.286985">
        <ele>50.221410</ele>
        <time>2023-09-11T21:43:53.020Z</time>
      </trkpt>
      <trkpt lat="45.797728" lon="12.286738">
        <ele>50.262687</ele>
        <time>2023-09-11T21:44:00.534Z</time>
      </trkpt>
      <trkpt lat="45.797882" lon="12.286529">
        <ele>50.306522</ele>
        <time>2023-09-11T21:44:08.448Z</time>
      </trkpt>
      <trkpt lat="45.798390" lon="12.286212">
        <ele>50.421064</ele>
        <time>2023-09-11T21:44:29.099Z</time>
      </trkpt>
      <trkpt lat="45.798839" lon="12.285713">
        <ele>50.560726</ele>
        <time>2023-09-11T21:44:50.547Z</time>
      </trkpt>
      <trkpt lat="45.799161" lon="12.285429">
        <ele>50.696844</ele>
        <time>2023-09-11T21:45:05.023Z</time>
      </trkpt>
      <trkpt lat="45.799710" lon="12.285048">
        <ele>50.916461</ele>
        <time>2023-09-11T21:45:28.748Z</time>
      </trkpt>
      <trkpt lat="45.800417" lon="12.284861">
        <ele>51.170285</ele>
        <time>2023-09-11T21:45:56.738Z</time>
      </trkpt>
      <trkpt lat="45.801255" lon="12.284206">
        <ele>51.423039</ele>
        <time>2023-09-11T21:46:33.133Z</time>
      </trkpt>
      <trkpt lat="45.801401" lon="12.284029">
        <ele>51.473667</ele>
        <time>2023-09-11T21:46:40.385Z</time>
      </trkpt>
      <trkpt lat="45.801569" lon="12.283525">
        <ele>51.576814</ele>
        <time>2023-09-11T21:46:55.090Z</time>
      </trkpt>
      <trkpt lat="45.801924" lon="12.282688">
        <ele>51.807853</ele>
        <time>2023-09-11T21:47:21.033Z</time>
      </trkpt>
      <trkpt lat="45.802515" lon="12.281856">
        <ele>52.115061</ele>
        <time>2023-09-11T21:47:52.829Z</time>
      </trkpt>
      <trkpt lat="45.803243" lon="12.281076">
        <ele>52.558552</ele>
        <time>2023-09-11T21:48:28.480Z</time>
      </trkpt>
      <trkpt lat="45.803605" lon="12.280596">
        <ele>52.869194</ele>
        <time>2023-09-11T21:48:48.288Z</time>
      </trkpt>
      <trkpt lat="45.803626" lon="12.280483">
        <ele>52.920568</ele>
        <time>2023-09-11T21:48:51.566Z</time>
      </trkpt>
      <trkpt lat="45.803581" lon="12.280376">
        <ele>52.975463</ele>
        <time>2023-09-11T21:48:54.997Z</time>
      </trkpt>
      <trkpt lat="45.803622" lon="12.280247">
        <ele>53.037744</ele>
        <time>2023-09-11T21:48:58.986Z</time>
      </trkpt>
      <trkpt lat="45.803884" lon="12.279931">
        <ele>53.253447</ele>
        <time>2023-09-11T21:49:12.610Z</time>
      </trkpt>
      <trkpt lat="45.804206" lon="12.279550">
        <ele>53.472555</ele>
        <time>2023-09-11T21:49:28.963Z</time>
      </trkpt>
      <trkpt lat="45.806060" lon="12.279003">
        <ele>54.026520</ele>
        <time>2023-09-11T21:50:40.774Z</time>
      </trkpt>
      <trkpt lat="45.807235" lon="12.278836">
        <ele>54.330687</ele>
        <time>2023-09-11T21:51:26.280Z</time>
      </trkpt>
      <trkpt lat="45.807780" lon="12.278584">
        <ele>54.446795</ele>
        <time>2023-09-11T21:51:47.956Z</time>
      </trkpt>
      <trkpt lat="45.808259" lon="12.278413">
        <ele>54.488269</ele>
        <time>2023-09-11T21:52:06.365Z</time>
      </trkpt>
      <trkpt lat="45.808532" lon="12.278026">
        <ele>54.520516</ele>
        <time>2023-09-11T21:52:20.583Z</time>
      </trkpt>
      <trkpt lat="45.809179" lon="12.277243">
        <ele>54.629535</ele>
        <time>2023-09-11T21:52:52.012Z</time>
      </trkpt>
      <trkpt lat="45.809616" lon="12.276927">
        <ele>54.845436</ele>
        <time>2023-09-11T21:53:10.299Z</time>
      </trkpt>
      <trkpt lat="45.810548" lon="12.276331">
        <ele>55.295611</ele>
        <time>2023-09-11T21:53:50.358Z</time>
      </trkpt>
      <trkpt lat="45.811060" lon="12.276133">
        <ele>55.651982</ele>
        <time>2023-09-11T21:54:11.873Z</time>
      </trkpt>
      <trkpt lat="45.811310" lon="12.275848">
        <ele>55.905349</ele>
        <time>2023-09-11T21:54:24.898Z</time>
      </trkpt>
      <trkpt lat="45.811494" lon="12.275430">
        <ele>56.178772</ele>
        <time>2023-09-11T21:54:38.892Z</time>
      </trkpt>
      <trkpt lat="45.811748" lon="12.274293">
        <ele>56.823373</ele>
        <time>2023-09-11T21:55:12.302Z</time>
      </trkpt>
      <trkpt lat="45.811998" lon="12.273660">
        <ele>57.048394</ele>
        <time>2023-09-11T21:55:32.337Z</time>
      </trkpt>
      <trkpt lat="45.812200" lon="12.272474">
        <ele>57.425997</ele>
        <time>2023-09-11T21:56:05.270Z</time>
      </trkpt>
      <trkpt lat="45.812182" lon="12.272104">
        <ele>57.540710</ele>
        <time>2023-09-11T21:56:15.103Z</time>
      </trkpt>
      <trkpt lat="45.812361" lon="12.270033">
        <ele>57.863935</ele>
        <time>2023-09-11T21:57:10.162Z</time>
      </trkpt>
      <trkpt lat="45.812408" lon="12.269441">
        <ele>57.946652</ele>
        <time>2023-09-11T21:57:25.854Z</time>
      </trkpt>
      <trkpt lat="45.812464" lon="12.269135">
        <ele>57.998725</ele>
        <time>2023-09-11T21:57:34.206Z</time>
      </trkpt>
      <trkpt lat="45.812608" lon="12.268169">
        <ele>58.172142</ele>
        <time>2023-09-11T21:58:00.289Z</time>
      </trkpt>
      <trkpt lat="45.812613" lon="12.267968">
        <ele>58.207450</ele>
        <time>2023-09-11T21:58:05.599Z</time>
      </trkpt>
      <trkpt lat="45.812440" lon="12.266922">
        <ele>58.396176</ele>
        <time>2023-09-11T21:58:34.237Z</time>
      </trkpt>
      <trkpt lat="45.812582" lon="12.265270">
        <ele>58.690496</ele>
        <time>2023-09-11T21:59:18.936Z</time>
      </trkpt>
      <trkpt lat="45.812540" lon="12.264433">
        <ele>58.838942</ele>
        <time>2023-09-11T21:59:40.974Z</time>
      </trkpt>
      <trkpt lat="45.812544" lon="12.264130">
        <ele>58.858687</ele>
        <time>2023-09-11T21:59:48.857Z</time>
      </trkpt>
      <trkpt lat="45.812634" lon="12.263521">
        <ele>58.808711</ele>
        <time>2023-09-11T22:00:04.997Z</time>
      </trkpt>
      <trkpt lat="45.812602" lon="12.263052">
        <ele>58.770881</ele>
        <time>2023-09-11T22:00:17.052Z</time>
      </trkpt>
      <trkpt lat="45.812623" lon="12.262821">
        <ele>58.752180</ele>
        <time>2023-09-11T22:00:22.978Z</time>
      </trkpt>
      <trkpt lat="45.812685" lon="12.262588">
        <ele>58.732158</ele>
        <time>2023-09-11T22:00:29.344Z</time>
      </trkpt>
      <trkpt lat="45.813283" lon="12.261260">
        <ele>58.706804</ele>
        <time>2023-09-11T22:01:08.884Z</time>
      </trkpt>
      <trkpt lat="45.814158" lon="12.259044">
        <ele>59.160905</ele>
        <time>2023-09-11T22:02:16.325Z</time>
      </trkpt>
      <trkpt lat="45.814782" lon="12.257564">
        <ele>60.022198</ele>
        <time>2023-09-11T22:03:05.103Z</time>
      </trkpt>
      <trkpt lat="45.814793" lon="12.257448">
        <ele>60.080491</ele>
        <time>2023-09-11T22:03:08.476Z</time>
      </trkpt>
      <trkpt lat="45.814977" lon="12.257049">
        <ele>60.448293</ele>
        <time>2023-09-11T22:03:22.391Z</time>
      </trkpt>
      <trkpt lat="45.815500" lon="12.256448">
        <ele>61.224117</ele>
        <time>2023-09-11T22:03:50.444Z</time>
      </trkpt>
      <trkpt lat="45.815692" lon="12.256255">
        <ele>61.495549</ele>
        <time>2023-09-11T22:04:00.246Z</time>
      </trkpt>
      <trkpt lat="45.816225" lon="12.255981">
        <ele>62.151086</ele>
        <time>2023-09-11T22:04:23.857Z</time>
      </trkpt>
      <trkpt lat="45.816380" lon="12.255869">
        <ele>62.334290</ele>
        <time>2023-09-11T22:04:31.126Z</time>
      </trkpt>
      <trkpt lat="45.816737" lon="12.255217">
        <ele>62.929014</ele>
        <time>2023-09-11T22:04:55.574Z</time>
      </trkpt>
      <trkpt lat="45.817033" lon="12.254919">
        <ele>63.301152</ele>
        <time>2023-09-11T22:05:10.913Z</time>
      </trkpt>
      <trkpt lat="45.817164" lon="12.254578">
        <ele>63.580436</ele>
        <time>2023-09-11T22:05:22.066Z</time>
      </trkpt>
      <trkpt lat="45.817315" lon="12.253833">
        <ele>64.078539</ele>
        <time>2023-09-11T22:05:43.023Z</time>
      </trkpt>
      <trkpt lat="45.817315" lon="12.253833">
        <ele>64.078539</ele>
        <time>2023-09-11T22:05:43.038Z</time>
      </trkpt>
      <trkpt lat="45.817627" lon="12.253103">
        <ele>64.308707</ele>
        <time>2023-09-11T22:05:58.472Z</time>
      </trkpt>
      <trkpt lat="45.817787" lon="12.252545">
        <ele>64.470885</ele>
        <time>2023-09-11T22:06:09.350Z</time>
      </trkpt>
      <trkpt lat="45.817753" lon="12.252427">
        <ele>64.505205</ele>
        <time>2023-09-11T22:06:12.880Z</time>
      </trkpt>
      <trkpt lat="45.817869" lon="12.252143">
        <ele>64.593682</ele>
        <time>2023-09-11T22:06:21.547Z</time>
      </trkpt>
      <trkpt lat="45.818666" lon="12.250392">
        <ele>65.411816</ele>
        <time>2023-09-11T22:07:17.600Z</time>
      </trkpt>
      <trkpt lat="45.818898" lon="12.249835">
        <ele>65.692896</ele>
        <time>2023-09-11T22:07:36.349Z</time>
      </trkpt>
      <trkpt lat="45.819177" lon="12.248827">
        <ele>66.108654</ele>
        <time>2023-09-11T22:08:07.377Z</time>
      </trkpt>
      <trkpt lat="45.819259" lon="12.248641">
        <ele>66.187237</ele>
        <time>2023-09-11T22:08:13.562Z</time>
      </trkpt>
      <trkpt lat="45.820076" lon="12.247737">
        <ele>66.715799</ele>
        <time>2023-09-11T22:08:53.324Z</time>
      </trkpt>
      <trkpt lat="45.820932" lon="12.247001">
        <ele>66.829568</ele>
        <time>2023-09-11T22:09:29.579Z</time>
      </trkpt>
      <trkpt lat="45.821186" lon="12.246730">
        <ele>66.848635</ele>
        <time>2023-09-11T22:09:41.220Z</time>
      </trkpt>
      <trkpt lat="45.821902" lon="12.246275">
        <ele>66.994745</ele>
        <time>2023-09-11T22:10:11.072Z</time>
      </trkpt>
      <trkpt lat="45.822114" lon="12.246184">
        <ele>67.129590</ele>
        <time>2023-09-11T22:10:19.683Z</time>
      </trkpt>
      <trkpt lat="45.822293" lon="12.246158">
        <ele>67.239226</ele>
        <time>2023-09-11T22:10:26.767Z</time>
      </trkpt>
      <trkpt lat="45.822442" lon="12.246011">
        <ele>67.349414</ele>
        <time>2023-09-11T22:10:33.793Z</time>
      </trkpt>
      <trkpt lat="45.822757" lon="12.245605">
        <ele>67.607432</ele>
        <time>2023-09-11T22:10:50.739Z</time>
      </trkpt>
      <trkpt lat="45.823100" lon="12.245231">
        <ele>67.869946</ele>
        <time>2023-09-11T22:11:08.177Z</time>
      </trkpt>
      <trkpt lat="45.823277" lon="12.245178">
        <ele>67.980130</ele>
        <time>2023-09-11T22:11:15.515Z</time>
      </trkpt>
      <trkpt lat="45.823381" lon="12.245181">
        <ele>68.028017</ele>
        <time>2023-09-11T22:11:19.848Z</time>
      </trkpt>
      <trkpt lat="45.823565" lon="12.244832">
        <ele>68.167770</ele>
        <time>2023-09-11T22:11:27.839Z</time>
      </trkpt>
      <trkpt lat="45.825249" lon="12.246062">
        <ele>68.744732</ele>
        <time>2023-09-11T22:12:12.208Z</time>
      </trkpt>
      <trkpt lat="45.825249" lon="12.246062">
        <ele>68.744732</ele>
        <time>2023-09-11T22:12:12.230Z</time>
      </trkpt>
      <trkpt lat="45.825249" lon="12.246062">
        <ele>68.744732</ele>
        <time>2023-09-11T22:12:12.230Z</time>
      </trkpt>
      <trkpt lat="45.825194" lon="12.246216">
        <ele>68.730092</ele>
        <time>2023-09-11T22:12:15.348Z</time>
      </trkpt>
      <trkpt lat="45.825255" lon="12.246274">
        <ele>68.721209</ele>
        <time>2023-09-11T22:12:17.241Z</time>
      </trkpt>
      <trkpt lat="45.825094" lon="12.246721">
        <ele>68.678641</ele>
        <time>2023-09-11T22:12:26.308Z</time>
      </trkpt>
      <trkpt lat="45.825566" lon="12.246988">
        <ele>68.617048</ele>
        <time>2023-09-11T22:12:39.428Z</time>
      </trkpt>
      <trkpt lat="45.825872" lon="12.246358">
        <ele>68.437565</ele>
        <time>2023-09-11T22:12:53.266Z</time>
      </trkpt>
      <trkpt lat="45.826177" lon="12.245729">
        <ele>68.159467</ele>
        <time>2023-09-11T22:13:07.075Z</time>
      </trkpt>
      <trkpt lat="45.827008" lon="12.245868">
        <ele>67.723756</ele>
        <time>2023-09-11T22:13:28.709Z</time>
      </trkpt>
      <trkpt lat="45.827839" lon="12.246008">
        <ele>67.258486</ele>
        <time>2023-09-11T22:13:50.346Z</time>
      </trkpt>
      <trkpt lat="45.828670" lon="12.246147">
        <ele>66.787264</ele>
        <time>2023-09-11T22:14:11.981Z</time>
      </trkpt>
      <trkpt lat="45.829501" lon="12.246286">
        <ele>66.326505</ele>
        <time>2023-09-11T22:14:33.616Z</time>
      </trkpt>
      <trkpt lat="45.829647" lon="12.247060">
        <ele>66.022060</ele>
        <time>2023-09-11T22:14:48.065Z</time>
      </trkpt>
      <trkpt lat="45.829793" lon="12.247835">
        <ele>65.717250</ele>
        <time>2023-09-11T22:15:02.531Z</time>
      </trkpt>
      <trkpt lat="45.829793" lon="12.247835">
        <ele>65.717250</ele>
        <time>2023-09-11T22:15:02.546Z</time>
      </trkpt>
      <trkpt lat="45.829749" lon="12.248005">
        <ele>65.655186</ele>
        <time>2023-09-11T22:15:07.097Z</time>
      </trkpt>
      <trkpt lat="45.829755" lon="12.249738">
        <ele>65.513980</ele>
        <time>2023-09-11T22:15:51.028Z</time>
      </trkpt>
      <trkpt lat="45.829861" lon="12.250678">
        <ele>65.471424</ele>
        <time>2023-09-11T22:16:16.001Z</time>
      </trkpt>
      <trkpt lat="45.829962" lon="12.251249">
        <ele>65.586304</ele>
        <time>2023-09-11T22:16:31.766Z</time>
      </trkpt>
      <trkpt lat="45.830034" lon="12.251206">
        <ele>65.608129</ele>
        <time>2023-09-11T22:16:34.762Z</time>
      </trkpt>
      <trkpt lat="45.831716" lon="12.250990">
        <ele>66.013627</ele>
        <time>2023-09-11T22:17:39.426Z</time>
      </trkpt>
      <trkpt lat="45.834510" lon="12.250603">
        <ele>66.275711</ele>
        <time>2023-09-11T22:19:24.174Z</time>
      </trkpt>
      <trkpt lat="45.835506" lon="12.250413">
        <ele>66.283016</ele>
        <time>2023-09-11T22:20:01.411Z</time>
      </trkpt>
      <trkpt lat="45.835869" lon="12.251399">
        <ele>66.271137</ele>
        <time>2023-09-11T22:20:30.217Z</time>
      </trkpt>
      <trkpt lat="45.835980" lon="12.251507">
        <ele>66.269086</ele>
        <time>2023-09-11T22:20:35.146Z</time>
      </trkpt>
      <trkpt lat="45.837786" lon="12.250291">
        <ele>66.185886</ele>
        <time>2023-09-11T22:21:48.203Z</time>
      </trkpt>
      <trkpt lat="45.837815" lon="12.250295">
        <ele>66.190258</ele>
        <time>2023-09-11T22:21:49.311Z</time>
      </trkpt>
      <trkpt lat="45.839954" lon="12.248802">
        <ele>67.180150</ele>
        <time>2023-09-11T22:22:45.220Z</time>
      </trkpt>
      <trkpt lat="45.845858" lon="12.244786">
        <ele>72.972979</ele>
        <time>2023-09-11T22:25:35.856Z</time>
      </trkpt>
      <trkpt lat="45.845917" lon="12.244626">
        <ele>73.024202</ele>
        <time>2023-09-11T22:25:39.059Z</time>
      </trkpt>
      <trkpt lat="45.845339" lon="12.244452">
        <ele>73.008244</ele>
        <time>2023-09-11T22:25:52.112Z</time>
      </trkpt>
      <trkpt lat="45.841813" lon="12.243429">
        <ele>72.635551</ele>
        <time>2023-09-11T22:27:09.249Z</time>
      </trkpt>
      <trkpt lat="45.841825" lon="12.243389">
        <ele>72.635782</ele>
        <time>2023-09-11T22:27:10.392Z</time>
      </trkpt>
      <trkpt lat="45.841463" lon="12.243285">
        <ele>72.638591</ele>
        <time>2023-09-11T22:27:18.706Z</time>
      </trkpt>
      <trkpt lat="45.841124" lon="12.243056">
        <ele>72.641443</ele>
        <time>2023-09-11T22:27:27.280Z</time>
      </trkpt>
      <trkpt lat="45.840086" lon="12.241673">
        <ele>72.773381</ele>
        <time>2023-09-11T22:27:59.857Z</time>
      </trkpt>
      <trkpt lat="45.839902" lon="12.241334">
        <ele>72.810335</ele>
        <time>2023-09-11T22:28:06.757Z</time>
      </trkpt>
      <trkpt lat="45.838507" lon="12.237360">
        <ele>73.122324</ele>
        <time>2023-09-11T22:29:15.173Z</time>
      </trkpt>
      <trkpt lat="45.838248" lon="12.236623">
        <ele>73.322081</ele>
        <time>2023-09-11T22:29:29.074Z</time>
      </trkpt>
      <trkpt lat="45.837714" lon="12.235309">
        <ele>74.560389</ele>
        <time>2023-09-11T22:29:56.965Z</time>
      </trkpt>
      <trkpt lat="45.837225" lon="12.234184">
        <ele>76.055491</ele>
        <time>2023-09-11T22:30:24.163Z</time>
      </trkpt>
      <trkpt lat="45.838136" lon="12.233234">
        <ele>78.920437</ele>
        <time>2023-09-11T22:31:00.454Z</time>
      </trkpt>
      <trkpt lat="45.838502" lon="12.232710">
        <ele>80.332943</ele>
        <time>2023-09-11T22:31:18.158Z</time>
      </trkpt>
      <trkpt lat="45.838938" lon="12.231571">
        <ele>83.081723</ele>
        <time>2023-09-11T22:31:50.250Z</time>
      </trkpt>
      <trkpt lat="45.840736" lon="12.230449">
        <ele>88.927651</ele>
        <time>2023-09-11T22:32:58.931Z</time>
      </trkpt>
      <trkpt lat="45.840801" lon="12.230480">
        <ele>89.103440</ele>
        <time>2023-09-11T22:33:01.099Z</time>
      </trkpt>
      <trkpt lat="45.840931" lon="12.230699">
        <ele>89.617871</ele>
        <time>2023-09-11T22:33:07.279Z</time>
      </trkpt>
      <trkpt lat="45.841029" lon="12.230675">
        <ele>89.873021</ele>
        <time>2023-09-11T22:33:10.300Z</time>
      </trkpt>
      <trkpt lat="45.841417" lon="12.230270">
        <ele>91.104265</ele>
        <time>2023-09-11T22:33:24.749Z</time>
      </trkpt>
      <trkpt lat="45.841510" lon="12.230250">
        <ele>91.345613</ele>
        <time>2023-09-11T22:33:27.509Z</time>
      </trkpt>
      <trkpt lat="45.841802" lon="12.230303">
        <ele>92.336684</ele>
        <time>2023-09-11T22:33:36.480Z</time>
      </trkpt>
      <trkpt lat="45.842176" lon="12.230438">
        <ele>93.897114</ele>
        <time>2023-09-11T22:33:48.998Z</time>
      </trkpt>
      <trkpt lat="45.842377" lon="12.230465">
        <ele>94.713974</ele>
        <time>2023-09-11T22:33:56.086Z</time>
      </trkpt>
      <trkpt lat="45.842361" lon="12.230222">
        <ele>95.401994</ele>
        <time>2023-09-11T22:34:04.771Z</time>
      </trkpt>
      <trkpt lat="45.842400" lon="12.229963">
        <ele>96.148922</ele>
        <time>2023-09-11T22:34:14.632Z</time>
      </trkpt>
      <trkpt lat="45.842486" lon="12.229724">
        <ele>96.907177</ele>
        <time>2023-09-11T22:34:24.918Z</time>
      </trkpt>
      <trkpt lat="45.842595" lon="12.229624">
        <ele>97.430606</ele>
        <time>2023-09-11T22:34:32.279Z</time>
      </trkpt>
      <trkpt lat="45.842875" lon="12.229545">
        <ele>98.585248</ele>
        <time>2023-09-11T22:34:49.043Z</time>
      </trkpt>
      <trkpt lat="45.843915" lon="12.229460">
        <ele>105.892976</ele>
        <time>2023-09-11T22:35:57.508Z</time>
      </trkpt>
      <trkpt lat="45.843944" lon="12.229410">
        <ele>106.224451</ele>
        <time>2023-09-11T22:36:00.637Z</time>
      </trkpt>
      <trkpt lat="45.844194" lon="12.228284">
        <ele>112.227216</ele>
        <time>2023-09-11T22:36:58.285Z</time>
      </trkpt>
      <trkpt lat="45.844311" lon="12.228116">
        <ele>113.254507</ele>
        <time>2023-09-11T22:37:09.465Z</time>
      </trkpt>
      <trkpt lat="45.844608" lon="12.228075">
        <ele>115.106722</ele>
        <time>2023-09-11T22:37:29.162Z</time>
      </trkpt>
      <trkpt lat="45.844709" lon="12.227977">
        <ele>115.863496</ele>
        <time>2023-09-11T22:37:37.065Z</time>
      </trkpt>
      <trkpt lat="45.844789" lon="12.227829">
        <ele>116.673583</ele>
        <time>2023-09-11T22:37:45.373Z</time>
      </trkpt>
      <trkpt lat="45.845236" lon="12.226543">
        <ele>122.888555</ele>
        <time>2023-09-11T22:38:44.921Z</time>
      </trkpt>
      <trkpt lat="45.845412" lon="12.226396">
        <ele>123.886824</ele>
        <time>2023-09-11T22:38:56.272Z</time>
      </trkpt>
      <trkpt lat="45.845773" lon="12.226321">
        <ele>125.453326</ele>
        <time>2023-09-11T22:39:16.588Z</time>
      </trkpt>
      <trkpt lat="45.845908" lon="12.226240">
        <ele>126.081699</ele>
        <time>2023-09-11T22:39:24.489Z</time>
      </trkpt>
      <trkpt lat="45.845908" lon="12.226240">
        <ele>126.081699</ele>
        <time>2023-09-11T22:39:24.511Z</time>
      </trkpt>
      <trkpt lat="45.846459" lon="12.225532">
        <ele>129.257471</ele>
        <time>2023-09-11T22:40:03.935Z</time>
      </trkpt>
      <trkpt lat="45.846491" lon="12.225406">
        <ele>129.658676</ele>
        <time>2023-09-11T22:40:08.812Z</time>
      </trkpt>
      <trkpt lat="45.846484" lon="12.225335">
        <ele>129.873193</ele>
        <time>2023-09-11T22:40:11.430Z</time>
      </trkpt>
      <trkpt lat="45.846286" lon="12.224848">
        <ele>131.500922</ele>
        <time>2023-09-11T22:40:31.764Z</time>
      </trkpt>
      <trkpt lat="45.848780" lon="12.221653">
        <ele>145.301988</ele>
        <time>2023-09-11T22:43:27.134Z</time>
      </trkpt>
      <trkpt lat="45.849173" lon="12.221383">
        <ele>148.170382</ele>
        <time>2023-09-11T22:43:55.897Z</time>
      </trkpt>
      <trkpt lat="45.849240" lon="12.221291">
        <ele>148.863583</ele>
        <time>2023-09-11T22:44:02.357Z</time>
      </trkpt>
      <trkpt lat="45.851415" lon="12.220460">
        <ele>164.407600</ele>
        <time>2023-09-11T22:46:37.438Z</time>
      </trkpt>
      <trkpt lat="45.851602" lon="12.221610">
        <ele>169.318913</ele>
        <time>2023-09-11T22:47:22.733Z</time>
      </trkpt>
      <trkpt lat="45.851723" lon="12.222406">
        <ele>172.375685</ele>
        <time>2023-09-11T22:47:51.995Z</time>
      </trkpt>
      <trkpt lat="45.851761" lon="12.222467">
        <ele>172.673480</ele>
        <time>2023-09-11T22:47:54.864Z</time>
      </trkpt>
      <trkpt lat="45.851818" lon="12.222514">
        <ele>173.016883</ele>
        <time>2023-09-11T22:47:57.923Z</time>
      </trkpt>
      <trkpt lat="45.852186" lon="12.222419">
        <ele>174.970264</ele>
        <time>2023-09-11T22:48:16.763Z</time>
      </trkpt>
      <trkpt lat="45.852085" lon="12.221939">
        <ele>176.794852</ele>
        <time>2023-09-11T22:48:31.332Z</time>
      </trkpt>
      <trkpt lat="45.852088" lon="12.221859">
        <ele>177.086378</ele>
        <time>2023-09-11T22:48:33.915Z</time>
      </trkpt>
      <trkpt lat="45.852122" lon="12.221782">
        <ele>177.418126</ele>
        <time>2023-09-11T22:48:37.067Z</time>
      </trkpt>
      <trkpt lat="45.852177" lon="12.221746">
        <ele>177.733916</ele>
        <time>2023-09-11T22:48:40.031Z</time>
      </trkpt>
      <trkpt lat="45.852570" lon="12.221881">
        <ele>180.238836</ele>
        <time>2023-09-11T22:49:01.344Z</time>
      </trkpt>
      <trkpt lat="45.852664" lon="12.221878">
        <ele>181.222252</ele>
        <time>2023-09-11T22:49:06.642Z</time>
      </trkpt>
      <trkpt lat="45.852841" lon="12.221812">
        <ele>183.134964</ele>
        <time>2023-09-11T22:49:18.309Z</time>
      </trkpt>
      <trkpt lat="45.853082" lon="12.221722">
        <ele>185.739527</ele>
        <time>2023-09-11T22:49:34.285Z</time>
      </trkpt>
      <trkpt lat="45.853416" lon="12.221526">
        <ele>189.513463</ele>
        <time>2023-09-11T22:49:58.900Z</time>
      </trkpt>
      <trkpt lat="45.853619" lon="12.221337">
        <ele>192.044038</ele>
        <time>2023-09-11T22:50:16.264Z</time>
      </trkpt>
      <trkpt lat="45.853759" lon="12.221156">
        <ele>194.014510</ele>
        <time>2023-09-11T22:50:29.688Z</time>
      </trkpt>
      <trkpt lat="45.853850" lon="12.220922">
        <ele>195.966876</ele>
        <time>2023-09-11T22:50:42.751Z</time>
      </trkpt>
      <trkpt lat="45.853898" lon="12.220712">
        <ele>197.576958</ele>
        <time>2023-09-11T22:50:53.378Z</time>
      </trkpt>
      <trkpt lat="45.853871" lon="12.220416">
        <ele>199.158523</ele>
        <time>2023-09-11T22:51:07.190Z</time>
      </trkpt>
      <trkpt lat="45.853640" lon="12.219489">
        <ele>203.470066</ele>
        <time>2023-09-11T22:51:46.031Z</time>
      </trkpt>
      <trkpt lat="45.853628" lon="12.219105">
        <ele>205.153383</ele>
        <time>2023-09-11T22:51:57.599Z</time>
      </trkpt>
      <trkpt lat="45.853662" lon="12.218693">
        <ele>206.970247</ele>
        <time>2023-09-11T22:52:07.394Z</time>
      </trkpt>
      <trkpt lat="45.853735" lon="12.218344">
        <ele>208.566032</ele>
        <time>2023-09-11T22:52:14.846Z</time>
      </trkpt>
      <trkpt lat="45.853829" lon="12.218086">
        <ele>209.752067</ele>
        <time>2023-09-11T22:52:21.198Z</time>
      </trkpt>
      <trkpt lat="45.853981" lon="12.217821">
        <ele>210.755006</ele>
        <time>2023-09-11T22:52:29.286Z</time>
      </trkpt>
      <trkpt lat="45.854636" lon="12.217107">
        <ele>214.204591</ele>
        <time>2023-09-11T22:53:01.576Z</time>
      </trkpt>
      <trkpt lat="45.854729" lon="12.216878">
        <ele>214.979028</ele>
        <time>2023-09-11T22:53:09.204Z</time>
      </trkpt>
      <trkpt lat="45.854776" lon="12.216625">
        <ele>215.743995</ele>
        <time>2023-09-11T22:53:16.573Z</time>
      </trkpt>
      <trkpt lat="45.854800" lon="12.216346">
        <ele>216.565272</ele>
        <time>2023-09-11T22:53:24.373Z</time>
      </trkpt>
      <trkpt lat="45.854782" lon="12.216104">
        <ele>217.324903</ele>
        <time>2023-09-11T22:53:31.155Z</time>
      </trkpt>
      <trkpt lat="45.854498" lon="12.215318">
        <ele>220.707251</ele>
        <time>2023-09-11T22:53:59.749Z</time>
      </trkpt>
      <trkpt lat="45.854435" lon="12.215073">
        <ele>221.704853</ele>
        <time>2023-09-11T22:54:09.474Z</time>
      </trkpt>
      <trkpt lat="45.854683" lon="12.214165">
        <ele>225.430401</ele>
        <time>2023-09-11T22:54:46.229Z</time>
      </trkpt>
      <trkpt lat="45.854656" lon="12.213956">
        <ele>226.242358</ele>
        <time>2023-09-11T22:54:52.630Z</time>
      </trkpt>
      <trkpt lat="45.854531" lon="12.213739">
        <ele>226.968514</ele>
        <time>2023-09-11T22:54:59.874Z</time>
      </trkpt>
      <trkpt lat="45.854046" lon="12.213154">
        <ele>226.821392</ele>
        <time>2023-09-11T22:55:15.265Z</time>
      </trkpt>
      <trkpt lat="45.853738" lon="12.212866">
        <ele>226.736021</ele>
        <time>2023-09-11T22:55:22.710Z</time>
      </trkpt>
      <trkpt lat="45.853642" lon="12.212691">
        <ele>226.699985</ele>
        <time>2023-09-11T22:55:25.868Z</time>
      </trkpt>
      <trkpt lat="45.853575" lon="12.212436">
        <ele>226.655896</ele>
        <time>2023-09-11T22:55:30.037Z</time>
      </trkpt>
      <trkpt lat="45.853588" lon="12.211669">
        <ele>226.070636</ele>
        <time>2023-09-11T22:55:41.272Z</time>
      </trkpt>
      <trkpt lat="45.853685" lon="12.211374">
        <ele>225.284286</ele>
        <time>2023-09-11T22:55:45.899Z</time>
      </trkpt>
      <trkpt lat="45.853902" lon="12.211114">
        <ele>224.306128</ele>
        <time>2023-09-11T22:55:51.398Z</time>
      </trkpt>
      <trkpt lat="45.853985" lon="12.210975">
        <ele>223.864795</ele>
        <time>2023-09-11T22:55:53.826Z</time>
      </trkpt>
      <trkpt lat="45.853990" lon="12.210858">
        <ele>223.582241</ele>
        <time>2023-09-11T22:55:55.381Z</time>
      </trkpt>
      <trkpt lat="45.853536" lon="12.209992">
        <ele>220.969525</ele>
        <time>2023-09-11T22:56:08.817Z</time>
      </trkpt>
      <trkpt lat="45.853254" lon="12.209595">
        <ele>218.555086</ele>
        <time>2023-09-11T22:56:15.359Z</time>
      </trkpt>
      <trkpt lat="45.853200" lon="12.209405">
        <ele>217.357712</ele>
        <time>2023-09-11T22:56:17.669Z</time>
      </trkpt>
      <trkpt lat="45.853197" lon="12.209220">
        <ele>216.277966</ele>
        <time>2023-09-11T22:56:19.729Z</time>
      </trkpt>
      <trkpt lat="45.853260" lon="12.209028">
        <ele>215.039573</ele>
        <time>2023-09-11T22:56:22.102Z</time>
      </trkpt>
      <trkpt lat="45.853677" lon="12.208607">
        <ele>210.768968</ele>
        <time>2023-09-11T22:56:30.010Z</time>
      </trkpt>
      <trkpt lat="45.854292" lon="12.208302">
        <ele>205.318146</ele>
        <time>2023-09-11T22:56:39.968Z</time>
      </trkpt>
      <trkpt lat="45.855037" lon="12.208033">
        <ele>199.946204</ele>
        <time>2023-09-11T22:56:51.876Z</time>
      </trkpt>
      <trkpt lat="45.855247" lon="12.207992">
        <ele>198.466293</ele>
        <time>2023-09-11T22:56:55.238Z</time>
      </trkpt>
      <trkpt lat="45.855666" lon="12.207840">
        <ele>195.448499</ele>
        <time>2023-09-11T22:57:02.350Z</time>
      </trkpt>
      <trkpt lat="45.855845" lon="12.207735">
        <ele>194.098265</ele>
        <time>2023-09-11T22:57:05.745Z</time>
      </trkpt>
      <trkpt lat="45.855950" lon="12.207633">
        <ele>193.213011</ele>
        <time>2023-09-11T22:57:07.963Z</time>
      </trkpt>
      <trkpt lat="45.856010" lon="12.207490">
        <ele>192.674182</ele>
        <time>2023-09-11T22:57:10.104Z</time>
      </trkpt>
      <trkpt lat="45.856035" lon="12.207205">
        <ele>192.503293</ele>
        <time>2023-09-11T22:57:13.865Z</time>
      </trkpt>
      <trkpt lat="45.855837" lon="12.205903">
        <ele>191.710470</ele>
        <time>2023-09-11T22:57:35.096Z</time>
      </trkpt>
      <trkpt lat="45.855837" lon="12.205590">
        <ele>191.524263</ele>
        <time>2023-09-11T22:57:41.062Z</time>
      </trkpt>
      <trkpt lat="45.855921" lon="12.205055">
        <ele>191.197999</ele>
        <time>2023-09-11T22:57:51.460Z</time>
      </trkpt>
      <trkpt lat="45.856052" lon="12.204717">
        <ele>191.021414</ele>
        <time>2023-09-11T22:57:58.683Z</time>
      </trkpt>
      <trkpt lat="45.856189" lon="12.204583">
        <ele>190.916263</ele>
        <time>2023-09-11T22:58:03.172Z</time>
      </trkpt>
      <trkpt lat="45.856358" lon="12.204479">
        <ele>190.799631</ele>
        <time>2023-09-11T22:58:07.843Z</time>
      </trkpt>
      <trkpt lat="45.856491" lon="12.204312">
        <ele>190.687556</ele>
        <time>2023-09-11T22:58:12.071Z</time>
      </trkpt>
      <trkpt lat="45.856538" lon="12.204078">
        <ele>190.579966</ele>
        <time>2023-09-11T22:58:15.844Z</time>
      </trkpt>
      <trkpt lat="45.856384" lon="12.203264">
        <ele>190.207322</ele>
        <time>2023-09-11T22:58:27.999Z</time>
      </trkpt>
      <trkpt lat="45.856395" lon="12.202980">
        <ele>190.081662</ele>
        <time>2023-09-11T22:58:32.045Z</time>
      </trkpt>
      <trkpt lat="45.856485" lon="12.202659">
        <ele>189.780086</ele>
        <time>2023-09-11T22:58:37.159Z</time>
      </trkpt>
      <trkpt lat="45.856584" lon="12.202425">
        <ele>189.489682</ele>
        <time>2023-09-11T22:58:41.065Z</time>
      </trkpt>
      <trkpt lat="45.856767" lon="12.202156">
        <ele>189.090831</ele>
        <time>2023-09-11T22:58:46.649Z</time>
      </trkpt>
      <trkpt lat="45.857157" lon="12.201773">
        <ele>188.371243</ele>
        <time>2023-09-11T22:58:56.308Z</time>
      </trkpt>
      <trkpt lat="45.857587" lon="12.201611">
        <ele>187.694204</ele>
        <time>2023-09-11T22:59:05.152Z</time>
      </trkpt>
      <trkpt lat="45.858221" lon="12.201056">
        <ele>187.138588</ele>
        <time>2023-09-11T22:59:20.618Z</time>
      </trkpt>
      <trkpt lat="45.858320" lon="12.200822">
        <ele>187.076294</ele>
        <time>2023-09-11T22:59:25.511Z</time>
      </trkpt>
      <trkpt lat="45.858340" lon="12.200601">
        <ele>187.025589</ele>
        <time>2023-09-11T22:59:29.500Z</time>
      </trkpt>
      <trkpt lat="45.858401" lon="12.200413">
        <ele>186.978400</ele>
        <time>2023-09-11T22:59:33.611Z</time>
      </trkpt>
      <trkpt lat="45.858390" lon="12.200062">
        <ele>186.898459</ele>
        <time>2023-09-11T22:59:40.096Z</time>
      </trkpt>
      <trkpt lat="45.858442" lon="12.199849">
        <ele>186.847106</ele>
        <time>2023-09-11T22:59:44.151Z</time>
      </trkpt>
      <trkpt lat="45.858506" lon="12.199736">
        <ele>186.813967</ele>
        <time>2023-09-11T22:59:46.530Z</time>
      </trkpt>
      <trkpt lat="45.859040" lon="12.199255">
        <ele>186.730511</ele>
        <time>2023-09-11T23:00:01.440Z</time>
      </trkpt>
      <trkpt lat="45.859484" lon="12.198856">
        <ele>186.768889</ele>
        <time>2023-09-11T23:00:13.703Z</time>
      </trkpt>
      <trkpt lat="45.859591" lon="12.198759">
        <ele>186.778160</ele>
        <time>2023-09-11T23:00:16.885Z</time>
      </trkpt>
      <trkpt lat="45.859713" lon="12.198734">
        <ele>186.787190</ele>
        <time>2023-09-11T23:00:19.857Z</time>
      </trkpt>
      <trkpt lat="45.860335" lon="12.198288">
        <ele>186.838129</ele>
        <time>2023-09-11T23:00:38.008Z</time>
      </trkpt>
      <trkpt lat="45.860611" lon="12.197999">
        <ele>187.269026</ele>
        <time>2023-09-11T23:00:46.646Z</time>
      </trkpt>
      <trkpt lat="45.862609" lon="12.196618">
        <ele>190.667863</ele>
        <time>2023-09-11T23:01:56.330Z</time>
      </trkpt>
      <trkpt lat="45.862931" lon="12.196551">
        <ele>191.286324</ele>
        <time>2023-09-11T23:02:06.120Z</time>
      </trkpt>
      <trkpt lat="45.863066" lon="12.196570">
        <ele>191.544166</ele>
        <time>2023-09-11T23:02:10.334Z</time>
      </trkpt>
      <trkpt lat="45.863141" lon="12.196580">
        <ele>191.687342</ele>
        <time>2023-09-11T23:02:12.663Z</time>
      </trkpt>
      <trkpt lat="45.863966" lon="12.197566">
        <ele>194.413298</ele>
        <time>2023-09-11T23:02:50.529Z</time>
      </trkpt>
      <trkpt lat="45.864118" lon="12.197636">
        <ele>194.916534</ele>
        <time>2023-09-11T23:02:56.460Z</time>
      </trkpt>
      <trkpt lat="45.864181" lon="12.197665">
        <ele>195.125103</ele>
        <time>2023-09-11T23:02:58.871Z</time>
      </trkpt>
      <trkpt lat="45.865008" lon="12.197372">
        <ele>197.810489</ele>
        <time>2023-09-11T23:03:31.414Z</time>
      </trkpt>
      <trkpt lat="45.866362" lon="12.196893">
        <ele>201.684242</ele>
        <time>2023-09-11T23:04:27.243Z</time>
      </trkpt>
      <trkpt lat="45.866548" lon="12.196855">
        <ele>202.196150</ele>
        <time>2023-09-11T23:04:33.441Z</time>
      </trkpt>
      <trkpt lat="45.866866" lon="12.196871">
        <ele>203.063154</ele>
        <time>2023-09-11T23:04:42.866Z</time>
      </trkpt>
      <trkpt lat="45.868091" lon="12.197176">
        <ele>202.544805</ele>
        <time>2023-09-11T23:05:10.871Z</time>
      </trkpt>
      <trkpt lat="45.869107" lon="12.197342">
        <ele>202.346633</ele>
        <time>2023-09-11T23:05:32.443Z</time>
      </trkpt>
      <trkpt lat="45.869249" lon="12.197429">
        <ele>202.418036</ele>
        <time>2023-09-11T23:05:35.683Z</time>
      </trkpt>
      <trkpt lat="45.869263" lon="12.197586">
        <ele>202.469010</ele>
        <time>2023-09-11T23:05:38.403Z</time>
      </trkpt>
      <trkpt lat="45.869529" lon="12.198365">
        <ele>202.748426</ele>
        <time>2023-09-11T23:05:53.781Z</time>
      </trkpt>
      <trkpt lat="45.869614" lon="12.199804">
        <ele>203.517807</ele>
        <time>2023-09-11T23:06:23.915Z</time>
      </trkpt>
      <trkpt lat="45.869500" lon="12.199814">
        <ele>203.644350</ele>
        <time>2023-09-11T23:06:27.101Z</time>
      </trkpt>
      <trkpt lat="45.869397" lon="12.199862">
        <ele>203.764327</ele>
        <time>2023-09-11T23:06:30.079Z</time>
      </trkpt>
      <trkpt lat="45.869281" lon="12.199970">
        <ele>203.917494</ele>
        <time>2023-09-11T23:06:32.976Z</time>
      </trkpt>
      <trkpt lat="45.869120" lon="12.200180">
        <ele>204.158464</ele>
        <time>2023-09-11T23:06:38.901Z</time>
      </trkpt>
      <trkpt lat="45.868911" lon="12.200618">
        <ele>204.568100</ele>
        <time>2023-09-11T23:06:48.657Z</time>
      </trkpt>
      <trkpt lat="45.868756" lon="12.201142">
        <ele>205.010469</ele>
        <time>2023-09-11T23:06:59.462Z</time>
      </trkpt>
      <trkpt lat="45.868589" lon="12.201873">
        <ele>205.702238</ele>
        <time>2023-09-11T23:07:13.828Z</time>
      </trkpt>
      <trkpt lat="45.868345" lon="12.203810">
        <ele>207.479269</ele>
        <time>2023-09-11T23:08:11.201Z</time>
      </trkpt>
      <trkpt lat="45.868411" lon="12.204664">
        <ele>208.285678</ele>
        <time>2023-09-11T23:08:41.433Z</time>
      </trkpt>
      <trkpt lat="45.868485" lon="12.204774">
        <ele>208.429224</ele>
        <time>2023-09-11T23:08:46.462Z</time>
      </trkpt>
      <trkpt lat="45.868654" lon="12.204820">
        <ele>208.661063</ele>
        <time>2023-09-11T23:08:54.203Z</time>
      </trkpt>
      <trkpt lat="45.869598" lon="12.204269">
        <ele>209.493700</ele>
        <time>2023-09-11T23:09:32.919Z</time>
      </trkpt>
      <trkpt lat="45.869777" lon="12.204262">
        <ele>209.298902</ele>
        <time>2023-09-11T23:09:38.931Z</time>
      </trkpt>
      <trkpt lat="45.869898" lon="12.204317">
        <ele>209.160836</ele>
        <time>2023-09-11T23:09:43.295Z</time>
      </trkpt>
      <trkpt lat="45.869959" lon="12.204381">
        <ele>209.078656</ele>
        <time>2023-09-11T23:09:45.841Z</time>
      </trkpt>
      <trkpt lat="45.870591" lon="12.205267">
        <ele>208.117890</ele>
        <time>2023-09-11T23:10:13.519Z</time>
      </trkpt>
      <trkpt lat="45.870741" lon="12.205602">
        <ele>207.816205</ele>
        <time>2023-09-11T23:10:22.553Z</time>
      </trkpt>
      <trkpt lat="45.870797" lon="12.205844">
        <ele>208.196626</ele>
        <time>2023-09-11T23:10:28.490Z</time>
      </trkpt>
      <trkpt lat="45.870777" lon="12.206008">
        <ele>208.535609</ele>
        <time>2023-09-11T23:10:32.624Z</time>
      </trkpt>
      <trkpt lat="45.870500" lon="12.206991">
        <ele>210.694667</ele>
        <time>2023-09-11T23:11:04.007Z</time>
      </trkpt>
      <trkpt lat="45.870500" lon="12.207194">
        <ele>211.107973</ele>
        <time>2023-09-11T23:11:10.942Z</time>
      </trkpt>
      <trkpt lat="45.870995" lon="12.208740">
        <ele>217.422377</ele>
        <time>2023-09-11T23:12:25.639Z</time>
      </trkpt>
      <trkpt lat="45.871021" lon="12.208923">
        <ele>218.508875</ele>
        <time>2023-09-11T23:12:35.431Z</time>
      </trkpt>
      <trkpt lat="45.871057" lon="12.209668">
        <ele>222.853168</ele>
        <time>2023-09-11T23:13:17.265Z</time>
      </trkpt>
      <trkpt lat="45.871131" lon="12.209823">
        <ele>223.946449</ele>
        <time>2023-09-11T23:13:27.498Z</time>
      </trkpt>
      <trkpt lat="45.871229" lon="12.209954">
        <ele>225.064988</ele>
        <time>2023-09-11T23:13:38.068Z</time>
      </trkpt>
      <trkpt lat="45.871274" lon="12.210077">
        <ele>225.873272</ele>
        <time>2023-09-11T23:13:45.503Z</time>
      </trkpt>
      <trkpt lat="45.871263" lon="12.210259">
        <ele>226.935992</ele>
        <time>2023-09-11T23:13:54.577Z</time>
      </trkpt>
      <trkpt lat="45.870772" lon="12.211351">
        <ele>229.632236</ele>
        <time>2023-09-11T23:14:49.897Z</time>
      </trkpt>
      <trkpt lat="45.870664" lon="12.211416">
        <ele>229.870552</ele>
        <time>2023-09-11T23:14:55.742Z</time>
      </trkpt>
      <trkpt lat="45.870344" lon="12.211444">
        <ele>230.523010</ele>
        <time>2023-09-11T23:15:09.041Z</time>
      </trkpt>
      <trkpt lat="45.870101" lon="12.211519">
        <ele>231.028844</ele>
        <time>2023-09-11T23:15:17.353Z</time>
      </trkpt>
      <trkpt lat="45.869629" lon="12.211605">
        <ele>231.060425</ele>
        <time>2023-09-11T23:15:31.001Z</time>
      </trkpt>
      <trkpt lat="45.869492" lon="12.211669">
        <ele>230.341251</ele>
        <time>2023-09-11T23:15:34.859Z</time>
      </trkpt>
      <trkpt lat="45.869321" lon="12.211827">
        <ele>229.326214</ele>
        <time>2023-09-11T23:15:40.131Z</time>
      </trkpt>
      <trkpt lat="45.869378" lon="12.211940">
        <ele>228.841198</ele>
        <time>2023-09-11T23:15:42.736Z</time>
      </trkpt>
      <trkpt lat="45.869377" lon="12.212786">
        <ele>225.900574</ele>
        <time>2023-09-11T23:15:58.073Z</time>
      </trkpt>
      <trkpt lat="45.869816" lon="12.213467">
        <ele>222.779032</ele>
        <time>2023-09-11T23:16:16.063Z</time>
      </trkpt>
      <trkpt lat="45.869953" lon="12.213599">
        <ele>223.143827</ele>
        <time>2023-09-11T23:16:21.078Z</time>
      </trkpt>
      <trkpt lat="45.870065" lon="12.213625">
        <ele>223.394698</ele>
        <time>2023-09-11T23:16:24.475Z</time>
      </trkpt>
      <trkpt lat="45.870117" lon="12.213603">
        <ele>223.514567</ele>
        <time>2023-09-11T23:16:26.014Z</time>
      </trkpt>
      <trkpt lat="45.870444" lon="12.213294">
        <ele>224.380111</ele>
        <time>2023-09-11T23:16:39.491Z</time>
      </trkpt>
      <trkpt lat="45.870557" lon="12.213258">
        <ele>224.636053</ele>
        <time>2023-09-11T23:16:44.697Z</time>
      </trkpt>
      <trkpt lat="45.870687" lon="12.213262">
        <ele>224.923578</ele>
        <time>2023-09-11T23:16:51.608Z</time>
      </trkpt>
      <trkpt lat="45.871656" lon="12.213559">
        <ele>227.554689</ele>
        <time>2023-09-11T23:17:53.942Z</time>
      </trkpt>
      <trkpt lat="45.871784" lon="12.213360">
        <ele>228.442254</ele>
        <time>2023-09-11T23:18:03.620Z</time>
      </trkpt>
      <trkpt lat="45.871855" lon="12.213090">
        <ele>229.387789</ele>
        <time>2023-09-11T23:18:12.660Z</time>
      </trkpt>
      <trkpt lat="45.872048" lon="12.212103">
        <ele>232.746411</ele>
        <time>2023-09-11T23:18:41.711Z</time>
      </trkpt>
      <trkpt lat="45.872099" lon="12.211952">
        <ele>233.296233</ele>
        <time>2023-09-11T23:18:46.654Z</time>
      </trkpt>
      <trkpt lat="45.872163" lon="12.211860">
        <ele>233.722292</ele>
        <time>2023-09-11T23:18:50.279Z</time>
      </trkpt>
      <trkpt lat="45.872468" lon="12.211704">
        <ele>235.159105</ele>
        <time>2023-09-11T23:19:03.038Z</time>
      </trkpt>
      <trkpt lat="45.872550" lon="12.211630">
        <ele>234.938699</ele>
        <time>2023-09-11T23:19:06.386Z</time>
      </trkpt>
      <trkpt lat="45.872611" lon="12.211544">
        <ele>234.744161</ele>
        <time>2023-09-11T23:19:09.357Z</time>
      </trkpt>
      <trkpt lat="45.872645" lon="12.211433">
        <ele>234.552000</ele>
        <time>2023-09-11T23:19:11.394Z</time>
      </trkpt>
      <trkpt lat="45.872654" lon="12.211147">
        <ele>234.098339</ele>
        <time>2023-09-11T23:19:15.722Z</time>
      </trkpt>
      <trkpt lat="45.872569" lon="12.210216">
        <ele>232.610436</ele>
        <time>2023-09-11T23:19:26.696Z</time>
      </trkpt>
      <trkpt lat="45.872624" lon="12.210000">
        <ele>232.245989</ele>
        <time>2023-09-11T23:19:29.113Z</time>
      </trkpt>
      <trkpt lat="45.873210" lon="12.209404">
        <ele>229.391058</ele>
        <time>2023-09-11T23:19:39.823Z</time>
      </trkpt>
      <trkpt lat="45.873301" lon="12.209242">
        <ele>228.225899</ele>
        <time>2023-09-11T23:19:41.954Z</time>
      </trkpt>
      <trkpt lat="45.873414" lon="12.208886">
        <ele>226.035811</ele>
        <time>2023-09-11T23:19:45.804Z</time>
      </trkpt>
      <trkpt lat="45.873492" lon="12.208768">
        <ele>225.125016</ele>
        <time>2023-09-11T23:19:47.400Z</time>
      </trkpt>
      <trkpt lat="45.874040" lon="12.208173">
        <ele>219.601990</ele>
        <time>2023-09-11T23:19:56.862Z</time>
      </trkpt>
      <trkpt lat="45.874168" lon="12.207976">
        <ele>218.093670</ele>
        <time>2023-09-11T23:19:59.413Z</time>
      </trkpt>
      <trkpt lat="45.874289" lon="12.207717">
        <ele>216.381207</ele>
        <time>2023-09-11T23:20:02.375Z</time>
      </trkpt>
      <trkpt lat="45.874380" lon="12.207589">
        <ele>215.477211</ele>
        <time>2023-09-11T23:20:04.097Z</time>
      </trkpt>
      <trkpt lat="45.874500" lon="12.207477">
        <ele>214.461496</ele>
        <time>2023-09-11T23:20:06.038Z</time>
      </trkpt>
      <trkpt lat="45.875577" lon="12.208626">
        <ele>204.939648</ele>
        <time>2023-09-11T23:20:26.008Z</time>
      </trkpt>
      <trkpt lat="45.876663" lon="12.209118">
        <ele>201.837865</ele>
        <time>2023-09-11T23:20:46.228Z</time>
      </trkpt>
      <trkpt lat="45.877277" lon="12.209341">
        <ele>200.536464</ele>
        <time>2023-09-11T23:21:00.667Z</time>
      </trkpt>
      <trkpt lat="45.878834" lon="12.209473">
        <ele>198.939352</ele>
        <time>2023-09-11T23:21:31.195Z</time>
      </trkpt>
      <trkpt lat="45.879476" lon="12.209136">
        <ele>199.084883</ele>
        <time>2023-09-11T23:21:45.920Z</time>
      </trkpt>
      <trkpt lat="45.880020" lon="12.208984">
        <ele>200.158061</ele>
        <time>2023-09-11T23:22:01.385Z</time>
      </trkpt>
      <trkpt lat="45.880834" lon="12.208826">
        <ele>201.748664</ele>
        <time>2023-09-11T23:22:30.315Z</time>
      </trkpt>
      <trkpt lat="45.882010" lon="12.208590">
        <ele>204.950700</ele>
        <time>2023-09-11T23:23:16.244Z</time>
      </trkpt>
      <trkpt lat="45.882082" lon="12.208540">
        <ele>205.175558</ele>
        <time>2023-09-11T23:23:18.949Z</time>
      </trkpt>
      <trkpt lat="45.882874" lon="12.207491">
        <ele>207.337208</ele>
        <time>2023-09-11T23:23:50.778Z</time>
      </trkpt>
      <trkpt lat="45.883021" lon="12.207339">
        <ele>207.443575</ele>
        <time>2023-09-11T23:23:55.104Z</time>
      </trkpt>
      <trkpt lat="45.883188" lon="12.207217">
        <ele>207.553602</ele>
        <time>2023-09-11T23:23:59.404Z</time>
      </trkpt>
      <trkpt lat="45.883577" lon="12.207059">
        <ele>207.791005</ele>
        <time>2023-09-11T23:24:08.064Z</time>
      </trkpt>
      <trkpt lat="45.883693" lon="12.206926">
        <ele>207.878165</ele>
        <time>2023-09-11T23:24:11.364Z</time>
      </trkpt>
      <trkpt lat="45.884940" lon="12.204333">
        <ele>209.443883</ele>
        <time>2023-09-11T23:25:10.859Z</time>
      </trkpt>
      <trkpt lat="45.885121" lon="12.204196">
        <ele>209.188983</ele>
        <time>2023-09-11T23:25:16.084Z</time>
      </trkpt>
      <trkpt lat="45.885563" lon="12.204160">
        <ele>207.910219</ele>
        <time>2023-09-11T23:25:25.398Z</time>
      </trkpt>
      <trkpt lat="45.885751" lon="12.204182">
        <ele>207.365383</ele>
        <time>2023-09-11T23:25:28.982Z</time>
      </trkpt>
      <trkpt lat="45.885958" lon="12.204272">
        <ele>206.740682</ele>
        <time>2023-09-11T23:25:32.762Z</time>
      </trkpt>
      <trkpt lat="45.886099" lon="12.204370">
        <ele>206.288243</ele>
        <time>2023-09-11T23:25:35.453Z</time>
      </trkpt>
      <trkpt lat="45.886502" lon="12.204775">
        <ele>204.867631</ele>
        <time>2023-09-11T23:25:43.343Z</time>
      </trkpt>
      <trkpt lat="45.887405" lon="12.205077">
        <ele>199.835028</ele>
        <time>2023-09-11T23:25:57.311Z</time>
      </trkpt>
      <trkpt lat="45.887544" lon="12.205261">
        <ele>198.685054</ele>
        <time>2023-09-11T23:26:00.074Z</time>
      </trkpt>
      <trkpt lat="45.887933" lon="12.205916">
        <ele>195.038652</ele>
        <time>2023-09-11T23:26:09.123Z</time>
      </trkpt>
      <trkpt lat="45.888272" lon="12.206379">
        <ele>193.268204</ele>
        <time>2023-09-11T23:26:16.688Z</time>
      </trkpt>
      <trkpt lat="45.888368" lon="12.206605">
        <ele>193.167387</ele>
        <time>2023-09-11T23:26:19.927Z</time>
      </trkpt>
      <trkpt lat="45.888485" lon="12.207068">
        <ele>192.979826</ele>
        <time>2023-09-11T23:26:26.373Z</time>
      </trkpt>
      <trkpt lat="45.888781" lon="12.209432">
        <ele>193.837062</ele>
        <time>2023-09-11T23:27:14.454Z</time>
      </trkpt>
      <trkpt lat="45.888957" lon="12.211382">
        <ele>197.078089</ele>
        <time>2023-09-11T23:28:03.544Z</time>
      </trkpt>
      <trkpt lat="45.888949" lon="12.211676">
        <ele>197.465951</ele>
        <time>2023-09-11T23:28:10.058Z</time>
      </trkpt>
      <trkpt lat="45.888785" lon="12.212346">
        <ele>198.402204</ele>
        <time>2023-09-11T23:28:23.674Z</time>
      </trkpt>
      <trkpt lat="45.888747" lon="12.212415">
        <ele>198.518191</ele>
        <time>2023-09-11T23:28:25.274Z</time>
      </trkpt>
      <trkpt lat="45.888687" lon="12.212479">
        <ele>198.659721</ele>
        <time>2023-09-11T23:28:27.232Z</time>
      </trkpt>
      <trkpt lat="45.888449" lon="12.212560">
        <ele>199.122945</ele>
        <time>2023-09-11T23:28:32.946Z</time>
      </trkpt>
      <trkpt lat="45.887902" lon="12.212771">
        <ele>200.225898</ele>
        <time>2023-09-11T23:28:50.887Z</time>
      </trkpt>
      <trkpt lat="45.887775" lon="12.212845">
        <ele>200.829739</ele>
        <time>2023-09-11T23:28:55.852Z</time>
      </trkpt>
      <trkpt lat="45.887373" lon="12.213335">
        <ele>203.152595</ele>
        <time>2023-09-11T23:29:15.787Z</time>
      </trkpt>
      <trkpt lat="45.887311" lon="12.213461">
        <ele>203.625835</ele>
        <time>2023-09-11T23:29:19.724Z</time>
      </trkpt>
      <trkpt lat="45.887242" lon="12.213689">
        <ele>204.388327</ele>
        <time>2023-09-11T23:29:26.278Z</time>
      </trkpt>
      <trkpt lat="45.887444" lon="12.213952">
        <ele>205.589473</ele>
        <time>2023-09-11T23:29:41.267Z</time>
      </trkpt>
      <trkpt lat="45.887553" lon="12.213928">
        <ele>206.075341</ele>
        <time>2023-09-11T23:29:47.531Z</time>
      </trkpt>
      <trkpt lat="45.887796" lon="12.213750">
        <ele>207.277156</ele>
        <time>2023-09-11T23:30:03.878Z</time>
      </trkpt>
      <trkpt lat="45.887995" lon="12.213783">
        <ele>208.173554</ele>
        <time>2023-09-11T23:30:16.518Z</time>
      </trkpt>
      <trkpt lat="45.888141" lon="12.213977">
        <ele>209.244128</ele>
        <time>2023-09-11T23:30:29.616Z</time>
      </trkpt>
      <trkpt lat="45.888192" lon="12.214156">
        <ele>209.968861</ele>
        <time>2023-09-11T23:30:38.637Z</time>
      </trkpt>
      <trkpt lat="45.888227" lon="12.214438">
        <ele>211.042188</ele>
        <time>2023-09-11T23:30:52.380Z</time>
      </trkpt>
      <trkpt lat="45.888256" lon="12.214501">
        <ele>211.325202</ele>
        <time>2023-09-11T23:30:55.868Z</time>
      </trkpt>
      <trkpt lat="45.888303" lon="12.214521">
        <ele>211.589077</ele>
        <time>2023-09-11T23:30:59.366Z</time>
      </trkpt>
      <trkpt lat="45.889274" lon="12.214354">
        <ele>216.853476</ele>
        <time>2023-09-11T23:31:58.559Z</time>
      </trkpt>
      <trkpt lat="45.889518" lon="12.215453">
        <ele>217.643809</ele>
        <time>2023-09-11T23:32:31.231Z</time>
      </trkpt>
      <trkpt lat="45.889861" lon="12.215803">
        <ele>217.552889</ele>
        <time>2023-09-11T23:32:45.335Z</time>
      </trkpt>
      <trkpt lat="45.891047" lon="12.215851">
        <ele>216.977299</ele>
        <time>2023-09-11T23:33:23.403Z</time>
      </trkpt>
      <trkpt lat="45.892455" lon="12.215453">
        <ele>215.631538</ele>
        <time>2023-09-11T23:34:12.712Z</time>
      </trkpt>
      <trkpt lat="45.892677" lon="12.215676">
        <ele>215.400930</ele>
        <time>2023-09-11T23:34:22.978Z</time>
      </trkpt>
      <trkpt lat="45.893031" lon="12.215676">
        <ele>215.099557</ele>
        <time>2023-09-11T23:34:35.947Z</time>
      </trkpt>
      <trkpt lat="45.893497" lon="12.215421">
        <ele>214.675034</ele>
        <time>2023-09-11T23:34:53.320Z</time>
      </trkpt>
      <trkpt lat="45.895525" lon="12.213478">
        <ele>210.699335</ele>
        <time>2023-09-11T23:36:11.596Z</time>
      </trkpt>
      <trkpt lat="45.895869" lon="12.212793">
        <ele>208.241163</ele>
        <time>2023-09-11T23:36:29.140Z</time>
      </trkpt>
      <trkpt lat="45.896152" lon="12.212379">
        <ele>206.552462</ele>
        <time>2023-09-11T23:36:40.675Z</time>
      </trkpt>
      <trkpt lat="45.896192" lon="12.212222">
        <ele>206.065932</ele>
        <time>2023-09-11T23:36:43.907Z</time>
      </trkpt>
      <trkpt lat="45.896155" lon="12.211991">
        <ele>205.376136</ele>
        <time>2023-09-11T23:36:48.472Z</time>
      </trkpt>
      <trkpt lat="45.896155" lon="12.211845">
        <ele>204.951268</ele>
        <time>2023-09-11T23:36:51.258Z</time>
      </trkpt>
      <trkpt lat="45.896634" lon="12.211296">
        <ele>201.698380</ele>
        <time>2023-09-11T23:37:07.643Z</time>
      </trkpt>
      <trkpt lat="45.897299" lon="12.208716">
        <ele>187.690979</ele>
        <time>2023-09-11T23:37:56.755Z</time>
      </trkpt>
      <trkpt lat="45.896955" lon="12.206821">
        <ele>177.057079</ele>
        <time>2023-09-11T23:38:31.413Z</time>
      </trkpt>
      <trkpt lat="45.897720" lon="12.204926">
        <ele>165.524071</ele>
        <time>2023-09-11T23:39:10.433Z</time>
      </trkpt>
      <trkpt lat="45.898119" lon="12.204432">
        <ele>161.765088</ele>
        <time>2023-09-11T23:39:24.052Z</time>
      </trkpt>
      <trkpt lat="45.897997" lon="12.203938">
        <ele>159.502186</ele>
        <time>2023-09-11T23:39:33.520Z</time>
      </trkpt>
      <trkpt lat="45.897709" lon="12.203269">
        <ele>156.106202</ele>
        <time>2023-09-11T23:39:47.913Z</time>
      </trkpt>
      <trkpt lat="45.897730" lon="12.202955">
        <ele>154.744407</ele>
        <time>2023-09-11T23:39:53.837Z</time>
      </trkpt>
      <trkpt lat="45.897737" lon="12.202722">
        <ele>153.737600</ele>
        <time>2023-09-11T23:39:58.190Z</time>
      </trkpt>
      <trkpt lat="45.897611" lon="12.201950">
        <ele>150.769357</ele>
        <time>2023-09-11T23:40:13.256Z</time>
      </trkpt>
      <trkpt lat="45.897598" lon="12.201741">
        <ele>150.182017</ele>
        <time>2023-09-11T23:40:17.290Z</time>
      </trkpt>
      <trkpt lat="45.897616" lon="12.201673">
        <ele>149.978376</ele>
        <time>2023-09-11T23:40:18.705Z</time>
      </trkpt>
      <trkpt lat="45.897769" lon="12.201346">
        <ele>148.875449</ele>
        <time>2023-09-11T23:40:26.433Z</time>
      </trkpt>
      <trkpt lat="45.898187" lon="12.200814">
        <ele>146.629599</ele>
        <time>2023-09-11T23:40:42.583Z</time>
      </trkpt>
      <trkpt lat="45.898265" lon="12.200661">
        <ele>146.098731</ele>
        <time>2023-09-11T23:40:46.397Z</time>
      </trkpt>
      <trkpt lat="45.898497" lon="12.199899">
        <ele>143.814835</ele>
        <time>2023-09-11T23:40:56.356Z</time>
      </trkpt>
      <trkpt lat="45.898826" lon="12.199487">
        <ele>142.188041</ele>
        <time>2023-09-11T23:41:03.693Z</time>
      </trkpt>
      <trkpt lat="45.898898" lon="12.199381">
        <ele>141.803785</ele>
        <time>2023-09-11T23:41:05.383Z</time>
      </trkpt>
      <trkpt lat="45.898943" lon="12.199254">
        <ele>141.434076</ele>
        <time>2023-09-11T23:41:07.044Z</time>
      </trkpt>
      <trkpt lat="45.898945" lon="12.199110">
        <ele>141.060436</ele>
        <time>2023-09-11T23:41:08.702Z</time>
      </trkpt>
      <trkpt lat="45.898917" lon="12.199001">
        <ele>140.759019</ele>
        <time>2023-09-11T23:41:10.025Z</time>
      </trkpt>
      <trkpt lat="45.898731" lon="12.198518">
        <ele>139.326975</ele>
        <time>2023-09-11T23:41:16.415Z</time>
      </trkpt>
      <trkpt lat="45.898674" lon="12.198223">
        <ele>138.532733</ele>
        <time>2023-09-11T23:41:19.944Z</time>
      </trkpt>
      <trkpt lat="45.898703" lon="12.197893">
        <ele>137.669844</ele>
        <time>2023-09-11T23:41:23.587Z</time>
      </trkpt>
      <trkpt lat="45.898750" lon="12.197447">
        <ele>136.625237</ele>
        <time>2023-09-11T23:41:28.500Z</time>
      </trkpt>
      <trkpt lat="45.898727" lon="12.197167">
        <ele>135.972358</ele>
        <time>2023-09-11T23:41:31.558Z</time>
      </trkpt>
      <trkpt lat="45.898687" lon="12.197040">
        <ele>135.649555</ele>
        <time>2023-09-11T23:41:33.069Z</time>
      </trkpt>
      <trkpt lat="45.898421" lon="12.196513">
        <ele>134.142031</ele>
        <time>2023-09-11T23:41:40.078Z</time>
      </trkpt>
      <trkpt lat="45.898122" lon="12.196079">
        <ele>132.727877</ele>
        <time>2023-09-11T23:41:46.774Z</time>
      </trkpt>
      <trkpt lat="45.897524" lon="12.194529">
        <ele>132.499445</ele>
        <time>2023-09-11T23:42:11.410Z</time>
      </trkpt>
      <trkpt lat="45.897472" lon="12.194431">
        <ele>132.575434</ele>
        <time>2023-09-11T23:42:14.111Z</time>
      </trkpt>
      <trkpt lat="45.897064" lon="12.193696">
        <ele>133.155163</ele>
        <time>2023-09-11T23:42:34.867Z</time>
      </trkpt>
      <trkpt lat="45.897294" lon="12.192986">
        <ele>134.747487</ele>
        <time>2023-09-11T23:42:55.497Z</time>
      </trkpt>
      <trkpt lat="45.897722" lon="12.191231">
        <ele>139.428400</ele>
        <time>2023-09-11T23:43:45.597Z</time>
      </trkpt>
      <trkpt lat="45.897836" lon="12.190751">
        <ele>140.145087</ele>
        <time>2023-09-11T23:43:57.088Z</time>
      </trkpt>
      <trkpt lat="45.897982" lon="12.190275">
        <ele>140.658834</ele>
        <time>2023-09-11T23:44:07.628Z</time>
      </trkpt>
      <trkpt lat="45.898187" lon="12.189646">
        <ele>141.344799</ele>
        <time>2023-09-11T23:44:20.638Z</time>
      </trkpt>
      <trkpt lat="45.898257" lon="12.189378">
        <ele>141.627510</ele>
        <time>2023-09-11T23:44:25.628Z</time>
      </trkpt>
      <trkpt lat="45.897279" lon="12.188980">
        <ele>142.221394</ele>
        <time>2023-09-11T23:44:49.959Z</time>
      </trkpt>
      <trkpt lat="45.896206" lon="12.188220">
        <ele>141.956238</ele>
        <time>2023-09-11T23:45:14.826Z</time>
      </trkpt>
      <trkpt lat="45.895822" lon="12.188103">
        <ele>141.628537</ele>
        <time>2023-09-11T23:45:22.579Z</time>
      </trkpt>
      <trkpt lat="45.895230" lon="12.187308">
        <ele>140.814420</ele>
        <time>2023-09-11T23:45:38.110Z</time>
      </trkpt>
      <trkpt lat="45.895001" lon="12.183380">
        <ele>138.193258</ele>
        <time>2023-09-11T23:46:30.324Z</time>
      </trkpt>
      <trkpt lat="45.895089" lon="12.183003">
        <ele>138.172147</ele>
        <time>2023-09-11T23:46:36.179Z</time>
      </trkpt>
      <trkpt lat="45.895243" lon="12.182642">
        <ele>138.149667</ele>
        <time>2023-09-11T23:46:42.583Z</time>
      </trkpt>
      <trkpt lat="45.895631" lon="12.182015">
        <ele>138.105125</ele>
        <time>2023-09-11T23:46:55.984Z</time>
      </trkpt>
      <trkpt lat="45.896428" lon="12.182059">
        <ele>138.344670</ele>
        <time>2023-09-11T23:47:15.680Z</time>
      </trkpt>
      <trkpt lat="45.896428" lon="12.182059">
        <ele>138.344670</ele>
        <time>2023-09-11T23:47:15.693Z</time>
      </trkpt>
      <trkpt lat="45.896710" lon="12.181983">
        <ele>138.528939</ele>
        <time>2023-09-11T23:47:22.890Z</time>
      </trkpt>
      <trkpt lat="45.897131" lon="12.181713">
        <ele>138.825030</ele>
        <time>2023-09-11T23:47:34.330Z</time>
      </trkpt>
      <trkpt lat="45.897692" lon="12.181430">
        <ele>139.206883</ele>
        <time>2023-09-11T23:47:48.967Z</time>
      </trkpt>
      <trkpt lat="45.898547" lon="12.181247">
        <ele>139.862408</ele>
        <time>2023-09-11T23:48:10.745Z</time>
      </trkpt>
      <trkpt lat="45.899085" lon="12.181253">
        <ele>140.273277</ele>
        <time>2023-09-11T23:48:24.434Z</time>
      </trkpt>
      <trkpt lat="45.900282" lon="12.180995">
        <ele>141.243132</ele>
        <time>2023-09-11T23:48:55.548Z</time>
      </trkpt>
      <trkpt lat="45.900673" lon="12.180835">
        <ele>141.577438</ele>
        <time>2023-09-11T23:49:06.074Z</time>
      </trkpt>
      <trkpt lat="45.900661" lon="12.180767">
        <ele>141.617583</ele>
        <time>2023-09-11T23:49:07.268Z</time>
      </trkpt>
      <trkpt lat="45.901791" lon="12.180533">
        <ele>142.234761</ele>
        <time>2023-09-11T23:49:35.838Z</time>
      </trkpt>
      <trkpt lat="45.902553" lon="12.180319">
        <ele>142.438564</ele>
        <time>2023-09-11T23:49:53.807Z</time>
      </trkpt>
      <trkpt lat="45.903683" lon="12.180097">
        <ele>142.619912</ele>
        <time>2023-09-11T23:50:18.389Z</time>
      </trkpt>
      <trkpt lat="45.903828" lon="12.180069">
        <ele>142.633392</ele>
        <time>2023-09-11T23:50:21.718Z</time>
      </trkpt>
      <trkpt lat="45.904644" lon="12.179910">
        <ele>142.709260</ele>
        <time>2023-09-11T23:50:41.328Z</time>
      </trkpt>
      <trkpt lat="45.905020" lon="12.179674">
        <ele>142.764789</ele>
        <time>2023-09-11T23:50:51.807Z</time>
      </trkpt>
      <trkpt lat="45.905452" lon="12.179478">
        <ele>142.835810</ele>
        <time>2023-09-11T23:51:03.450Z</time>
      </trkpt>
      <trkpt lat="45.906151" lon="12.179334">
        <ele>142.946516</ele>
        <time>2023-09-11T23:51:20.618Z</time>
      </trkpt>
      <trkpt lat="45.906151" lon="12.179334">
        <ele>142.946516</ele>
        <time>2023-09-11T23:51:20.620Z</time>
      </trkpt>
      <trkpt lat="45.906318" lon="12.179265">
        <ele>142.973758</ele>
        <time>2023-09-11T23:51:24.666Z</time>
      </trkpt>
      <trkpt lat="45.906508" lon="12.179095">
        <ele>142.953131</ele>
        <time>2023-09-11T23:51:29.422Z</time>
      </trkpt>
      <trkpt lat="45.906598" lon="12.179141">
        <ele>142.803524</ele>
        <time>2023-09-11T23:51:31.394Z</time>
      </trkpt>
      <trkpt lat="45.906670" lon="12.179063">
        <ele>142.662307</ele>
        <time>2023-09-11T23:51:33.158Z</time>
      </trkpt>
      <trkpt lat="45.906678" lon="12.178976">
        <ele>142.566670</ele>
        <time>2023-09-11T23:51:34.318Z</time>
      </trkpt>
      <trkpt lat="45.906649" lon="12.178899">
        <ele>142.471251</ele>
        <time>2023-09-11T23:51:35.468Z</time>
      </trkpt>
      <trkpt lat="45.906599" lon="12.178863">
        <ele>142.383663</ele>
        <time>2023-09-11T23:51:36.524Z</time>
      </trkpt>
      <trkpt lat="45.906543" lon="12.178871">
        <ele>142.295523</ele>
        <time>2023-09-11T23:51:37.619Z</time>
      </trkpt>
      <trkpt lat="45.906510" lon="12.178726">
        <ele>142.129263</ele>
        <time>2023-09-11T23:51:39.647Z</time>
      </trkpt>
      <trkpt lat="45.906357" lon="12.178158">
        <ele>141.465487</ele>
        <time>2023-09-11T23:51:47.323Z</time>
      </trkpt>
      <trkpt lat="45.906047" lon="12.177283">
        <ele>140.395409</ele>
        <time>2023-09-11T23:51:59.218Z</time>
      </trkpt>
      <trkpt lat="45.905933" lon="12.177076">
        <ele>140.098997</ele>
        <time>2023-09-11T23:52:02.338Z</time>
      </trkpt>
      <trkpt lat="45.905612" lon="12.176509">
        <ele>139.214559</ele>
        <time>2023-09-11T23:52:11.142Z</time>
      </trkpt>
      <trkpt lat="45.905515" lon="12.176277">
        <ele>138.887068</ele>
        <time>2023-09-11T23:52:14.418Z</time>
      </trkpt>
      <trkpt lat="45.905147" lon="12.174871">
        <ele>137.069467</ele>
        <time>2023-09-11T23:52:33.550Z</time>
      </trkpt>
      <trkpt lat="45.903524" lon="12.175219">
        <ele>135.745579</ele>
        <time>2023-09-11T23:53:06.007Z</time>
      </trkpt>
      <trkpt lat="45.902044" lon="12.175519">
        <ele>135.034279</ele>
        <time>2023-09-11T23:53:37.293Z</time>
      </trkpt>
      <trkpt lat="45.901858" lon="12.175555">
        <ele>134.952518</ele>
        <time>2023-09-11T23:53:41.336Z</time>
      </trkpt>
      <trkpt lat="45.901072" lon="12.175691">
        <ele>134.471249</ele>
        <time>2023-09-11T23:53:57.523Z</time>
      </trkpt>
      <trkpt lat="45.900183" lon="12.175892">
        <ele>133.839367</ele>
        <time>2023-09-11T23:54:14.869Z</time>
      </trkpt>
      <trkpt lat="45.900040" lon="12.175937">
        <ele>133.736582</ele>
        <time>2023-09-11T23:54:17.684Z</time>
      </trkpt>
      <trkpt lat="45.900020" lon="12.175795">
        <ele>133.665790</ele>
        <time>2023-09-11T23:54:19.682Z</time>
      </trkpt>
      <trkpt lat="45.900009" lon="12.175638">
        <ele>133.588687</ele>
        <time>2023-09-11T23:54:21.902Z</time>
      </trkpt>
      <trkpt lat="45.899995" lon="12.174847">
        <ele>133.735895</ele>
        <time>2023-09-11T23:54:33.681Z</time>
      </trkpt>
      <trkpt lat="45.900013" lon="12.174472">
        <ele>133.820406</ele>
        <time>2023-09-11T23:54:39.778Z</time>
      </trkpt>
      <trkpt lat="45.900035" lon="12.174242">
        <ele>133.872602</ele>
        <time>2023-09-11T23:54:43.660Z</time>
      </trkpt>
      <trkpt lat="45.900043" lon="12.174161">
        <ele>133.890995</ele>
        <time>2023-09-11T23:54:44.990Z</time>
      </trkpt>
      <trkpt lat="45.900060" lon="12.173813">
        <ele>133.969427</ele>
        <time>2023-09-11T23:54:50.699Z</time>
      </trkpt>
      <trkpt lat="45.900040" lon="12.173603">
        <ele>134.017081</ele>
        <time>2023-09-11T23:54:54.380Z</time>
      </trkpt>
      <trkpt lat="45.899936" lon="12.173319">
        <ele>134.089232</ele>
        <time>2023-09-11T23:55:00.046Z</time>
      </trkpt>
      <trkpt lat="45.899891" lon="12.173216">
        <ele>134.116575</ele>
        <time>2023-09-11T23:55:02.316Z</time>
      </trkpt>
      <trkpt lat="45.899830" lon="12.173090">
        <ele>134.161074</ele>
        <time>2023-09-11T23:55:05.143Z</time>
      </trkpt>
      <trkpt lat="45.899822" lon="12.173054">
        <ele>134.205987</ele>
        <time>2023-09-11T23:55:05.839Z</time>
      </trkpt>
      <trkpt lat="45.899760" lon="12.172992">
        <ele>134.334987</ele>
        <time>2023-09-11T23:55:07.901Z</time>
      </trkpt>
      <trkpt lat="45.899547" lon="12.172365">
        <ele>135.164209</ele>
        <time>2023-09-11T23:55:21.843Z</time>
      </trkpt>
      <trkpt lat="45.899518" lon="12.172285">
        <ele>135.271414</ele>
        <time>2023-09-11T23:55:23.695Z</time>
      </trkpt>
      <trkpt lat="45.899458" lon="12.172105">
        <ele>135.508615</ele>
        <time>2023-09-11T23:55:27.981Z</time>
      </trkpt>
      <trkpt lat="45.899396" lon="12.172038">
        <ele>135.641099</ele>
        <time>2023-09-11T23:55:30.339Z</time>
      </trkpt>
      <trkpt lat="45.898821" lon="12.170927">
        <ele>137.266613</ele>
        <time>2023-09-11T23:55:59.502Z</time>
      </trkpt>
      <trkpt lat="45.898494" lon="12.170206">
        <ele>137.980007</ele>
        <time>2023-09-11T23:56:16.297Z</time>
      </trkpt>
      <trkpt lat="45.898393" lon="12.169988">
        <ele>138.197103</ele>
        <time>2023-09-11T23:56:21.375Z</time>
      </trkpt>
      <trkpt lat="45.898359" lon="12.169927">
        <ele>138.261888</ele>
        <time>2023-09-11T23:56:22.893Z</time>
      </trkpt>
      <trkpt lat="45.897964" lon="12.169199">
        <ele>139.027111</ele>
        <time>2023-09-11T23:56:40.059Z</time>
      </trkpt>
      <trkpt lat="45.897567" lon="12.168483">
        <ele>139.364304</ele>
        <time>2023-09-11T23:56:55.730Z</time>
      </trkpt>
      <trkpt lat="45.896792" lon="12.167127">
        <ele>139.369108</ele>
        <time>2023-09-11T23:57:22.103Z</time>
      </trkpt>
      <trkpt lat="45.896712" lon="12.166933">
        <ele>139.369725</ele>
        <time>2023-09-11T23:57:25.370Z</time>
      </trkpt>
      <trkpt lat="45.896629" lon="12.166750">
        <ele>139.326912</ele>
        <time>2023-09-11T23:57:28.579Z</time>
      </trkpt>
      <trkpt lat="45.896576" lon="12.166695">
        <ele>139.294420</ele>
        <time>2023-09-11T23:57:29.886Z</time>
      </trkpt>
      <trkpt lat="45.896511" lon="12.166527">
        <ele>139.227933</ele>
        <time>2023-09-11T23:57:32.613Z</time>
      </trkpt>
      <trkpt lat="45.896305" lon="12.166242">
        <ele>139.085805</ele>
        <time>2023-09-11T23:57:38.491Z</time>
      </trkpt>
      <trkpt lat="45.896163" lon="12.166010">
        <ele>138.978938</ele>
        <time>2023-09-11T23:57:42.993Z</time>
      </trkpt>
      <trkpt lat="45.896265" lon="12.165898">
        <ele>138.915135</ele>
        <time>2023-09-11T23:57:45.563Z</time>
      </trkpt>
      <trkpt lat="45.896289" lon="12.165824">
        <ele>138.886896</ele>
        <time>2023-09-11T23:57:46.730Z</time>
      </trkpt>
      <trkpt lat="45.896279" lon="12.165635">
        <ele>138.821333</ele>
        <time>2023-09-11T23:57:49.469Z</time>
      </trkpt>
      <trkpt lat="45.896101" lon="12.165058">
        <ele>138.603022</ele>
        <time>2023-09-11T23:57:58.394Z</time>
      </trkpt>
      <trkpt lat="45.896080" lon="12.164917">
        <ele>138.553146</ele>
        <time>2023-09-11T23:58:00.400Z</time>
      </trkpt>
      <trkpt lat="45.896126" lon="12.164354">
        <ele>138.344583</ele>
        <time>2023-09-11T23:58:08.450Z</time>
      </trkpt>
      <trkpt lat="45.896126" lon="12.164191">
        <ele>138.282284</ele>
        <time>2023-09-11T23:58:10.777Z</time>
      </trkpt>
      <trkpt lat="45.896099" lon="12.164036">
        <ele>138.221216</ele>
        <time>2023-09-11T23:58:13.027Z</time>
      </trkpt>
      <trkpt lat="45.895933" lon="12.163525">
        <ele>138.005685</ele>
        <time>2023-09-11T23:58:20.906Z</time>
      </trkpt>
      <trkpt lat="45.895857" lon="12.163365">
        <ele>137.931648</ele>
        <time>2023-09-11T23:58:23.635Z</time>
      </trkpt>
      <trkpt lat="45.895781" lon="12.163237">
        <ele>137.867342</ele>
        <time>2023-09-11T23:58:25.993Z</time>
      </trkpt>
      <trkpt lat="45.895401" lon="12.162810">
        <ele>137.602421</ele>
        <time>2023-09-11T23:58:35.858Z</time>
      </trkpt>
      <trkpt lat="45.895229" lon="12.162511">
        <ele>137.475608</ele>
        <time>2023-09-11T23:58:41.551Z</time>
      </trkpt>
      <trkpt lat="45.895045" lon="12.161983">
        <ele>137.391740</ele>
        <time>2023-09-11T23:58:50.271Z</time>
      </trkpt>
      <trkpt lat="45.894827" lon="12.161102">
        <ele>137.258937</ele>
        <time>2023-09-11T23:59:04.329Z</time>
      </trkpt>
      <trkpt lat="45.894688" lon="12.160537">
        <ele>137.173822</ele>
        <time>2023-09-11T23:59:13.504Z</time>
      </trkpt>
      <trkpt lat="45.894517" lon="12.159814">
        <ele>137.090392</ele>
        <time>2023-09-11T23:59:25.011Z</time>
      </trkpt>
      <trkpt lat="45.894478" lon="12.158819">
        <ele>137.012253</ele>
        <time>2023-09-11T23:59:39.729Z</time>
      </trkpt>
      <trkpt lat="45.894413" lon="12.158466">
        <ele>136.983622</ele>
        <time>2023-09-11T23:59:45.225Z</time>
      </trkpt>
      <trkpt lat="45.894253" lon="12.157936">
        <ele>136.938325</ele>
        <time>2023-09-11T23:59:54.104Z</time>
      </trkpt>
      <trkpt lat="45.894046" lon="12.157294">
        <ele>137.005594</ele>
        <time>2023-09-12T00:00:05.282Z</time>
      </trkpt>
      <trkpt lat="45.893942" lon="12.157090">
        <ele>137.053835</ele>
        <time>2023-09-12T00:00:09.124Z</time>
      </trkpt>
      <trkpt lat="45.894278" lon="12.156553">
        <ele>137.191591</ele>
        <time>2023-09-12T00:00:28.384Z</time>
      </trkpt>
      <trkpt lat="45.895781" lon="12.155122">
        <ele>137.681631</ele>
        <time>2023-09-12T00:01:38.347Z</time>
      </trkpt>
      <trkpt lat="45.895781" lon="12.155122">
        <ele>137.681631</ele>
        <time>2023-09-12T00:01:38.353Z</time>
      </trkpt>
      <trkpt lat="45.896016" lon="12.154807">
        <ele>137.768382</ele>
        <time>2023-09-12T00:01:50.411Z</time>
      </trkpt>
      <trkpt lat="45.896041" lon="12.154738">
        <ele>137.782996</ele>
        <time>2023-09-12T00:01:52.435Z</time>
      </trkpt>
      <trkpt lat="45.895964" lon="12.154679">
        <ele>137.806551</ele>
        <time>2023-09-12T00:01:54.475Z</time>
      </trkpt>
      <trkpt lat="45.895538" lon="12.153686">
        <ele>137.961605</ele>
        <time>2023-09-12T00:02:13.404Z</time>
      </trkpt>
      <trkpt lat="45.895334" lon="12.153211">
        <ele>138.014195</ele>
        <time>2023-09-12T00:02:22.543Z</time>
      </trkpt>
      <trkpt lat="45.894937" lon="12.152494">
        <ele>138.100523</ele>
        <time>2023-09-12T00:02:37.672Z</time>
      </trkpt>
      <trkpt lat="45.895583" lon="12.151810">
        <ele>138.296555</ele>
        <time>2023-09-12T00:03:08.047Z</time>
      </trkpt>
      <trkpt lat="45.896445" lon="12.150959">
        <ele>138.618690</ele>
        <time>2023-09-12T00:03:47.916Z</time>
      </trkpt>
      <trkpt lat="45.897595" lon="12.149721">
        <ele>139.351121</ele>
        <time>2023-09-12T00:04:44.952Z</time>
      </trkpt>
      <trkpt lat="45.897999" lon="12.149216">
        <ele>139.646426</ele>
        <time>2023-09-12T00:05:06.235Z</time>
      </trkpt>
      <trkpt lat="45.898664" lon="12.148769">
        <ele>139.557429</ele>
        <time>2023-09-12T00:05:33.960Z</time>
      </trkpt>
      <trkpt lat="45.898542" lon="12.148558">
        <ele>139.520161</ele>
        <time>2023-09-12T00:05:40.736Z</time>
      </trkpt>
      <trkpt lat="45.898296" lon="12.148029">
        <ele>139.433728</ele>
        <time>2023-09-12T00:05:56.639Z</time>
      </trkpt>
      <trkpt lat="45.897816" lon="12.147815">
        <ele>139.335621</ele>
        <time>2023-09-12T00:06:14.329Z</time>
      </trkpt>
      <trkpt lat="45.897610" lon="12.147723">
        <ele>139.197544</ele>
        <time>2023-09-12T00:06:21.755Z</time>
      </trkpt>
      <trkpt lat="45.897379" lon="12.147530">
        <ele>139.025973</ele>
        <time>2023-09-12T00:06:30.785Z</time>
      </trkpt>
      <trkpt lat="45.896995" lon="12.147294">
        <ele>138.757809</ele>
        <time>2023-09-12T00:06:45.023Z</time>
      </trkpt>
      <trkpt lat="45.896532" lon="12.146950">
        <ele>138.423136</ele>
        <time>2023-09-12T00:07:03.059Z</time>
      </trkpt>
      <trkpt lat="45.896176" lon="12.146739">
        <ele>138.178347</ele>
        <time>2023-09-12T00:07:16.708Z</time>
      </trkpt>
      <trkpt lat="45.895918" lon="12.146689">
        <ele>138.099360</ele>
        <time>2023-09-12T00:07:26.066Z</time>
      </trkpt>
      <trkpt lat="45.895332" lon="12.146314">
        <ele>137.904730</ele>
        <time>2023-09-12T00:07:49.595Z</time>
      </trkpt>
      <trkpt lat="45.894971" lon="12.146167">
        <ele>137.790887</ele>
        <time>2023-09-12T00:08:03.279Z</time>
      </trkpt>
      <trkpt lat="45.894690" lon="12.146113">
        <ele>137.704872</ele>
        <time>2023-09-12T00:08:13.538Z</time>
      </trkpt>
      <trkpt lat="45.894504" lon="12.146169">
        <ele>137.647213</ele>
        <time>2023-09-12T00:08:20.254Z</time>
      </trkpt>
      <trkpt lat="45.892587" lon="12.148815">
        <ele>135.967872</ele>
        <time>2023-09-12T00:09:16.571Z</time>
      </trkpt>
      <trkpt lat="45.892283" lon="12.149143">
        <ele>135.677860</ele>
        <time>2023-09-12T00:09:24.368Z</time>
      </trkpt>
      <trkpt lat="45.889971" lon="12.146838">
        <ele>133.075766</ele>
        <time>2023-09-12T00:10:59.723Z</time>
      </trkpt>
      <trkpt lat="45.890141" lon="12.146514">
        <ele>132.790800</ele>
        <time>2023-09-12T00:11:05.437Z</time>
      </trkpt>
      <trkpt lat="45.889951" lon="12.146273">
        <ele>132.535056</ele>
        <time>2023-09-12T00:11:13.958Z</time>
      </trkpt>
      <trkpt lat="45.888786" lon="12.145397">
        <ele>131.208713</ele>
        <time>2023-09-12T00:11:58.135Z</time>
      </trkpt>
      <trkpt lat="45.888562" lon="12.145787">
        <ele>130.853928</ele>
        <time>2023-09-12T00:12:09.845Z</time>
      </trkpt>
      <trkpt lat="45.888242" lon="12.146178">
        <ele>130.430457</ele>
        <time>2023-09-12T00:12:23.980Z</time>
      </trkpt>
      <trkpt lat="45.887856" lon="12.146933">
        <ele>129.801734</ele>
        <time>2023-09-12T00:12:46.283Z</time>
      </trkpt>
      <trkpt lat="45.887627" lon="12.147236">
        <ele>129.583136</ele>
        <time>2023-09-12T00:12:57.099Z</time>
      </trkpt>
      <trkpt lat="45.886413" lon="12.148086">
        <ele>128.634871</ele>
        <time>2023-09-12T00:13:44.189Z</time>
      </trkpt>
      <trkpt lat="45.885958" lon="12.148352">
        <ele>128.123700</ele>
        <time>2023-09-12T00:14:01.071Z</time>
      </trkpt>
      <trkpt lat="45.885839" lon="12.148368">
        <ele>127.995413</ele>
        <time>2023-09-12T00:14:03.508Z</time>
      </trkpt>
      <trkpt lat="45.885644" lon="12.148187">
        <ele>127.746221</ele>
        <time>2023-09-12T00:14:11.251Z</time>
      </trkpt>
      <trkpt lat="45.885529" lon="12.148024">
        <ele>127.572818</ele>
        <time>2023-09-12T00:14:16.625Z</time>
      </trkpt>
      <trkpt lat="45.885400" lon="12.147595">
        <ele>127.223660</ele>
        <time>2023-09-12T00:14:27.336Z</time>
      </trkpt>
      <trkpt lat="45.885035" lon="12.147230">
        <ele>126.746313</ele>
        <time>2023-09-12T00:14:41.969Z</time>
      </trkpt>
      <trkpt lat="45.884585" lon="12.146383">
        <ele>126.059229</ele>
        <time>2023-09-12T00:15:06.904Z</time>
      </trkpt>
      <trkpt lat="45.884448" lon="12.146218">
        <ele>125.896249</ele>
        <time>2023-09-12T00:15:12.928Z</time>
      </trkpt>
      <trkpt lat="45.884034" lon="12.145893">
        <ele>125.466156</ele>
        <time>2023-09-12T00:15:28.928Z</time>
      </trkpt>
      <trkpt lat="45.883656" lon="12.145645">
        <ele>125.087320</ele>
        <time>2023-09-12T00:15:43.242Z</time>
      </trkpt>
      <trkpt lat="45.883566" lon="12.145586">
        <ele>125.017581</ele>
        <time>2023-09-12T00:15:46.738Z</time>
      </trkpt>
      <trkpt lat="45.884038" lon="12.143374">
        <ele>124.360720</ele>
        <time>2023-09-12T00:16:44.325Z</time>
      </trkpt>
      <trkpt lat="45.884153" lon="12.142918">
        <ele>124.260473</ele>
        <time>2023-09-12T00:16:56.300Z</time>
      </trkpt>
      <trkpt lat="45.883992" lon="12.142883">
        <ele>124.226143</ele>
        <time>2023-09-12T00:17:02.061Z</time>
      </trkpt>
      <trkpt lat="45.883491" lon="12.142640">
        <ele>124.114658</ele>
        <time>2023-09-12T00:17:21.217Z</time>
      </trkpt>
      <trkpt lat="45.882766" lon="12.142146">
        <ele>123.945481</ele>
        <time>2023-09-12T00:17:50.684Z</time>
      </trkpt>
      <trkpt lat="45.881763" lon="12.141382">
        <ele>123.824963</ele>
        <time>2023-09-12T00:18:32.624Z</time>
      </trkpt>
      <trkpt lat="45.881528" lon="12.141313">
        <ele>123.802317</ele>
        <time>2023-09-12T00:18:41.503Z</time>
      </trkpt>
      <trkpt lat="45.881208" lon="12.141356">
        <ele>123.771972</ele>
        <time>2023-09-12T00:18:53.341Z</time>
      </trkpt>
      <trkpt lat="45.879946" lon="12.140489">
        <ele>123.263286</ele>
        <time>2023-09-12T00:19:43.089Z</time>
      </trkpt>
      <trkpt lat="45.879739" lon="12.140268">
        <ele>123.156778</ele>
        <time>2023-09-12T00:19:52.179Z</time>
      </trkpt>
      <trkpt lat="45.879641" lon="12.139989">
        <ele>123.066938</ele>
        <time>2023-09-12T00:19:56.812Z</time>
      </trkpt>
      <trkpt lat="45.878994" lon="12.139396">
        <ele>122.789852</ele>
        <time>2023-09-12T00:20:13.215Z</time>
      </trkpt>
      <trkpt lat="45.878863" lon="12.139311">
        <ele>122.739634</ele>
        <time>2023-09-12T00:20:16.265Z</time>
      </trkpt>
      <trkpt lat="45.878362" lon="12.139096">
        <ele>122.556964</ele>
        <time>2023-09-12T00:20:27.446Z</time>
      </trkpt>
      <trkpt lat="45.878499" lon="12.138805">
        <ele>122.471525</ele>
        <time>2023-09-12T00:20:33.100Z</time>
      </trkpt>
      <trkpt lat="45.878888" lon="12.137961">
        <ele>122.465710</ele>
        <time>2023-09-12T00:20:49.883Z</time>
      </trkpt>
      <trkpt lat="45.879462" lon="12.136656">
        <ele>122.672284</ele>
        <time>2023-09-12T00:21:15.465Z</time>
      </trkpt>
      <trkpt lat="45.879462" lon="12.136656">
        <ele>122.672284</ele>
        <time>2023-09-12T00:21:15.470Z</time>
      </trkpt>
      <trkpt lat="45.879771" lon="12.136063">
        <ele>122.795355</ele>
        <time>2023-09-12T00:21:28.234Z</time>
      </trkpt>
      <trkpt lat="45.880031" lon="12.134908">
        <ele>123.043731</ele>
        <time>2023-09-12T00:21:49.129Z</time>
      </trkpt>
      <trkpt lat="45.880652" lon="12.135164">
        <ele>123.233620</ele>
        <time>2023-09-12T00:22:13.444Z</time>
      </trkpt>
      <trkpt lat="45.882631" lon="12.136308">
        <ele>123.915000</ele>
        <time>2023-09-12T00:23:35.106Z</time>
      </trkpt>
      <trkpt lat="45.882679" lon="12.136627">
        <ele>124.009723</ele>
        <time>2023-09-12T00:23:43.850Z</time>
      </trkpt>
      <trkpt lat="45.882739" lon="12.136721">
        <ele>124.046737</ele>
        <time>2023-09-12T00:23:47.254Z</time>
      </trkpt>
      <trkpt lat="45.883354" lon="12.137149">
        <ele>124.331650</ele>
        <time>2023-09-12T00:24:13.673Z</time>
      </trkpt>
      <trkpt lat="45.883738" lon="12.137504">
        <ele>124.522036</ele>
        <time>2023-09-12T00:24:31.505Z</time>
      </trkpt>
      <trkpt lat="45.884126" lon="12.137916">
        <ele>124.817566</ele>
        <time>2023-09-12T00:24:50.739Z</time>
      </trkpt>
      <trkpt lat="45.885031" lon="12.138496">
        <ele>125.463124</ele>
        <time>2023-09-12T00:25:29.732Z</time>
      </trkpt>
      <trkpt lat="45.885670" lon="12.138840">
        <ele>125.979212</ele>
        <time>2023-09-12T00:25:57.115Z</time>
      </trkpt>
      <trkpt lat="45.885927" lon="12.138335">
        <ele>126.375314</ele>
        <time>2023-09-12T00:26:14.806Z</time>
      </trkpt>
      <trkpt lat="45.886365" lon="12.138554">
        <ele>126.797174</ele>
        <time>2023-09-12T00:26:33.948Z</time>
      </trkpt>
      <trkpt lat="45.887553" lon="12.139385">
        <ele>128.032049</ele>
        <time>2023-09-12T00:27:27.826Z</time>
      </trkpt>
      <trkpt lat="45.887957" lon="12.139733">
        <ele>128.482734</ele>
        <time>2023-09-12T00:27:47.255Z</time>
      </trkpt>
      <trkpt lat="45.888769" lon="12.140023">
        <ele>129.289647</ele>
        <time>2023-09-12T00:28:21.325Z</time>
      </trkpt>
      <trkpt lat="45.889598" lon="12.140679">
        <ele>130.224157</ele>
        <time>2023-09-12T00:28:59.970Z</time>
      </trkpt>
      <trkpt lat="45.890608" lon="12.141300">
        <ele>131.271755</ele>
        <time>2023-09-12T00:29:45.598Z</time>
      </trkpt>
      <trkpt lat="45.890870" lon="12.141399">
        <ele>131.517102</ele>
        <time>2023-09-12T00:29:56.806Z</time>
      </trkpt>
      <trkpt lat="45.891020" lon="12.141324">
        <ele>131.660938</ele>
        <time>2023-09-12T00:30:03.294Z</time>
      </trkpt>
      <trkpt lat="45.891137" lon="12.141190">
        <ele>131.796445</ele>
        <time>2023-09-12T00:30:09.447Z</time>
      </trkpt>
      <trkpt lat="45.891937" lon="12.139274">
        <ele>133.074027</ele>
        <time>2023-09-12T00:31:11.319Z</time>
      </trkpt>
      <trkpt lat="45.892094" lon="12.139034">
        <ele>133.243702</ele>
        <time>2023-09-12T00:31:20.366Z</time>
      </trkpt>
      <trkpt lat="45.892333" lon="12.138840">
        <ele>133.446878</ele>
        <time>2023-09-12T00:31:31.403Z</time>
      </trkpt>
      <trkpt lat="45.892560" lon="12.138874">
        <ele>133.615803</ele>
        <time>2023-09-12T00:31:40.752Z</time>
      </trkpt>
      <trkpt lat="45.892623" lon="12.138884">
        <ele>133.662717</ele>
        <time>2023-09-12T00:31:43.264Z</time>
      </trkpt>
      <trkpt lat="45.893048" lon="12.139083">
        <ele>134.044392</ele>
        <time>2023-09-12T00:32:01.347Z</time>
      </trkpt>
      <trkpt lat="45.893443" lon="12.139347">
        <ele>134.461414</ele>
        <time>2023-09-12T00:32:18.931Z</time>
      </trkpt>
      <trkpt lat="45.893849" lon="12.139748">
        <ele>134.933028</ele>
        <time>2023-09-12T00:32:38.974Z</time>
      </trkpt>
      <trkpt lat="45.893929" lon="12.139724">
        <ele>135.011260</ele>
        <time>2023-09-12T00:32:41.117Z</time>
      </trkpt>
      <trkpt lat="45.894632" lon="12.139750">
        <ele>135.730196</ele>
        <time>2023-09-12T00:33:00.480Z</time>
      </trkpt>
      <trkpt lat="45.894815" lon="12.139798">
        <ele>135.965500</ele>
        <time>2023-09-12T00:33:05.797Z</time>
      </trkpt>
      <trkpt lat="45.894971" lon="12.139892">
        <ele>136.179475</ele>
        <time>2023-09-12T00:33:10.570Z</time>
      </trkpt>
      <trkpt lat="45.895523" lon="12.140453">
        <ele>137.034715</ele>
        <time>2023-09-12T00:33:29.837Z</time>
      </trkpt>
      <trkpt lat="45.895632" lon="12.140477">
        <ele>137.174200</ele>
        <time>2023-09-12T00:33:33.083Z</time>
      </trkpt>
      <trkpt lat="45.895880" lon="12.140436">
        <ele>137.489967</ele>
        <time>2023-09-12T00:33:40.360Z</time>
      </trkpt>
      <trkpt lat="45.896139" lon="12.140444">
        <ele>137.817454</ele>
        <time>2023-09-12T00:33:47.762Z</time>
      </trkpt>
      <trkpt lat="45.897022" lon="12.141088">
        <ele>138.563113</ele>
        <time>2023-09-12T00:34:14.461Z</time>
      </trkpt>
      <trkpt lat="45.897202" lon="12.141148">
        <ele>138.702255</ele>
        <time>2023-09-12T00:34:19.265Z</time>
      </trkpt>
      <trkpt lat="45.897267" lon="12.141142">
        <ele>138.751301</ele>
        <time>2023-09-12T00:34:20.952Z</time>
      </trkpt>
      <trkpt lat="45.897344" lon="12.141064">
        <ele>138.822243</ele>
        <time>2023-09-12T00:34:23.361Z</time>
      </trkpt>
      <trkpt lat="45.897653" lon="12.139998">
        <ele>139.166052</ele>
        <time>2023-09-12T00:34:43.008Z</time>
      </trkpt>
      <trkpt lat="45.897940" lon="12.139544">
        <ele>139.159134</ele>
        <time>2023-09-12T00:34:52.798Z</time>
      </trkpt>
      <trkpt lat="45.898077" lon="12.138992">
        <ele>139.152525</ele>
        <time>2023-09-12T00:35:01.992Z</time>
      </trkpt>
      <trkpt lat="45.898550" lon="12.137345">
        <ele>138.913194</ele>
        <time>2023-09-12T00:35:29.991Z</time>
      </trkpt>
      <trkpt lat="45.898635" lon="12.137172">
        <ele>138.858335</ele>
        <time>2023-09-12T00:35:33.253Z</time>
      </trkpt>
      <trkpt lat="45.898697" lon="12.137128">
        <ele>138.832595</ele>
        <time>2023-09-12T00:35:34.791Z</time>
      </trkpt>
      <trkpt lat="45.898822" lon="12.136521">
        <ele>138.668614</ele>
        <time>2023-09-12T00:35:43.655Z</time>
      </trkpt>
      <trkpt lat="45.898872" lon="12.136137">
        <ele>138.567414</ele>
        <time>2023-09-12T00:35:49.172Z</time>
      </trkpt>
      <trkpt lat="45.898904" lon="12.135813">
        <ele>138.482641</ele>
        <time>2023-09-12T00:35:53.803Z</time>
      </trkpt>
      <trkpt lat="45.898904" lon="12.135459">
        <ele>138.504838</ele>
        <time>2023-09-12T00:35:58.936Z</time>
      </trkpt>
      <trkpt lat="45.898688" lon="12.134687">
        <ele>138.588841</ele>
        <time>2023-09-12T00:36:11.298Z</time>
      </trkpt>
      <trkpt lat="45.898680" lon="12.134332">
        <ele>138.624700</ele>
        <time>2023-09-12T00:36:16.865Z</time>
      </trkpt>
      <trkpt lat="45.898718" lon="12.134204">
        <ele>138.638750</ele>
        <time>2023-09-12T00:36:19.086Z</time>
      </trkpt>
      <trkpt lat="45.899081" lon="12.134002">
        <ele>138.695221</ele>
        <time>2023-09-12T00:36:28.493Z</time>
      </trkpt>
      <trkpt lat="45.899171" lon="12.133862">
        <ele>138.714463</ele>
        <time>2023-09-12T00:36:31.836Z</time>
      </trkpt>
      <trkpt lat="45.899245" lon="12.133637">
        <ele>138.782349</ele>
        <time>2023-09-12T00:36:36.301Z</time>
      </trkpt>
      <trkpt lat="45.899260" lon="12.132886">
        <ele>139.421225</ele>
        <time>2023-09-12T00:36:50.239Z</time>
      </trkpt>
      <trkpt lat="45.899330" lon="12.132648">
        <ele>139.640940</ele>
        <time>2023-09-12T00:36:55.164Z</time>
      </trkpt>
      <trkpt lat="45.899611" lon="12.132457">
        <ele>140.020771</ele>
        <time>2023-09-12T00:37:03.674Z</time>
      </trkpt>
      <trkpt lat="45.899731" lon="12.132296">
        <ele>140.221378</ele>
        <time>2023-09-12T00:37:08.084Z</time>
      </trkpt>
      <trkpt lat="45.899775" lon="12.132092">
        <ele>140.402988</ele>
        <time>2023-09-12T00:37:12.192Z</time>
      </trkpt>
      <trkpt lat="45.899955" lon="12.131674">
        <ele>140.820976</ele>
        <time>2023-09-12T00:37:21.716Z</time>
      </trkpt>
      <trkpt lat="45.900204" lon="12.131317">
        <ele>141.299768</ele>
        <time>2023-09-12T00:37:31.699Z</time>
      </trkpt>
      <trkpt lat="45.900380" lon="12.130955">
        <ele>141.732911</ele>
        <time>2023-09-12T00:37:40.575Z</time>
      </trkpt>
      <trkpt lat="45.900501" lon="12.130508">
        <ele>142.203357</ele>
        <time>2023-09-12T00:37:50.180Z</time>
      </trkpt>
      <trkpt lat="45.900569" lon="12.130159">
        <ele>142.558840</ele>
        <time>2023-09-12T00:37:57.326Z</time>
      </trkpt>
      <trkpt lat="45.900664" lon="12.129517">
        <ele>143.202629</ele>
        <time>2023-09-12T00:38:09.825Z</time>
      </trkpt>
      <trkpt lat="45.900776" lon="12.129217">
        <ele>143.517130</ele>
        <time>2023-09-12T00:38:16.191Z</time>
      </trkpt>
      <trkpt lat="45.900913" lon="12.129054">
        <ele>143.698087</ele>
        <time>2023-09-12T00:38:20.875Z</time>
      </trkpt>
      <trkpt lat="45.900993" lon="12.128830">
        <ele>143.876345</ele>
        <time>2023-09-12T00:38:25.461Z</time>
      </trkpt>
      <trkpt lat="45.900925" lon="12.128777">
        <ele>143.955049</ele>
        <time>2023-09-12T00:38:27.565Z</time>
      </trkpt>
      <trkpt lat="45.900838" lon="12.128260">
        <ele>144.331635</ele>
        <time>2023-09-12T00:38:37.733Z</time>
      </trkpt>
      <trkpt lat="45.900813" lon="12.127940">
        <ele>144.559619</ele>
        <time>2023-09-12T00:38:43.843Z</time>
      </trkpt>
      <trkpt lat="45.900936" lon="12.126945">
        <ele>145.275108</ele>
        <time>2023-09-12T00:39:02.843Z</time>
      </trkpt>
      <trkpt lat="45.901000" lon="12.126320">
        <ele>145.655125</ele>
        <time>2023-09-12T00:39:14.512Z</time>
      </trkpt>
      <trkpt lat="45.901002" lon="12.125975">
        <ele>145.860809</ele>
        <time>2023-09-12T00:39:20.870Z</time>
      </trkpt>
      <trkpt lat="45.900852" lon="12.124766">
        <ele>146.592939</ele>
        <time>2023-09-12T00:39:43.668Z</time>
      </trkpt>
      <trkpt lat="45.901225" lon="12.124588">
        <ele>146.847500</ele>
        <time>2023-09-12T00:39:53.783Z</time>
      </trkpt>
      <trkpt lat="45.900927" lon="12.124384">
        <ele>146.878173</ele>
        <time>2023-09-12T00:40:02.333Z</time>
      </trkpt>
      <trkpt lat="45.900877" lon="12.124214">
        <ele>146.890108</ele>
        <time>2023-09-12T00:40:05.595Z</time>
      </trkpt>
      <trkpt lat="45.900921" lon="12.123886">
        <ele>146.911710</ele>
        <time>2023-09-12T00:40:11.370Z</time>
      </trkpt>
      <trkpt lat="45.901283" lon="12.122803">
        <ele>146.989404</ele>
        <time>2023-09-12T00:40:30.309Z</time>
      </trkpt>
      <trkpt lat="45.901282" lon="12.122516">
        <ele>146.980250</ele>
        <time>2023-09-12T00:40:34.421Z</time>
      </trkpt>
      <trkpt lat="45.901140" lon="12.122012">
        <ele>146.721675</ele>
        <time>2023-09-12T00:40:42.132Z</time>
      </trkpt>
      <trkpt lat="45.901062" lon="12.121863">
        <ele>146.633008</ele>
        <time>2023-09-12T00:40:44.740Z</time>
      </trkpt>
      <trkpt lat="45.900938" lon="12.121628">
        <ele>146.492761</ele>
        <time>2023-09-12T00:40:48.741Z</time>
      </trkpt>
      <trkpt lat="45.900891" lon="12.121451">
        <ele>146.402669</ele>
        <time>2023-09-12T00:40:51.437Z</time>
      </trkpt>
      <trkpt lat="45.900880" lon="12.121316">
        <ele>146.338031</ele>
        <time>2023-09-12T00:40:53.384Z</time>
      </trkpt>
      <trkpt lat="45.900939" lon="12.120195">
        <ele>145.803415</ele>
        <time>2023-09-12T00:41:10.455Z</time>
      </trkpt>
      <trkpt lat="45.900900" lon="12.119996">
        <ele>145.697741</ele>
        <time>2023-09-12T00:41:13.518Z</time>
      </trkpt>
      <trkpt lat="45.900719" lon="12.119586">
        <ele>145.442716</ele>
        <time>2023-09-12T00:41:20.739Z</time>
      </trkpt>
      <trkpt lat="45.900689" lon="12.119487">
        <ele>145.386001</ele>
        <time>2023-09-12T00:41:22.399Z</time>
      </trkpt>
      <trkpt lat="45.900535" lon="12.118313">
        <ele>144.758509</ele>
        <time>2023-09-12T00:41:39.642Z</time>
      </trkpt>
      <trkpt lat="45.900526" lon="12.118258">
        <ele>144.728833</ele>
        <time>2023-09-12T00:41:40.451Z</time>
      </trkpt>
      <trkpt lat="45.900305" lon="12.118287">
        <ele>144.561337</ele>
        <time>2023-09-12T00:41:47.920Z</time>
      </trkpt>
      <trkpt lat="45.899772" lon="12.118153">
        <ele>143.729068</ele>
        <time>2023-09-12T00:42:06.208Z</time>
      </trkpt>
      <trkpt lat="45.899543" lon="12.118041">
        <ele>143.254502</ele>
        <time>2023-09-12T00:42:14.149Z</time>
      </trkpt>
      <trkpt lat="45.899301" lon="12.117773">
        <ele>142.655107</ele>
        <time>2023-09-12T00:42:23.773Z</time>
      </trkpt>
      <trkpt lat="45.899186" lon="12.117507">
        <ele>142.227571</ele>
        <time>2023-09-12T00:42:30.419Z</time>
      </trkpt>
      <trkpt lat="45.899095" lon="12.117414">
        <ele>142.008498</ele>
        <time>2023-09-12T00:42:33.796Z</time>
      </trkpt>
      <trkpt lat="45.897487" lon="12.116883">
        <ele>138.520259</ele>
        <time>2023-09-12T00:43:24.212Z</time>
      </trkpt>
      <trkpt lat="45.897148" lon="12.116870">
        <ele>137.775985</ele>
        <time>2023-09-12T00:43:34.967Z</time>
      </trkpt>
      <trkpt lat="45.896991" lon="12.116976">
        <ele>137.395273</ele>
        <time>2023-09-12T00:43:40.519Z</time>
      </trkpt>
      <trkpt lat="45.896856" lon="12.117164">
        <ele>136.982668</ele>
        <time>2023-09-12T00:43:46.525Z</time>
      </trkpt>
      <trkpt lat="45.896856" lon="12.117164">
        <ele>136.982668</ele>
        <time>2023-09-12T00:43:46.539Z</time>
      </trkpt>
      <trkpt lat="45.896070" lon="12.117407">
        <ele>135.888532</ele>
        <time>2023-09-12T00:44:12.744Z</time>
      </trkpt>
      <trkpt lat="45.895883" lon="12.117595">
        <ele>135.582445</ele>
        <time>2023-09-12T00:44:20.278Z</time>
      </trkpt>
      <trkpt lat="45.895665" lon="12.117582">
        <ele>135.289824</ele>
        <time>2023-09-12T00:44:27.527Z</time>
      </trkpt>
      <trkpt lat="45.895326" lon="12.117351">
        <ele>134.786640</ele>
        <time>2023-09-12T00:44:40.103Z</time>
      </trkpt>
      <trkpt lat="45.894922" lon="12.117482">
        <ele>134.364405</ele>
        <time>2023-09-12T00:44:53.939Z</time>
      </trkpt>
      <trkpt lat="45.894648" lon="12.117432">
        <ele>134.159332</ele>
        <time>2023-09-12T00:45:03.109Z</time>
      </trkpt>
      <trkpt lat="45.894600" lon="12.117170">
        <ele>134.019332</ele>
        <time>2023-09-12T00:45:09.375Z</time>
      </trkpt>
      <trkpt lat="45.894483" lon="12.117033">
        <ele>133.907268</ele>
        <time>2023-09-12T00:45:14.420Z</time>
      </trkpt>
      <trkpt lat="45.894252" lon="12.117051">
        <ele>133.735504</ele>
        <time>2023-09-12T00:45:22.237Z</time>
      </trkpt>
      <trkpt lat="45.893284" lon="12.116691">
        <ele>133.319858</ele>
        <time>2023-09-12T00:45:58.234Z</time>
      </trkpt>
      <trkpt lat="45.893324" lon="12.117104">
        <ele>133.454556</ele>
        <time>2023-09-12T00:46:05.556Z</time>
      </trkpt>
      <trkpt lat="45.893436" lon="12.117716">
        <ele>133.658973</ele>
        <time>2023-09-12T00:46:17.179Z</time>
      </trkpt>
      <trkpt lat="45.893570" lon="12.118048">
        <ele>133.782949</ele>
        <time>2023-09-12T00:46:24.289Z</time>
      </trkpt>
      <trkpt lat="45.893876" lon="12.118368">
        <ele>133.958608</ele>
        <time>2023-09-12T00:46:34.138Z</time>
      </trkpt>
      <trkpt lat="45.894302" lon="12.118756">
        <ele>133.871650</ele>
        <time>2023-09-12T00:46:46.885Z</time>
      </trkpt>
      <trkpt lat="45.894414" lon="12.119039">
        <ele>133.770601</ele>
        <time>2023-09-12T00:46:52.318Z</time>
      </trkpt>
      <trkpt lat="45.894469" lon="12.119380">
        <ele>133.661954</ele>
        <time>2023-09-12T00:46:57.959Z</time>
      </trkpt>
      <trkpt lat="45.894493" lon="12.120188">
        <ele>133.410931</ele>
        <time>2023-09-12T00:47:09.877Z</time>
      </trkpt>
      <trkpt lat="45.892768" lon="12.119578">
        <ele>131.021550</ele>
        <time>2023-09-12T00:48:06.949Z</time>
      </trkpt>
      <trkpt lat="45.891965" lon="12.119442">
        <ele>129.804142</ele>
        <time>2023-09-12T00:48:33.056Z</time>
      </trkpt>
      <trkpt lat="45.891292" lon="12.119206">
        <ele>128.851042</ele>
        <time>2023-09-12T00:48:55.746Z</time>
      </trkpt>
      <trkpt lat="45.890023" lon="12.119164">
        <ele>127.320175</ele>
        <time>2023-09-12T00:49:37.860Z</time>
      </trkpt>
      <trkpt lat="45.888918" lon="12.119056">
        <ele>126.240826</ele>
        <time>2023-09-12T00:50:15.366Z</time>
      </trkpt>
      <trkpt lat="45.886662" lon="12.118627">
        <ele>124.833356</ele>
        <time>2023-09-12T00:51:35.530Z</time>
      </trkpt>
      <trkpt lat="45.886152" lon="12.118312">
        <ele>124.428213</ele>
        <time>2023-09-12T00:51:54.857Z</time>
      </trkpt>
      <trkpt lat="45.885826" lon="12.118069">
        <ele>124.160176</ele>
        <time>2023-09-12T00:52:07.379Z</time>
      </trkpt>
      <trkpt lat="45.883198" lon="12.118761">
        <ele>122.288394</ele>
        <time>2023-09-12T00:53:37.947Z</time>
      </trkpt>
      <trkpt lat="45.881125" lon="12.119292">
        <ele>123.113668</ele>
        <time>2023-09-12T00:55:02.183Z</time>
      </trkpt>
      <trkpt lat="45.880837" lon="12.119416">
        <ele>123.253698</ele>
        <time>2023-09-12T00:55:14.245Z</time>
      </trkpt>
      <trkpt lat="45.880354" lon="12.119560">
        <ele>123.483448</ele>
        <time>2023-09-12T00:55:33.595Z</time>
      </trkpt>
      <trkpt lat="45.879376" lon="12.119114">
        <ele>123.289910</ele>
        <time>2023-09-12T00:56:11.462Z</time>
      </trkpt>
      <trkpt lat="45.879026" lon="12.119040">
        <ele>123.088308</ele>
        <time>2023-09-12T00:56:23.909Z</time>
      </trkpt>
      <trkpt lat="45.878418" lon="12.118677">
        <ele>122.713092</ele>
        <time>2023-09-12T00:56:46.378Z</time>
      </trkpt>
      <trkpt lat="45.877479" lon="12.118854">
        <ele>121.465186</ele>
        <time>2023-09-12T00:57:17.356Z</time>
      </trkpt>
      <trkpt lat="45.877126" lon="12.118780">
        <ele>120.949579</ele>
        <time>2023-09-12T00:57:28.828Z</time>
      </trkpt>
      <trkpt lat="45.876904" lon="12.118820">
        <ele>120.626202</ele>
        <time>2023-09-12T00:57:36.011Z</time>
      </trkpt>
      <trkpt lat="45.876717" lon="12.119076">
        <ele>120.252830</ele>
        <time>2023-09-12T00:57:44.348Z</time>
      </trkpt>
      <trkpt lat="45.876557" lon="12.119430">
        <ele>119.917738</ele>
        <time>2023-09-12T00:57:53.936Z</time>
      </trkpt>
      <trkpt lat="45.876547" lon="12.119532">
        <ele>119.859034</ele>
        <time>2023-09-12T00:57:56.302Z</time>
      </trkpt>
      <trkpt lat="45.876446" lon="12.119732">
        <ele>119.718223</ele>
        <time>2023-09-12T00:58:01.969Z</time>
      </trkpt>
      <trkpt lat="45.876129" lon="12.120207">
        <ele>119.343230</ele>
        <time>2023-09-12T00:58:17.331Z</time>
      </trkpt>
      <trkpt lat="45.876038" lon="12.120342">
        <ele>119.236139</ele>
        <time>2023-09-12T00:58:21.774Z</time>
      </trkpt>
      <trkpt lat="45.875943" lon="12.120438">
        <ele>119.141055</ele>
        <time>2023-09-12T00:58:25.779Z</time>
      </trkpt>
      <trkpt lat="45.874593" lon="12.121035">
        <ele>118.646615</ele>
        <time>2023-09-12T00:59:17.015Z</time>
      </trkpt>
      <trkpt lat="45.873298" lon="12.121676">
        <ele>118.799789</ele>
        <time>2023-09-12T01:00:09.482Z</time>
      </trkpt>
      <trkpt lat="45.873230" lon="12.119899">
        <ele>118.901666</ele>
        <time>2023-09-12T01:00:56.357Z</time>
      </trkpt>
      <trkpt lat="45.873279" lon="12.119684">
        <ele>118.914616</ele>
        <time>2023-09-12T01:01:02.110Z</time>
      </trkpt>
      <trkpt lat="45.873681" lon="12.118818">
        <ele>118.652127</ele>
        <time>2023-09-12T01:01:27.749Z</time>
      </trkpt>
      <trkpt lat="45.873773" lon="12.118163">
        <ele>118.440402</ele>
        <time>2023-09-12T01:01:44.087Z</time>
      </trkpt>
      <trkpt lat="45.873878" lon="12.117998">
        <ele>118.369572</ele>
        <time>2023-09-12T01:01:49.504Z</time>
      </trkpt>
      <trkpt lat="45.874445" lon="12.117273">
        <ele>118.055229</ele>
        <time>2023-09-12T01:02:16.175Z</time>
      </trkpt>
      <trkpt lat="45.875197" lon="12.116152">
        <ele>117.748704</ele>
        <time>2023-09-12T01:02:54.519Z</time>
      </trkpt>
      <trkpt lat="45.875728" lon="12.114716">
        <ele>118.027859</ele>
        <time>2023-09-12T01:03:37.100Z</time>
      </trkpt>
      <trkpt lat="45.875774" lon="12.114387">
        <ele>118.195947</ele>
        <time>2023-09-12T01:03:46.680Z</time>
      </trkpt>
      <trkpt lat="45.875824" lon="12.114292">
        <ele>118.255600</ele>
        <time>2023-09-12T01:03:50.216Z</time>
      </trkpt>
      <trkpt lat="45.875911" lon="12.114164">
        <ele>118.345203</ele>
        <time>2023-09-12T01:03:55.193Z</time>
      </trkpt>
      <trkpt lat="45.876229" lon="12.113950">
        <ele>118.597859</ele>
        <time>2023-09-12T01:04:09.684Z</time>
      </trkpt>
      <trkpt lat="45.876250" lon="12.113678">
        <ele>118.734939</ele>
        <time>2023-09-12T01:04:17.622Z</time>
      </trkpt>
      <trkpt lat="45.876238" lon="12.113060">
        <ele>119.168546</ele>
        <time>2023-09-12T01:04:35.459Z</time>
      </trkpt>
      <trkpt lat="45.876279" lon="12.112780">
        <ele>119.428031</ele>
        <time>2023-09-12T01:04:43.634Z</time>
      </trkpt>
      <trkpt lat="45.876382" lon="12.112590">
        <ele>119.646416</ele>
        <time>2023-09-12T01:04:50.724Z</time>
      </trkpt>
      <trkpt lat="45.876594" lon="12.112425">
        <ele>119.960506</ele>
        <time>2023-09-12T01:05:00.858Z</time>
      </trkpt>
      <trkpt lat="45.876744" lon="12.112203">
        <ele>120.241062</ele>
        <time>2023-09-12T01:05:10.016Z</time>
      </trkpt>
      <trkpt lat="45.876812" lon="12.111823">
        <ele>120.596880</ele>
        <time>2023-09-12T01:05:22.262Z</time>
      </trkpt>
      <trkpt lat="45.876801" lon="12.111007">
        <ele>121.306167</ele>
        <time>2023-09-12T01:05:46.436Z</time>
      </trkpt>
      <trkpt lat="45.876881" lon="12.110744">
        <ele>121.487973</ele>
        <time>2023-09-12T01:05:54.592Z</time>
      </trkpt>
      <trkpt lat="45.877048" lon="12.110571">
        <ele>121.675317</ele>
        <time>2023-09-12T01:06:02.886Z</time>
      </trkpt>
      <trkpt lat="45.877432" lon="12.110274">
        <ele>122.072139</ele>
        <time>2023-09-12T01:06:20.498Z</time>
      </trkpt>
      <trkpt lat="45.877558" lon="12.109936">
        <ele>122.315006</ele>
        <time>2023-09-12T01:06:31.356Z</time>
      </trkpt>
      <trkpt lat="45.877857" lon="12.108370">
        <ele>123.138037</ele>
        <time>2023-09-12T01:07:16.923Z</time>
      </trkpt>
      <trkpt lat="45.878803" lon="12.106590">
        <ele>123.934505</ele>
        <time>2023-09-12T01:08:17.222Z</time>
      </trkpt>
      <trkpt lat="45.879043" lon="12.105610">
        <ele>124.293828</ele>
        <time>2023-09-12T01:08:45.007Z</time>
      </trkpt>
      <trkpt lat="45.879184" lon="12.105097">
        <ele>124.484591</ele>
        <time>2023-09-12T01:08:59.948Z</time>
      </trkpt>
      <trkpt lat="45.879301" lon="12.104512">
        <ele>124.700920</ele>
        <time>2023-09-12T01:09:16.776Z</time>
      </trkpt>
      <trkpt lat="45.879577" lon="12.103817">
        <ele>125.249654</ele>
        <time>2023-09-12T01:09:39.303Z</time>
      </trkpt>
      <trkpt lat="45.879646" lon="12.103583">
        <ele>125.423935</ele>
        <time>2023-09-12T01:09:46.511Z</time>
      </trkpt>
      <trkpt lat="45.879715" lon="12.103211">
        <ele>125.687955</ele>
        <time>2023-09-12T01:09:57.501Z</time>
      </trkpt>
      <trkpt lat="45.879986" lon="12.102685">
        <ele>126.136730</ele>
        <time>2023-09-12T01:10:16.220Z</time>
      </trkpt>
      <trkpt lat="45.880203" lon="12.102104">
        <ele>126.634409</ele>
        <time>2023-09-12T01:10:35.447Z</time>
      </trkpt>
      <trkpt lat="45.880206" lon="12.101972">
        <ele>126.757228</ele>
        <time>2023-09-12T01:10:39.341Z</time>
      </trkpt>
      <trkpt lat="45.880072" lon="12.101321">
        <ele>127.388532</ele>
        <time>2023-09-12T01:10:59.614Z</time>
      </trkpt>
      <trkpt lat="45.880057" lon="12.101163">
        <ele>127.536824</ele>
        <time>2023-09-12T01:11:04.455Z</time>
      </trkpt>
      <trkpt lat="45.880077" lon="12.101035">
        <ele>127.658819</ele>
        <time>2023-09-12T01:11:08.357Z</time>
      </trkpt>
      <trkpt lat="45.880134" lon="12.100859">
        <ele>127.839335</ele>
        <time>2023-09-12T01:11:14.162Z</time>
      </trkpt>
      <trkpt lat="45.880750" lon="12.099430">
        <ele>129.270134</ele>
        <time>2023-09-12T01:12:03.603Z</time>
      </trkpt>
      <trkpt lat="45.881186" lon="12.098158">
        <ele>130.264940</ele>
        <time>2023-09-12T01:12:44.174Z</time>
      </trkpt>
      <trkpt lat="45.881250" lon="12.097890">
        <ele>130.463735</ele>
        <time>2023-09-12T01:12:52.132Z</time>
      </trkpt>
      <trkpt lat="45.881260" lon="12.097756">
        <ele>130.558293</ele>
        <time>2023-09-12T01:12:55.889Z</time>
      </trkpt>
      <trkpt lat="45.881223" lon="12.097242">
        <ele>130.865348</ele>
        <time>2023-09-12T01:13:10.203Z</time>
      </trkpt>
      <trkpt lat="45.881247" lon="12.097170">
        <ele>130.908631</ele>
        <time>2023-09-12T01:13:12.402Z</time>
      </trkpt>
      <trkpt lat="45.881247" lon="12.097169">
        <ele>130.909173</ele>
        <time>2023-09-12T01:13:12.420Z</time>
      </trkpt>
      <trkpt lat="45.881534" lon="12.096796">
        <ele>131.210618</ele>
        <time>2023-09-12T01:13:27.765Z</time>
      </trkpt>
      <trkpt lat="45.881596" lon="12.096682">
        <ele>131.289056</ele>
        <time>2023-09-12T01:13:31.770Z</time>
      </trkpt>
      <trkpt lat="45.881719" lon="12.096317">
        <ele>131.508927</ele>
        <time>2023-09-12T01:13:43.061Z</time>
      </trkpt>
      <trkpt lat="45.881994" lon="12.096060">
        <ele>131.764453</ele>
        <time>2023-09-12T01:13:56.211Z</time>
      </trkpt>
      <trkpt lat="45.880420" lon="12.092567">
        <ele>134.314043</ele>
        <time>2023-09-12T01:15:54.382Z</time>
      </trkpt>
      <trkpt lat="45.880110" lon="12.091190">
        <ele>135.131029</ele>
        <time>2023-09-12T01:16:35.161Z</time>
      </trkpt>
      <trkpt lat="45.879796" lon="12.091307">
        <ele>135.275210</ele>
        <time>2023-09-12T01:16:43.194Z</time>
      </trkpt>
      <trkpt lat="45.879614" lon="12.091400">
        <ele>135.331722</ele>
        <time>2023-09-12T01:16:47.876Z</time>
      </trkpt>
      <trkpt lat="45.879433" lon="12.091537">
        <ele>135.391575</ele>
        <time>2023-09-12T01:16:52.762Z</time>
      </trkpt>
      <trkpt lat="45.879143" lon="12.091853">
        <ele>135.498062</ele>
        <time>2023-09-12T01:17:01.234Z</time>
      </trkpt>
      <trkpt lat="45.879001" lon="12.092095">
        <ele>135.562520</ele>
        <time>2023-09-12T01:17:06.227Z</time>
      </trkpt>
      <trkpt lat="45.878781" lon="12.092325">
        <ele>135.642123</ele>
        <time>2023-09-12T01:17:12.302Z</time>
      </trkpt>
      <trkpt lat="45.877815" lon="12.093141">
        <ele>135.337023</ele>
        <time>2023-09-12T01:17:37.513Z</time>
      </trkpt>
      <trkpt lat="45.877647" lon="12.093200">
        <ele>135.251726</ele>
        <time>2023-09-12T01:17:41.010Z</time>
      </trkpt>
      <trkpt lat="45.877496" lon="12.093136">
        <ele>135.174079</ele>
        <time>2023-09-12T01:17:44.140Z</time>
      </trkpt>
      <trkpt lat="45.877414" lon="12.092979">
        <ele>135.106688</ele>
        <time>2023-09-12T01:17:46.789Z</time>
      </trkpt>
      <trkpt lat="45.877389" lon="12.092694">
        <ele>135.008057</ele>
        <time>2023-09-12T01:17:50.641Z</time>
      </trkpt>
      <trkpt lat="45.877389" lon="12.091694">
        <ele>134.328193</ele>
        <time>2023-09-12T01:18:03.755Z</time>
      </trkpt>
      <trkpt lat="45.877430" lon="12.091088">
        <ele>133.733737</ele>
        <time>2023-09-12T01:18:11.684Z</time>
      </trkpt>
      <trkpt lat="45.877469" lon="12.090825">
        <ele>133.471197</ele>
        <time>2023-09-12T01:18:15.202Z</time>
      </trkpt>
      <trkpt lat="45.877744" lon="12.089813">
        <ele>132.410535</ele>
        <time>2023-09-12T01:18:28.922Z</time>
      </trkpt>
      <trkpt lat="45.877724" lon="12.089542">
        <ele>132.167077</ele>
        <time>2023-09-12T01:18:32.372Z</time>
      </trkpt>
      <trkpt lat="45.877454" lon="12.088638">
        <ele>131.327104</ele>
        <time>2023-09-12T01:18:44.997Z</time>
      </trkpt>
      <trkpt lat="45.877224" lon="12.088043">
        <ele>130.745961</ele>
        <time>2023-09-12T01:18:53.936Z</time>
      </trkpt>
      <trkpt lat="45.877117" lon="12.087842">
        <ele>130.529897</ele>
        <time>2023-09-12T01:18:57.358Z</time>
      </trkpt>
      <trkpt lat="45.876799" lon="12.087416">
        <ele>130.076037</ele>
        <time>2023-09-12T01:19:05.903Z</time>
      </trkpt>
      <trkpt lat="45.876571" lon="12.087043">
        <ele>129.928027</ele>
        <time>2023-09-12T01:19:12.786Z</time>
      </trkpt>
      <trkpt lat="45.876416" lon="12.086554">
        <ele>129.767812</ele>
        <time>2023-09-12T01:19:20.367Z</time>
      </trkpt>
      <trkpt lat="45.875916" lon="12.084755">
        <ele>129.273392</ele>
        <time>2023-09-12T01:19:49.458Z</time>
      </trkpt>
      <trkpt lat="45.875506" lon="12.083657">
        <ele>129.097325</ele>
        <time>2023-09-12T01:20:08.033Z</time>
      </trkpt>
      <trkpt lat="45.875437" lon="12.083527">
        <ele>129.074224</ele>
        <time>2023-09-12T01:20:10.453Z</time>
      </trkpt>
      <trkpt lat="45.874938" lon="12.082918">
        <ele>128.938164</ele>
        <time>2023-09-12T01:20:24.796Z</time>
      </trkpt>
      <trkpt lat="45.874938" lon="12.082917">
        <ele>128.938012</ele>
        <time>2023-09-12T01:20:24.810Z</time>
      </trkpt>
      <trkpt lat="45.874718" lon="12.082669">
        <ele>128.876979</ele>
        <time>2023-09-12T01:20:30.827Z</time>
      </trkpt>
      <trkpt lat="45.874482" lon="12.082456">
        <ele>128.816151</ele>
        <time>2023-09-12T01:20:36.661Z</time>
      </trkpt>
      <trkpt lat="45.874492" lon="12.082297">
        <ele>128.791894</ele>
        <time>2023-09-12T01:20:39.144Z</time>
      </trkpt>
      <trkpt lat="45.874418" lon="12.082067">
        <ele>128.753396</ele>
        <time>2023-09-12T01:20:42.953Z</time>
      </trkpt>
      <trkpt lat="45.874414" lon="12.081985">
        <ele>128.740906</ele>
        <time>2023-09-12T01:20:44.142Z</time>
      </trkpt>
      <trkpt lat="45.874463" lon="12.081866">
        <ele>128.719899</ele>
        <time>2023-09-12T01:20:46.242Z</time>
      </trkpt>
      <trkpt lat="45.874601" lon="12.081729">
        <ele>128.683289</ele>
        <time>2023-09-12T01:20:49.923Z</time>
      </trkpt>
      <trkpt lat="45.874709" lon="12.081621">
        <ele>128.654570</ele>
        <time>2023-09-12T01:20:52.747Z</time>
      </trkpt>
      <trkpt lat="45.874775" lon="12.081438">
        <ele>128.623255</ele>
        <time>2023-09-12T01:20:55.974Z</time>
      </trkpt>
      <trkpt lat="45.874764" lon="12.081324">
        <ele>128.605768</ele>
        <time>2023-09-12T01:20:57.753Z</time>
      </trkpt>
      <trkpt lat="45.874568" lon="12.080755">
        <ele>128.727806</ele>
        <time>2023-09-12T01:21:08.005Z</time>
      </trkpt>
      <trkpt lat="45.874043" lon="12.079388">
        <ele>129.127206</ele>
        <time>2023-09-12T01:21:35.461Z</time>
      </trkpt>
      <trkpt lat="45.873909" lon="12.079102">
        <ele>129.215399</ele>
        <time>2023-09-12T01:21:41.559Z</time>
      </trkpt>
      <trkpt lat="45.874488" lon="12.077922">
        <ele>129.662119</ele>
        <time>2023-09-12T01:22:07.027Z</time>
      </trkpt>
      <trkpt lat="45.874690" lon="12.077576">
        <ele>129.804483</ele>
        <time>2023-09-12T01:22:14.980Z</time>
      </trkpt>
      <trkpt lat="45.874979" lon="12.077081">
        <ele>130.008156</ele>
        <time>2023-09-12T01:22:26.386Z</time>
      </trkpt>
      <trkpt lat="45.875152" lon="12.077181">
        <ele>130.073093</ele>
        <time>2023-09-12T01:22:30.832Z</time>
      </trkpt>
      <trkpt lat="45.875419" lon="12.077432">
        <ele>130.111094</ele>
        <time>2023-09-12T01:22:38.346Z</time>
      </trkpt>
      <trkpt lat="45.875504" lon="12.077426">
        <ele>130.121228</ele>
        <time>2023-09-12T01:22:40.353Z</time>
      </trkpt>
      <trkpt lat="45.876212" lon="12.076944">
        <ele>130.214533</ele>
        <time>2023-09-12T01:22:58.025Z</time>
      </trkpt>
      <trkpt lat="45.877004" lon="12.076403">
        <ele>130.463281</ele>
        <time>2023-09-12T01:23:20.658Z</time>
      </trkpt>
      <trkpt lat="45.877163" lon="12.076170">
        <ele>130.591339</ele>
        <time>2023-09-12T01:23:26.825Z</time>
      </trkpt>
      <trkpt lat="45.877301" lon="12.075812">
        <ele>130.751954</ele>
        <time>2023-09-12T01:23:34.537Z</time>
      </trkpt>
      <trkpt lat="45.877673" lon="12.075381">
        <ele>131.021400</ele>
        <time>2023-09-12T01:23:47.481Z</time>
      </trkpt>
      <trkpt lat="45.877872" lon="12.075094">
        <ele>131.180383</ele>
        <time>2023-09-12T01:23:55.227Z</time>
      </trkpt>
      <trkpt lat="45.878359" lon="12.074702">
        <ele>131.495693</ele>
        <time>2023-09-12T01:24:10.854Z</time>
      </trkpt>
      <trkpt lat="45.878390" lon="12.074094">
        <ele>131.735660</ele>
        <time>2023-09-12T01:24:22.700Z</time>
      </trkpt>
      <trkpt lat="45.878488" lon="12.073913">
        <ele>131.825917</ele>
        <time>2023-09-12T01:24:27.046Z</time>
      </trkpt>
      <trkpt lat="45.878667" lon="12.073797">
        <ele>131.936948</ele>
        <time>2023-09-12T01:24:32.283Z</time>
      </trkpt>
      <trkpt lat="45.878971" lon="12.073657">
        <ele>132.117450</ele>
        <time>2023-09-12T01:24:40.591Z</time>
      </trkpt>
      <trkpt lat="45.879227" lon="12.073455">
        <ele>132.282596</ele>
        <time>2023-09-12T01:24:48.047Z</time>
      </trkpt>
      <trkpt lat="45.879384" lon="12.073400">
        <ele>132.387315</ele>
        <time>2023-09-12T01:24:52.157Z</time>
      </trkpt>
      <trkpt lat="45.880417" lon="12.073823">
        <ele>133.124054</ele>
        <time>2023-09-12T01:25:20.567Z</time>
      </trkpt>
      <trkpt lat="45.880714" lon="12.073868">
        <ele>133.328890</ele>
        <time>2023-09-12T01:25:29.040Z</time>
      </trkpt>
      <trkpt lat="45.881407" lon="12.073722">
        <ele>134.093619</ele>
        <time>2023-09-12T01:25:50.209Z</time>
      </trkpt>
      <trkpt lat="45.881763" lon="12.073733">
        <ele>134.600567</ele>
        <time>2023-09-12T01:26:01.311Z</time>
      </trkpt>
      <trkpt lat="45.881993" lon="12.073847">
        <ele>134.946959</ele>
        <time>2023-09-12T01:26:08.924Z</time>
      </trkpt>
      <trkpt lat="45.881995" lon="12.074164">
        <ele>135.261144</ele>
        <time>2023-09-12T01:26:15.691Z</time>
      </trkpt>
      <trkpt lat="45.882088" lon="12.074551">
        <ele>135.666902</ele>
        <time>2023-09-12T01:26:24.394Z</time>
      </trkpt>
      <trkpt lat="45.882108" lon="12.074900">
        <ele>136.013958</ele>
        <time>2023-09-12T01:26:31.689Z</time>
      </trkpt>
      <trkpt lat="45.882153" lon="12.075170">
        <ele>136.247578</ele>
        <time>2023-09-12T01:26:37.420Z</time>
      </trkpt>
      <trkpt lat="45.882313" lon="12.075514">
        <ele>136.564770</ele>
        <time>2023-09-12T01:26:46.018Z</time>
      </trkpt>
      <trkpt lat="45.882491" lon="12.075665">
        <ele>136.792440</ele>
        <time>2023-09-12T01:26:52.146Z</time>
      </trkpt>
      <trkpt lat="45.882776" lon="12.075712">
        <ele>137.108386</ele>
        <time>2023-09-12T01:27:00.516Z</time>
      </trkpt>
      <trkpt lat="45.883246" lon="12.075719">
        <ele>137.626046</ele>
        <time>2023-09-12T01:27:14.123Z</time>
      </trkpt>
      <trkpt lat="45.883438" lon="12.075677">
        <ele>137.839942</ele>
        <time>2023-09-12T01:27:19.627Z</time>
      </trkpt>
      <trkpt lat="45.883642" lon="12.075528">
        <ele>138.091143</ele>
        <time>2023-09-12T01:27:26.014Z</time>
      </trkpt>
      <trkpt lat="45.884600" lon="12.074291">
        <ele>139.287118</ele>
        <time>2023-09-12T01:28:02.655Z</time>
      </trkpt>
      <trkpt lat="45.885477" lon="12.073865">
        <ele>140.188738</ele>
        <time>2023-09-12T01:28:28.943Z</time>
      </trkpt>
      <trkpt lat="45.886001" lon="12.073525">
        <ele>140.780143</ele>
        <time>2023-09-12T01:28:45.638Z</time>
      </trkpt>
      <trkpt lat="45.886198" lon="12.073309">
        <ele>141.035049</ele>
        <time>2023-09-12T01:28:52.975Z</time>
      </trkpt>
      <trkpt lat="45.886451" lon="12.073127">
        <ele>141.326084</ele>
        <time>2023-09-12T01:29:01.220Z</time>
      </trkpt>
      <trkpt lat="45.886648" lon="12.072891">
        <ele>141.589922</ele>
        <time>2023-09-12T01:29:08.549Z</time>
      </trkpt>
      <trkpt lat="45.887482" lon="12.072475">
        <ele>142.267459</ele>
        <time>2023-09-12T01:29:33.586Z</time>
      </trkpt>
      <trkpt lat="45.887681" lon="12.073043">
        <ele>142.604985</ele>
        <time>2023-09-12T01:29:45.262Z</time>
      </trkpt>
      <trkpt lat="45.887818" lon="12.073951">
        <ele>142.878712</ele>
        <time>2023-09-12T01:30:00.854Z</time>
      </trkpt>
      <trkpt lat="45.888054" lon="12.074550">
        <ele>142.575631</ele>
        <time>2023-09-12T01:30:11.041Z</time>
      </trkpt>
      <trkpt lat="45.888124" lon="12.074649">
        <ele>142.513492</ele>
        <time>2023-09-12T01:30:13.011Z</time>
      </trkpt>
      <trkpt lat="45.887636" lon="12.075276">
        <ele>142.099332</ele>
        <time>2023-09-12T01:30:25.692Z</time>
      </trkpt>
      <trkpt lat="45.886922" lon="12.076011">
        <ele>141.296446</ele>
        <time>2023-09-12T01:30:42.149Z</time>
      </trkpt>
      <trkpt lat="45.886459" lon="12.076352">
        <ele>140.693054</ele>
        <time>2023-09-12T01:30:52.800Z</time>
      </trkpt>
      <trkpt lat="45.885909" lon="12.076647">
        <ele>140.012212</ele>
        <time>2023-09-12T01:31:05.327Z</time>
      </trkpt>
      <trkpt lat="45.885857" lon="12.076731">
        <ele>139.921466</ele>
        <time>2023-09-12T01:31:07.056Z</time>
      </trkpt>
      <trkpt lat="45.885876" lon="12.077069">
        <ele>139.792812</ele>
        <time>2023-09-12T01:31:12.422Z</time>
      </trkpt>
      <trkpt lat="45.885863" lon="12.077298">
        <ele>139.859410</ele>
        <time>2023-09-12T01:31:16.148Z</time>
      </trkpt>
      <trkpt lat="45.885941" lon="12.077709">
        <ele>139.982891</ele>
        <time>2023-09-12T01:31:23.453Z</time>
      </trkpt>
      <trkpt lat="45.886052" lon="12.077906">
        <ele>140.056356</ele>
        <time>2023-09-12T01:31:28.050Z</time>
      </trkpt>
      <trkpt lat="45.886204" lon="12.078095">
        <ele>140.140066</ele>
        <time>2023-09-12T01:31:33.445Z</time>
      </trkpt>
      <trkpt lat="45.886362" lon="12.078439">
        <ele>140.259528</ele>
        <time>2023-09-12T01:31:41.516Z</time>
      </trkpt>
      <trkpt lat="45.886384" lon="12.078694">
        <ele>140.334007</ele>
        <time>2023-09-12T01:31:46.759Z</time>
      </trkpt>
      <trkpt lat="45.886286" lon="12.078938">
        <ele>140.415661</ele>
        <time>2023-09-12T01:31:52.327Z</time>
      </trkpt>
      <trkpt lat="45.886280" lon="12.079009">
        <ele>140.436392</ele>
        <time>2023-09-12T01:31:53.768Z</time>
      </trkpt>
      <trkpt lat="45.886323" lon="12.079116">
        <ele>140.472205</ele>
        <time>2023-09-12T01:31:56.285Z</time>
      </trkpt>
      <trkpt lat="45.886623" lon="12.079612">
        <ele>140.845520</ele>
        <time>2023-09-12T01:32:09.423Z</time>
      </trkpt>
      <trkpt lat="45.887076" lon="12.080306">
        <ele>141.438012</ele>
        <time>2023-09-12T01:32:28.543Z</time>
      </trkpt>
      <trkpt lat="45.886897" lon="12.080405">
        <ele>141.609615</ele>
        <time>2023-09-12T01:32:33.925Z</time>
      </trkpt>
      <trkpt lat="45.886502" lon="12.080733">
        <ele>142.017795</ele>
        <time>2023-09-12T01:32:46.742Z</time>
      </trkpt>
      <trkpt lat="45.886472" lon="12.080870">
        <ele>142.107236</ele>
        <time>2023-09-12T01:32:49.537Z</time>
      </trkpt>
      <trkpt lat="45.886461" lon="12.081099">
        <ele>142.203540</ele>
        <time>2023-09-12T01:32:53.799Z</time>
      </trkpt>
      <trkpt lat="45.886481" lon="12.081360">
        <ele>142.311605</ele>
        <time>2023-09-12T01:32:58.813Z</time>
      </trkpt>
      <trkpt lat="45.886523" lon="12.081561">
        <ele>142.397975</ele>
        <time>2023-09-12T01:33:02.648Z</time>
      </trkpt>
      <trkpt lat="45.886772" lon="12.082061">
        <ele>142.650994</ele>
        <time>2023-09-12T01:33:13.926Z</time>
      </trkpt>
      <trkpt lat="45.886968" lon="12.083201">
        <ele>143.134265</ele>
        <time>2023-09-12T01:33:36.263Z</time>
      </trkpt>
      <trkpt lat="45.887406" lon="12.084691">
        <ele>143.226079</ele>
        <time>2023-09-12T01:34:03.297Z</time>
      </trkpt>
      <trkpt lat="45.886995" lon="12.085044">
        <ele>143.248768</ele>
        <time>2023-09-12T01:34:13.325Z</time>
      </trkpt>
      <trkpt lat="45.886722" lon="12.085375">
        <ele>143.221377</ele>
        <time>2023-09-12T01:34:20.475Z</time>
      </trkpt>
      <trkpt lat="45.886574" lon="12.085555">
        <ele>143.137707</ele>
        <time>2023-09-12T01:34:24.305Z</time>
      </trkpt>
      <trkpt lat="45.886113" lon="12.085985">
        <ele>142.900547</ele>
        <time>2023-09-12T01:34:35.325Z</time>
      </trkpt>
      <trkpt lat="45.885637" lon="12.086274">
        <ele>142.677574</ele>
        <time>2023-09-12T01:34:45.890Z</time>
      </trkpt>
      <trkpt lat="45.885589" lon="12.086347">
        <ele>142.647413</ele>
        <time>2023-09-12T01:34:47.404Z</time>
      </trkpt>
      <trkpt lat="45.885379" lon="12.086908">
        <ele>142.505148</ele>
        <time>2023-09-12T01:34:57.220Z</time>
      </trkpt>
      <trkpt lat="45.885287" lon="12.087211">
        <ele>142.573015</ele>
        <time>2023-09-12T01:35:02.246Z</time>
      </trkpt>
      <trkpt lat="45.885019" lon="12.088833">
        <ele>142.915272</ele>
        <time>2023-09-12T01:35:30.748Z</time>
      </trkpt>
      <trkpt lat="45.884999" lon="12.088970">
        <ele>142.944010</ele>
        <time>2023-09-12T01:35:33.065Z</time>
      </trkpt>
      <trkpt lat="45.884976" lon="12.089131">
        <ele>142.977753</ele>
        <time>2023-09-12T01:35:35.765Z</time>
      </trkpt>
      <trkpt lat="45.885251" lon="12.089902">
        <ele>142.565049</ele>
        <time>2023-09-12T01:35:49.286Z</time>
      </trkpt>
      <trkpt lat="45.885528" lon="12.090577">
        <ele>142.046816</ele>
        <time>2023-09-12T01:36:00.051Z</time>
      </trkpt>
      <trkpt lat="45.885798" lon="12.091786">
        <ele>141.120294</ele>
        <time>2023-09-12T01:36:16.723Z</time>
      </trkpt>
      <trkpt lat="45.885776" lon="12.092679">
        <ele>140.015013</ele>
        <time>2023-09-12T01:36:28.093Z</time>
      </trkpt>
      <trkpt lat="45.885733" lon="12.093250">
        <ele>139.304597</ele>
        <time>2023-09-12T01:36:35.447Z</time>
      </trkpt>
      <trkpt lat="45.885790" lon="12.093540">
        <ele>138.931858</ele>
        <time>2023-09-12T01:36:39.528Z</time>
      </trkpt>
      <trkpt lat="45.885984" lon="12.094026">
        <ele>138.238874</ele>
        <time>2023-09-12T01:36:47.033Z</time>
      </trkpt>
      <trkpt lat="45.885918" lon="12.094200">
        <ele>138.021776</ele>
        <time>2023-09-12T01:36:49.629Z</time>
      </trkpt>
      <trkpt lat="45.885652" lon="12.094677">
        <ele>137.446978</ele>
        <time>2023-09-12T01:36:57.888Z</time>
      </trkpt>
      <trkpt lat="45.885508" lon="12.095012">
        <ele>137.076696</ele>
        <time>2023-09-12T01:37:03.119Z</time>
      </trkpt>
      <trkpt lat="45.885497" lon="12.095086">
        <ele>137.005532</ele>
        <time>2023-09-12T01:37:04.153Z</time>
      </trkpt>
      <trkpt lat="45.885472" lon="12.095244">
        <ele>136.853149</ele>
        <time>2023-09-12T01:37:06.412Z</time>
      </trkpt>
      <trkpt lat="45.885502" lon="12.095613">
        <ele>136.503761</ele>
        <time>2023-09-12T01:37:11.358Z</time>
      </trkpt>
      <trkpt lat="45.885628" lon="12.096145">
        <ele>135.975269</ele>
        <time>2023-09-12T01:37:19.029Z</time>
      </trkpt>
      <trkpt lat="45.885807" lon="12.096746">
        <ele>135.338834</ele>
        <time>2023-09-12T01:37:28.254Z</time>
      </trkpt>
      <trkpt lat="45.885837" lon="12.096909">
        <ele>135.169543</ele>
        <time>2023-09-12T01:37:30.601Z</time>
      </trkpt>
      <trkpt lat="45.885816" lon="12.097127">
        <ele>134.948566</ele>
        <time>2023-09-12T01:37:33.657Z</time>
      </trkpt>
      <trkpt lat="45.885761" lon="12.097656">
        <ele>134.411511</ele>
        <time>2023-09-12T01:37:45.837Z</time>
      </trkpt>
      <trkpt lat="45.885875" lon="12.098291">
        <ele>133.753051</ele>
        <time>2023-09-12T01:38:00.483Z</time>
      </trkpt>
      <trkpt lat="45.886011" lon="12.098546">
        <ele>133.430495</ele>
        <time>2023-09-12T01:38:07.591Z</time>
      </trkpt>
      <trkpt lat="45.885997" lon="12.098909">
        <ele>133.076995</ele>
        <time>2023-09-12T01:38:15.633Z</time>
      </trkpt>
      <trkpt lat="45.885945" lon="12.099139">
        <ele>132.970068</ele>
        <time>2023-09-12T01:38:21.100Z</time>
      </trkpt>
      <trkpt lat="45.885930" lon="12.099554">
        <ele>132.786323</ele>
        <time>2023-09-12T01:38:30.766Z</time>
      </trkpt>
      <trkpt lat="45.885721" lon="12.099918">
        <ele>132.577686</ele>
        <time>2023-09-12T01:38:42.024Z</time>
      </trkpt>
      <trkpt lat="45.885776" lon="12.100438">
        <ele>132.345121</ele>
        <time>2023-09-12T01:38:54.822Z</time>
      </trkpt>
      <trkpt lat="45.885895" lon="12.100847">
        <ele>132.149113</ele>
        <time>2023-09-12T01:39:05.682Z</time>
      </trkpt>
      <trkpt lat="45.887463" lon="12.100200">
        <ele>132.740849</ele>
        <time>2023-09-12T01:40:09.327Z</time>
      </trkpt>
      <trkpt lat="45.888931" lon="12.099595">
        <ele>133.965646</ele>
        <time>2023-09-12T01:41:12.385Z</time>
      </trkpt>
      <trkpt lat="45.889039" lon="12.099501">
        <ele>134.078418</ele>
        <time>2023-09-12T01:41:17.518Z</time>
      </trkpt>
      <trkpt lat="45.889077" lon="12.099355">
        <ele>134.175313</ele>
        <time>2023-09-12T01:41:21.836Z</time>
      </trkpt>
      <trkpt lat="45.889020" lon="12.099015">
        <ele>134.392711</ele>
        <time>2023-09-12T01:41:31.527Z</time>
      </trkpt>
      <trkpt lat="45.889000" lon="12.098571">
        <ele>134.676118</ele>
        <time>2023-09-12T01:41:43.810Z</time>
      </trkpt>
      <trkpt lat="45.889079" lon="12.097929">
        <ele>135.202390</ele>
        <time>2023-09-12T01:42:02.086Z</time>
      </trkpt>
      <trkpt lat="45.889088" lon="12.097625">
        <ele>135.448006</ele>
        <time>2023-09-12T01:42:10.744Z</time>
      </trkpt>
      <trkpt lat="45.888860" lon="12.096886">
        <ele>136.100517</ele>
        <time>2023-09-12T01:42:34.338Z</time>
      </trkpt>
      <trkpt lat="45.888862" lon="12.096750">
        <ele>136.210324</ele>
        <time>2023-09-12T01:42:38.486Z</time>
      </trkpt>
      <trkpt lat="45.888989" lon="12.096649">
        <ele>136.378667</ele>
        <time>2023-09-12T01:42:44.639Z</time>
      </trkpt>
      <trkpt lat="45.889056" lon="12.096523">
        <ele>136.506661</ele>
        <time>2023-09-12T01:42:49.409Z</time>
      </trkpt>
      <trkpt lat="45.889088" lon="12.096521">
        <ele>136.543807</ele>
        <time>2023-09-12T01:42:50.764Z</time>
      </trkpt>
      <trkpt lat="45.890038" lon="12.095535">
        <ele>137.890488</ele>
        <time>2023-09-12T01:43:41.247Z</time>
      </trkpt>
      <trkpt lat="45.890587" lon="12.096209">
        <ele>138.719041</ele>
        <time>2023-09-12T01:44:10.995Z</time>
      </trkpt>
      <trkpt lat="45.890982" lon="12.096372">
        <ele>138.801530</ele>
        <time>2023-09-12T01:44:26.672Z</time>
      </trkpt>
      <trkpt lat="45.891612" lon="12.097100">
        <ele>138.814438</ele>
        <time>2023-09-12T01:44:55.767Z</time>
      </trkpt>
      <trkpt lat="45.892064" lon="12.097846">
        <ele>138.859202</ele>
        <time>2023-09-12T01:45:20.875Z</time>
      </trkpt>
      <trkpt lat="45.892277" lon="12.098265">
        <ele>139.154613</ele>
        <time>2023-09-12T01:45:34.661Z</time>
      </trkpt>
      <trkpt lat="45.892487" lon="12.098601">
        <ele>139.411722</ele>
        <time>2023-09-12T01:45:47.120Z</time>
      </trkpt>
      <trkpt lat="45.892860" lon="12.098713">
        <ele>139.723434</ele>
        <time>2023-09-12T01:46:02.737Z</time>
      </trkpt>
      <trkpt lat="45.893165" lon="12.098543">
        <ele>139.991044</ele>
        <time>2023-09-12T01:46:16.489Z</time>
      </trkpt>
      <trkpt lat="45.893476" lon="12.098432">
        <ele>140.253178</ele>
        <time>2023-09-12T01:46:30.225Z</time>
      </trkpt>
      <trkpt lat="45.893630" lon="12.098491">
        <ele>140.351001</ele>
        <time>2023-09-12T01:46:36.951Z</time>
      </trkpt>
      <trkpt lat="45.893848" lon="12.098694">
        <ele>140.484428</ele>
        <time>2023-09-12T01:46:47.764Z</time>
      </trkpt>
      <trkpt lat="45.894224" lon="12.099016">
        <ele>140.709250</ele>
        <time>2023-09-12T01:47:05.834Z</time>
      </trkpt>
      <trkpt lat="45.894364" lon="12.099314">
        <ele>140.837774</ele>
        <time>2023-09-12T01:47:12.420Z</time>
      </trkpt>
      <trkpt lat="45.894582" lon="12.099466">
        <ele>140.962230</ele>
        <time>2023-09-12T01:47:18.550Z</time>
      </trkpt>
      <trkpt lat="45.894079" lon="12.099959">
        <ele>141.063927</ele>
        <time>2023-09-12T01:47:31.416Z</time>
      </trkpt>
      <trkpt lat="45.894255" lon="12.100652">
        <ele>140.317179</ele>
        <time>2023-09-12T01:47:41.541Z</time>
      </trkpt>
      <trkpt lat="45.894501" lon="12.101812">
        <ele>139.089652</ele>
        <time>2023-09-12T01:48:08.243Z</time>
      </trkpt>
      <trkpt lat="45.894566" lon="12.102377">
        <ele>138.504071</ele>
        <time>2023-09-12T01:48:21.040Z</time>
      </trkpt>
      <trkpt lat="45.894522" lon="12.102553">
        <ele>138.302891</ele>
        <time>2023-09-12T01:48:25.240Z</time>
      </trkpt>
      <trkpt lat="45.894311" lon="12.102811">
        <ele>137.874636</ele>
        <time>2023-09-12T01:48:34.110Z</time>
      </trkpt>
      <trkpt lat="45.893971" lon="12.103491">
        <ele>136.973901</ele>
        <time>2023-09-12T01:48:52.956Z</time>
      </trkpt>
      <trkpt lat="45.893939" lon="12.103659">
        <ele>136.786524</ele>
        <time>2023-09-12T01:48:56.937Z</time>
      </trkpt>
      <trkpt lat="45.893972" lon="12.104053">
        <ele>136.359607</ele>
        <time>2023-09-12T01:49:05.996Z</time>
      </trkpt>
      <trkpt lat="45.893925" lon="12.104246">
        <ele>136.139638</ele>
        <time>2023-09-12T01:49:10.703Z</time>
      </trkpt>
      <trkpt lat="45.893236" lon="12.105036">
        <ele>134.801068</ele>
        <time>2023-09-12T01:49:39.732Z</time>
      </trkpt>
      <trkpt lat="45.893130" lon="12.105422">
        <ele>134.364872</ele>
        <time>2023-09-12T01:49:49.108Z</time>
      </trkpt>
      <trkpt lat="45.893101" lon="12.105691">
        <ele>134.078733</ele>
        <time>2023-09-12T01:49:55.192Z</time>
      </trkpt>
      <trkpt lat="45.893025" lon="12.105943">
        <ele>133.790037</ele>
        <time>2023-09-12T01:50:01.299Z</time>
      </trkpt>
      <trkpt lat="45.892879" lon="12.106069">
        <ele>133.532810</ele>
        <time>2023-09-12T01:50:06.713Z</time>
      </trkpt>
      <trkpt lat="45.891846" lon="12.106353">
        <ele>132.162253</ele>
        <time>2023-09-12T01:50:40.864Z</time>
      </trkpt>
      <trkpt lat="45.891425" lon="12.106373">
        <ele>131.645277</ele>
        <time>2023-09-12T01:50:54.777Z</time>
      </trkpt>
      <trkpt lat="45.890877" lon="12.106509">
        <ele>130.962755</ele>
        <time>2023-09-12T01:51:13.494Z</time>
      </trkpt>
      <trkpt lat="45.890813" lon="12.106601">
        <ele>130.902407</ele>
        <time>2023-09-12T01:51:16.552Z</time>
      </trkpt>
      <trkpt lat="45.890810" lon="12.106732">
        <ele>130.908641</ele>
        <time>2023-09-12T01:51:19.666Z</time>
      </trkpt>
      <trkpt lat="45.891018" lon="12.107688">
        <ele>130.956284</ele>
        <time>2023-09-12T01:51:44.902Z</time>
      </trkpt>
      <trkpt lat="45.891063" lon="12.108092">
        <ele>130.975745</ele>
        <time>2023-09-12T01:51:56.008Z</time>
      </trkpt>
      <trkpt lat="45.891001" lon="12.108651">
        <ele>131.002670</ele>
        <time>2023-09-12T01:52:11.519Z</time>
      </trkpt>
      <trkpt lat="45.891000" lon="12.108968">
        <ele>131.017748</ele>
        <time>2023-09-12T01:52:20.117Z</time>
      </trkpt>
      <trkpt lat="45.891440" lon="12.108672">
        <ele>131.435895</ele>
        <time>2023-09-12T01:52:39.489Z</time>
      </trkpt>
      <trkpt lat="45.891809" lon="12.108486">
        <ele>131.826080</ele>
        <time>2023-09-12T01:52:55.221Z</time>
      </trkpt>
      <trkpt lat="45.892233" lon="12.108486">
        <ele>132.249140</ele>
        <time>2023-09-12T01:53:12.770Z</time>
      </trkpt>
      <trkpt lat="45.892744" lon="12.108186">
        <ele>132.799931</ele>
        <time>2023-09-12T01:53:36.267Z</time>
      </trkpt>
      <trkpt lat="45.892879" lon="12.108062">
        <ele>133.044616</ele>
        <time>2023-09-12T01:53:43.130Z</time>
      </trkpt>
      <trkpt lat="45.892922" lon="12.107682">
        <ele>133.471096</ele>
        <time>2023-09-12T01:53:54.467Z</time>
      </trkpt>
      <trkpt lat="45.893678" lon="12.107347">
        <ele>134.730289</ele>
        <time>2023-09-12T01:54:28.056Z</time>
      </trkpt>
      <trkpt lat="45.893868" lon="12.107393">
        <ele>135.036960</ele>
        <time>2023-09-12T01:54:36.467Z</time>
      </trkpt>
      <trkpt lat="45.895185" lon="12.107541">
        <ele>137.348517</ele>
        <time>2023-09-12T01:55:36.675Z</time>
      </trkpt>
      <trkpt lat="45.895246" lon="12.107444">
        <ele>137.514070</ele>
        <time>2023-09-12T01:55:40.806Z</time>
      </trkpt>
      <trkpt lat="45.895221" lon="12.107064">
        <ele>137.997427</ele>
        <time>2023-09-12T01:55:52.548Z</time>
      </trkpt>
      <trkpt lat="45.895111" lon="12.106826">
        <ele>138.359223</ele>
        <time>2023-09-12T01:56:01.305Z</time>
      </trkpt>
      <trkpt lat="45.895086" lon="12.106622">
        <ele>138.621533</ele>
        <time>2023-09-12T01:56:07.489Z</time>
      </trkpt>
      <trkpt lat="45.895203" lon="12.106454">
        <ele>138.922501</ele>
        <time>2023-09-12T01:56:14.601Z</time>
      </trkpt>
      <trkpt lat="45.895369" lon="12.106101">
        <ele>139.277197</ele>
        <time>2023-09-12T01:56:27.104Z</time>
      </trkpt>
      <trkpt lat="45.895996" lon="12.105704">
        <ele>140.071478</ele>
        <time>2023-09-12T01:56:55.179Z</time>
      </trkpt>
      <trkpt lat="45.896892" lon="12.105574">
        <ele>141.216154</ele>
        <time>2023-09-12T01:57:31.757Z</time>
      </trkpt>
      <trkpt lat="45.897000" lon="12.105314">
        <ele>141.777400</ele>
        <time>2023-09-12T01:57:40.950Z</time>
      </trkpt>
      <trkpt lat="45.896965" lon="12.105024">
        <ele>142.322960</ele>
        <time>2023-09-12T01:57:50.238Z</time>
      </trkpt>
      <trkpt lat="45.897097" lon="12.104762">
        <ele>142.922494</ele>
        <time>2023-09-12T01:58:00.741Z</time>
      </trkpt>
      <trkpt lat="45.897528" lon="12.104651">
        <ele>144.088701</ele>
        <time>2023-09-12T01:58:22.289Z</time>
      </trkpt>
      <trkpt lat="45.898105" lon="12.104495">
        <ele>145.652435</ele>
        <time>2023-09-12T01:58:52.113Z</time>
      </trkpt>
      <trkpt lat="45.898844" lon="12.104404">
        <ele>148.303978</ele>
        <time>2023-09-12T01:59:30.872Z</time>
      </trkpt>
      <trkpt lat="45.899984" lon="12.104144">
        <ele>152.491064</ele>
        <time>2023-09-12T02:00:15.034Z</time>
      </trkpt>
      <trkpt lat="45.900148" lon="12.103575">
        <ele>153.484852</ele>
        <time>2023-09-12T02:00:30.796Z</time>
      </trkpt>
      <trkpt lat="45.901051" lon="12.102921">
        <ele>155.829572</ele>
        <time>2023-09-12T02:01:03.537Z</time>
      </trkpt>
      <trkpt lat="45.901415" lon="12.102689">
        <ele>156.573437</ele>
        <time>2023-09-12T02:01:14.829Z</time>
      </trkpt>
      <trkpt lat="45.900963" lon="12.102317">
        <ele>156.458647</ele>
        <time>2023-09-12T02:01:27.424Z</time>
      </trkpt>
      <trkpt lat="45.900791" lon="12.102137">
        <ele>156.411757</ele>
        <time>2023-09-12T02:01:32.104Z</time>
      </trkpt>
      <trkpt lat="45.900608" lon="12.102130">
        <ele>156.371414</ele>
        <time>2023-09-12T02:01:35.793Z</time>
      </trkpt>
      <trkpt lat="45.900478" lon="12.102067">
        <ele>156.341180</ele>
        <time>2023-09-12T02:01:38.576Z</time>
      </trkpt>
      <trkpt lat="45.900329" lon="12.101896">
        <ele>156.299157</ele>
        <time>2023-09-12T02:01:42.281Z</time>
      </trkpt>
      <trkpt lat="45.900060" lon="12.101721">
        <ele>156.234084</ele>
        <time>2023-09-12T02:01:48.248Z</time>
      </trkpt>
      <trkpt lat="45.899988" lon="12.101538">
        <ele>156.201844</ele>
        <time>2023-09-12T02:01:51.207Z</time>
      </trkpt>
      <trkpt lat="45.899891" lon="12.101068">
        <ele>156.286278</ele>
        <time>2023-09-12T02:01:58.625Z</time>
      </trkpt>
      <trkpt lat="45.899590" lon="12.100272">
        <ele>156.483472</ele>
        <time>2023-09-12T02:02:13.363Z</time>
      </trkpt>
      <trkpt lat="45.899529" lon="12.099755">
        <ele>156.597614</ele>
        <time>2023-09-12T02:02:22.552Z</time>
      </trkpt>
      <trkpt lat="45.899432" lon="12.099008">
        <ele>156.812421</ele>
        <time>2023-09-12T02:02:37.096Z</time>
      </trkpt>
      <trkpt lat="45.899056" lon="12.098558">
        <ele>157.935146</ele>
        <time>2023-09-12T02:02:51.034Z</time>
      </trkpt>
      <trkpt lat="45.898862" lon="12.098104">
        <ele>158.785806</ele>
        <time>2023-09-12T02:03:02.742Z</time>
      </trkpt>
      <trkpt lat="45.898640" lon="12.097749">
        <ele>159.547875</ele>
        <time>2023-09-12T02:03:13.592Z</time>
      </trkpt>
      <trkpt lat="45.898310" lon="12.096989">
        <ele>161.121583</ele>
        <time>2023-09-12T02:03:35.097Z</time>
      </trkpt>
      <trkpt lat="45.898172" lon="12.096801">
        <ele>162.207973</ele>
        <time>2023-09-12T02:03:42.491Z</time>
      </trkpt>
      <trkpt lat="45.898134" lon="12.096696">
        <ele>162.678509</ele>
        <time>2023-09-12T02:03:45.738Z</time>
      </trkpt>
      <trkpt lat="45.898166" lon="12.096685">
        <ele>162.866481</ele>
        <time>2023-09-12T02:03:47.133Z</time>
      </trkpt>
      <trkpt lat="45.898246" lon="12.096541">
        <ele>163.599052</ele>
        <time>2023-09-12T02:03:52.557Z</time>
      </trkpt>
      <trkpt lat="45.898323" lon="12.096291">
        <ele>164.686002</ele>
        <time>2023-09-12T02:04:00.655Z</time>
      </trkpt>
      <trkpt lat="45.898378" lon="12.096006">
        <ele>165.861870</ele>
        <time>2023-09-12T02:04:10.031Z</time>
      </trkpt>
      <trkpt lat="45.898459" lon="12.095790">
        <ele>166.837387</ele>
        <time>2023-09-12T02:04:17.751Z</time>
      </trkpt>
      <trkpt lat="45.898628" lon="12.095611">
        <ele>168.036820</ele>
        <time>2023-09-12T02:04:27.985Z</time>
      </trkpt>
      <trkpt lat="45.898781" lon="12.095525">
        <ele>168.975395</ele>
        <time>2023-09-12T02:04:36.026Z</time>
      </trkpt>
      <trkpt lat="45.899201" lon="12.095348">
        <ele>171.598911</ele>
        <time>2023-09-12T02:04:59.510Z</time>
      </trkpt>
      <trkpt lat="45.899536" lon="12.095386">
        <ele>174.260559</ele>
        <time>2023-09-12T02:05:18.863Z</time>
      </trkpt>
      <trkpt lat="45.899472" lon="12.095261">
        <ele>175.115954</ele>
        <time>2023-09-12T02:05:25.352Z</time>
      </trkpt>
      <trkpt lat="45.899281" lon="12.095156">
        <ele>176.735716</ele>
        <time>2023-09-12T02:05:37.504Z</time>
      </trkpt>
      <trkpt lat="45.899004" lon="12.094872">
        <ele>179.430942</ele>
        <time>2023-09-12T02:05:57.996Z</time>
      </trkpt>
      <trkpt lat="45.898732" lon="12.094448">
        <ele>182.609573</ele>
        <time>2023-09-12T02:06:20.862Z</time>
      </trkpt>
      <trkpt lat="45.898573" lon="12.094055">
        <ele>185.115325</ele>
        <time>2023-09-12T02:06:37.133Z</time>
      </trkpt>
      <trkpt lat="45.898335" lon="12.093593">
        <ele>186.004268</ele>
        <time>2023-09-12T02:06:55.785Z</time>
      </trkpt>
      <trkpt lat="45.898367" lon="12.093500">
        <ele>186.123495</ele>
        <time>2023-09-12T02:06:59.486Z</time>
      </trkpt>
      <trkpt lat="45.898118" lon="12.092735">
        <ele>187.094056</ele>
        <time>2023-09-12T02:07:19.285Z</time>
      </trkpt>
      <trkpt lat="45.898107" lon="12.092628">
        <ele>187.218358</ele>
        <time>2023-09-12T02:07:21.379Z</time>
      </trkpt>
      <trkpt lat="45.898368" lon="12.091941">
        <ele>188.117857</ele>
        <time>2023-09-12T02:07:32.291Z</time>
      </trkpt>
      <trkpt lat="45.898396" lon="12.091799">
        <ele>188.287470</ele>
        <time>2023-09-12T02:07:33.993Z</time>
      </trkpt>
      <trkpt lat="45.898391" lon="12.090985">
        <ele>185.295724</ele>
        <time>2023-09-12T02:07:43.176Z</time>
      </trkpt>
      <trkpt lat="45.898325" lon="12.090728">
        <ele>184.154207</ele>
        <time>2023-09-12T02:07:46.162Z</time>
      </trkpt>
      <trkpt lat="45.898268" lon="12.090599">
        <ele>183.517463</ele>
        <time>2023-09-12T02:07:47.757Z</time>
      </trkpt>
      <trkpt lat="45.897793" lon="12.089886">
        <ele>179.404466</ele>
        <time>2023-09-12T02:07:57.957Z</time>
      </trkpt>
      <trkpt lat="45.897793" lon="12.089886">
        <ele>179.404466</ele>
        <time>2023-09-12T02:07:57.959Z</time>
      </trkpt>
      <trkpt lat="45.897739" lon="12.089744">
        <ele>178.730163</ele>
        <time>2023-09-12T02:07:59.601Z</time>
      </trkpt>
      <trkpt lat="45.897743" lon="12.089618">
        <ele>178.204565</ele>
        <time>2023-09-12T02:08:00.906Z</time>
      </trkpt>
      <trkpt lat="45.897778" lon="12.089433">
        <ele>177.439431</ele>
        <time>2023-09-12T02:08:02.837Z</time>
      </trkpt>
      <trkpt lat="45.897869" lon="12.089191">
        <ele>176.488007</ele>
        <time>2023-09-12T02:08:05.685Z</time>
      </trkpt>
      <trkpt lat="45.897827" lon="12.088697">
        <ele>174.766617</ele>
        <time>2023-09-12T02:08:10.955Z</time>
      </trkpt>
      <trkpt lat="45.897844" lon="12.088385">
        <ele>173.684144</ele>
        <time>2023-09-12T02:08:14.380Z</time>
      </trkpt>
      <trkpt lat="45.897791" lon="12.088188">
        <ele>172.953601</ele>
        <time>2023-09-12T02:08:16.801Z</time>
      </trkpt>
      <trkpt lat="45.897564" lon="12.088005">
        <ele>171.659957</ele>
        <time>2023-09-12T02:08:21.047Z</time>
      </trkpt>
      <trkpt lat="45.897298" lon="12.087659">
        <ele>169.876678</ele>
        <time>2023-09-12T02:08:27.239Z</time>
      </trkpt>
      <trkpt lat="45.897598" lon="12.086974">
        <ele>168.006899</ele>
        <time>2023-09-12T02:08:36.305Z</time>
      </trkpt>
      <trkpt lat="45.897674" lon="12.086691">
        <ele>167.572069</ele>
        <time>2023-09-12T02:08:39.730Z</time>
      </trkpt>
      <trkpt lat="45.897741" lon="12.086347">
        <ele>167.060005</ele>
        <time>2023-09-12T02:08:43.904Z</time>
      </trkpt>
      <trkpt lat="45.897783" lon="12.085588">
        <ele>165.968562</ele>
        <time>2023-09-12T02:08:53.754Z</time>
      </trkpt>
      <trkpt lat="45.897133" lon="12.085183">
        <ele>164.610985</ele>
        <time>2023-09-12T02:09:08.125Z</time>
      </trkpt>
      <trkpt lat="45.897056" lon="12.085076">
        <ele>164.440133</ele>
        <time>2023-09-12T02:09:10.171Z</time>
      </trkpt>
      <trkpt lat="45.896825" lon="12.085089">
        <ele>164.071406</ele>
        <time>2023-09-12T02:09:14.424Z</time>
      </trkpt>
      <trkpt lat="45.896799" lon="12.085002">
        <ele>163.966305</ele>
        <time>2023-09-12T02:09:15.698Z</time>
      </trkpt>
      <trkpt lat="45.896603" lon="12.084805">
        <ele>163.584794</ele>
        <time>2023-09-12T02:09:20.209Z</time>
      </trkpt>
      <trkpt lat="45.896484" lon="12.084586">
        <ele>163.276373</ele>
        <time>2023-09-12T02:09:23.819Z</time>
      </trkpt>
      <trkpt lat="45.896410" lon="12.084447">
        <ele>163.082109</ele>
        <time>2023-09-12T02:09:26.083Z</time>
      </trkpt>
      <trkpt lat="45.896394" lon="12.084303">
        <ele>162.920237</ele>
        <time>2023-09-12T02:09:27.963Z</time>
      </trkpt>
      <trkpt lat="45.896433" lon="12.084156">
        <ele>162.745605</ele>
        <time>2023-09-12T02:09:30.009Z</time>
      </trkpt>
      <trkpt lat="45.896175" lon="12.083966">
        <ele>162.283196</ele>
        <time>2023-09-12T02:09:50.131Z</time>
      </trkpt>
      <trkpt lat="45.896122" lon="12.083926">
        <ele>162.187709</ele>
        <time>2023-09-12T02:09:54.327Z</time>
      </trkpt>
      <trkpt lat="45.896083" lon="12.083902">
        <ele>162.120040</ele>
        <time>2023-09-12T02:09:57.272Z</time>
      </trkpt>
      <trkpt lat="45.896209" lon="12.083675">
        <ele>161.982937</ele>
        <time>2023-09-12T02:10:02.240Z</time>
      </trkpt>
      <trkpt lat="45.896222" lon="12.083512">
        <ele>161.915727</ele>
        <time>2023-09-12T02:10:05.063Z</time>
      </trkpt>
      <trkpt lat="45.895893" lon="12.082189">
        <ele>161.340196</ele>
        <time>2023-09-12T02:10:29.853Z</time>
      </trkpt>
      <trkpt lat="45.895851" lon="12.082180">
        <ele>161.315201</ele>
        <time>2023-09-12T02:10:30.787Z</time>
      </trkpt>
      <trkpt lat="45.895548" lon="12.081492">
        <ele>161.265289</ele>
        <time>2023-09-12T02:10:45.966Z</time>
      </trkpt>
      <trkpt lat="45.895386" lon="12.080967">
        <ele>162.341280</ele>
        <time>2023-09-12T02:10:59.154Z</time>
      </trkpt>
      <trkpt lat="45.895205" lon="12.080474">
        <ele>163.385616</ele>
        <time>2023-09-12T02:11:12.457Z</time>
      </trkpt>
      <trkpt lat="45.895339" lon="12.080398">
        <ele>163.773443</ele>
        <time>2023-09-12T02:11:17.579Z</time>
      </trkpt>
      <trkpt lat="45.895561" lon="12.080156">
        <ele>164.523617</ele>
        <time>2023-09-12T02:11:27.481Z</time>
      </trkpt>
      <trkpt lat="45.896004" lon="12.079905">
        <ele>165.805584</ele>
        <time>2023-09-12T02:11:45.101Z</time>
      </trkpt>
      <trkpt lat="45.896042" lon="12.079898">
        <ele>165.906072</ele>
        <time>2023-09-12T02:11:46.627Z</time>
      </trkpt>
      <trkpt lat="45.897181" lon="12.079673">
        <ele>168.760509</ele>
        <time>2023-09-12T02:12:29.576Z</time>
      </trkpt>
      <trkpt lat="45.897377" lon="12.079604">
        <ele>169.261517</ele>
        <time>2023-09-12T02:12:35.331Z</time>
      </trkpt>
      <trkpt lat="45.898056" lon="12.079263">
        <ele>170.670655</ele>
        <time>2023-09-12T02:12:53.222Z</time>
      </trkpt>
      <trkpt lat="45.898370" lon="12.079066">
        <ele>171.068188</ele>
        <time>2023-09-12T02:13:02.147Z</time>
      </trkpt>
      <trkpt lat="45.898542" lon="12.079005">
        <ele>171.273741</ele>
        <time>2023-09-12T02:13:06.861Z</time>
      </trkpt>
      <trkpt lat="45.898635" lon="12.079013">
        <ele>171.381838</ele>
        <time>2023-09-12T02:13:09.120Z</time>
      </trkpt>
      <trkpt lat="45.898990" lon="12.079123">
        <ele>171.803198</ele>
        <time>2023-09-12T02:13:19.463Z</time>
      </trkpt>
      <trkpt lat="45.899538" lon="12.079047">
        <ele>172.457767</ele>
        <time>2023-09-12T02:13:36.258Z</time>
      </trkpt>
      <trkpt lat="45.900210" lon="12.078822">
        <ele>174.108773</ele>
        <time>2023-09-12T02:13:56.795Z</time>
      </trkpt>
      <trkpt lat="45.900294" lon="12.078769">
        <ele>174.328287</ele>
        <time>2023-09-12T02:13:59.700Z</time>
      </trkpt>
      <trkpt lat="45.900480" lon="12.078628">
        <ele>174.831473</ele>
        <time>2023-09-12T02:14:06.900Z</time>
      </trkpt>
      <trkpt lat="45.900613" lon="12.078569">
        <ele>175.164529</ele>
        <time>2023-09-12T02:14:11.652Z</time>
      </trkpt>
      <trkpt lat="45.901197" lon="12.078436">
        <ele>176.579341</ele>
        <time>2023-09-12T02:14:32.343Z</time>
      </trkpt>
      <trkpt lat="45.901603" lon="12.078250">
        <ele>177.699700</ele>
        <time>2023-09-12T02:14:47.693Z</time>
      </trkpt>
      <trkpt lat="45.902462" lon="12.077778">
        <ele>180.155521</ele>
        <time>2023-09-12T02:15:19.478Z</time>
      </trkpt>
      <trkpt lat="45.903062" lon="12.077635">
        <ele>181.833144</ele>
        <time>2023-09-12T02:15:38.399Z</time>
      </trkpt>
      <trkpt lat="45.903334" lon="12.077480">
        <ele>182.784652</ele>
        <time>2023-09-12T02:15:47.275Z</time>
      </trkpt>
      <trkpt lat="45.903748" lon="12.077307">
        <ele>184.186680</ele>
        <time>2023-09-12T02:16:02.558Z</time>
      </trkpt>
      <trkpt lat="45.904565" lon="12.077270">
        <ele>186.844759</ele>
        <time>2023-09-12T02:16:34.705Z</time>
      </trkpt>
      <trkpt lat="45.904587" lon="12.077269">
        <ele>186.916336</ele>
        <time>2023-09-12T02:16:35.634Z</time>
      </trkpt>
      <trkpt lat="45.904720" lon="12.077190">
        <ele>187.384683</ele>
        <time>2023-09-12T02:16:43.442Z</time>
      </trkpt>
      <trkpt lat="45.904847" lon="12.077049">
        <ele>188.030316</ele>
        <time>2023-09-12T02:16:51.420Z</time>
      </trkpt>
      <trkpt lat="45.904915" lon="12.076844">
        <ele>188.666062</ele>
        <time>2023-09-12T02:17:00.156Z</time>
      </trkpt>
      <trkpt lat="45.905008" lon="12.076837">
        <ele>189.040714</ele>
        <time>2023-09-12T02:17:04.195Z</time>
      </trkpt>
      <trkpt lat="45.905146" lon="12.076554">
        <ele>190.008105</ele>
        <time>2023-09-12T02:17:16.604Z</time>
      </trkpt>
      <trkpt lat="45.905477" lon="12.076200">
        <ele>191.667995</ele>
        <time>2023-09-12T02:17:37.124Z</time>
      </trkpt>
      <trkpt lat="45.905554" lon="12.076048">
        <ele>192.194314</ele>
        <time>2023-09-12T02:17:43.489Z</time>
      </trkpt>
      <trkpt lat="45.905686" lon="12.075886">
        <ele>192.892640</ele>
        <time>2023-09-12T02:17:53.640Z</time>
      </trkpt>
      <trkpt lat="45.905883" lon="12.075736">
        <ele>193.789537</ele>
        <time>2023-09-12T02:18:05.805Z</time>
      </trkpt>
      <trkpt lat="45.906468" lon="12.075617">
        <ele>195.113102</ele>
        <time>2023-09-12T02:18:43.406Z</time>
      </trkpt>
      <trkpt lat="45.906854" lon="12.075371">
        <ele>195.655716</ele>
        <time>2023-09-12T02:19:00.206Z</time>
      </trkpt>
      <trkpt lat="45.906895" lon="12.075253">
        <ele>195.773652</ele>
        <time>2023-09-12T02:19:03.986Z</time>
      </trkpt>
      <trkpt lat="45.906736" lon="12.074820">
        <ele>196.211434</ele>
        <time>2023-09-12T02:19:15.301Z</time>
      </trkpt>
      <trkpt lat="45.906736" lon="12.074820">
        <ele>196.211434</ele>
        <time>2023-09-12T02:19:15.302Z</time>
      </trkpt>
      <trkpt lat="45.906721" lon="12.074729">
        <ele>196.295055</ele>
        <time>2023-09-12T02:19:17.841Z</time>
      </trkpt>
      <trkpt lat="45.906767" lon="12.074514">
        <ele>196.496185</ele>
        <time>2023-09-12T02:19:22.797Z</time>
      </trkpt>
      <trkpt lat="45.906757" lon="12.074431">
        <ele>196.571506</ele>
        <time>2023-09-12T02:19:24.362Z</time>
      </trkpt>
      <trkpt lat="45.906612" lon="12.074159">
        <ele>196.877893</ele>
        <time>2023-09-12T02:19:34.082Z</time>
      </trkpt>
      <trkpt lat="45.906822" lon="12.074139">
        <ele>196.938631</ele>
        <time>2023-09-12T02:19:39.144Z</time>
      </trkpt>
      <trkpt lat="45.906975" lon="12.074220">
        <ele>196.946858</ele>
        <time>2023-09-12T02:19:45.754Z</time>
      </trkpt>
      <trkpt lat="45.907081" lon="12.074226">
        <ele>196.952211</ele>
        <time>2023-09-12T02:19:48.108Z</time>
      </trkpt>
      <trkpt lat="45.907342" lon="12.075263">
        <ele>196.990927</ele>
        <time>2023-09-12T02:20:08.375Z</time>
      </trkpt>
      <trkpt lat="45.907452" lon="12.075616">
        <ele>197.004506</ele>
        <time>2023-09-12T02:20:14.400Z</time>
      </trkpt>
      <trkpt lat="45.907510" lon="12.075876">
        <ele>197.014092</ele>
        <time>2023-09-12T02:20:17.634Z</time>
      </trkpt>
      <trkpt lat="45.907517" lon="12.076025">
        <ele>197.019335</ele>
        <time>2023-09-12T02:20:19.448Z</time>
      </trkpt>
      <trkpt lat="45.907503" lon="12.076089">
        <ele>197.031734</ele>
        <time>2023-09-12T02:20:20.234Z</time>
      </trkpt>
      <trkpt lat="45.907625" lon="12.076213">
        <ele>197.125602</ele>
        <time>2023-09-12T02:20:23.395Z</time>
      </trkpt>
      <trkpt lat="45.907719" lon="12.076242">
        <ele>197.185997</ele>
        <time>2023-09-12T02:20:26.264Z</time>
      </trkpt>
      <trkpt lat="45.907984" lon="12.076138">
        <ele>197.358562</ele>
        <time>2023-09-12T02:20:33.536Z</time>
      </trkpt>
      <trkpt lat="45.908211" lon="12.076086">
        <ele>197.502961</ele>
        <time>2023-09-12T02:20:39.721Z</time>
      </trkpt>
      <trkpt lat="45.908529" lon="12.076144">
        <ele>197.704327</ele>
        <time>2023-09-12T02:20:49.115Z</time>
      </trkpt>
      <trkpt lat="45.908707" lon="12.076011">
        <ele>197.830354</ele>
        <time>2023-09-12T02:20:57.873Z</time>
      </trkpt>
      <trkpt lat="45.908794" lon="12.075945">
        <ele>197.892153</ele>
        <time>2023-09-12T02:21:02.094Z</time>
      </trkpt>
      <trkpt lat="45.909494" lon="12.075444">
        <ele>198.381854</ele>
        <time>2023-09-12T02:21:31.277Z</time>
      </trkpt>
      <trkpt lat="45.909882" lon="12.075116">
        <ele>198.662756</ele>
        <time>2023-09-12T02:21:47.249Z</time>
      </trkpt>
      <trkpt lat="45.910436" lon="12.074789">
        <ele>199.036488</ele>
        <time>2023-09-12T02:22:09.205Z</time>
      </trkpt>
      <trkpt lat="45.911263" lon="12.073859">
        <ele>201.031303</ele>
        <time>2023-09-12T02:22:59.138Z</time>
      </trkpt>
      <trkpt lat="45.911332" lon="12.073785">
        <ele>201.256927</ele>
        <time>2023-09-12T02:23:03.348Z</time>
      </trkpt>
      <trkpt lat="45.911432" lon="12.073749">
        <ele>201.527095</ele>
        <time>2023-09-12T02:23:08.115Z</time>
      </trkpt>
      <trkpt lat="45.911791" lon="12.073900">
        <ele>202.507393</ele>
        <time>2023-09-12T02:23:25.586Z</time>
      </trkpt>
      <trkpt lat="45.911950" lon="12.073838">
        <ele>202.939151</ele>
        <time>2023-09-12T02:23:33.557Z</time>
      </trkpt>
      <trkpt lat="45.912030" lon="12.073781">
        <ele>203.173156</ele>
        <time>2023-09-12T02:23:38.105Z</time>
      </trkpt>
      <trkpt lat="45.912389" lon="12.073518">
        <ele>204.292106</ele>
        <time>2023-09-12T02:23:58.321Z</time>
      </trkpt>
      <trkpt lat="45.912633" lon="12.073255">
        <ele>205.299030</ele>
        <time>2023-09-12T02:24:13.555Z</time>
      </trkpt>
      <trkpt lat="45.912738" lon="12.072982">
        <ele>206.015556</ele>
        <time>2023-09-12T02:24:23.707Z</time>
      </trkpt>
      <trkpt lat="45.912958" lon="12.072550">
        <ele>207.245286</ele>
        <time>2023-09-12T02:24:42.020Z</time>
      </trkpt>
      <trkpt lat="45.913030" lon="12.072484">
        <ele>207.527223</ele>
        <time>2023-09-12T02:24:46.720Z</time>
      </trkpt>
      <trkpt lat="45.913138" lon="12.072385">
        <ele>207.950127</ele>
        <time>2023-09-12T02:24:52.536Z</time>
      </trkpt>
      <trkpt lat="45.913389" lon="12.072234">
        <ele>208.848462</ele>
        <time>2023-09-12T02:25:05.998Z</time>
      </trkpt>
      <trkpt lat="45.913447" lon="12.072162">
        <ele>209.101481</ele>
        <time>2023-09-12T02:25:09.509Z</time>
      </trkpt>
      <trkpt lat="45.913472" lon="12.072099">
        <ele>209.268075</ele>
        <time>2023-09-12T02:25:11.699Z</time>
      </trkpt>
      <trkpt lat="45.913617" lon="12.071589">
        <ele>211.228748</ele>
        <time>2023-09-12T02:25:31.802Z</time>
      </trkpt>
      <trkpt lat="45.913678" lon="12.071528">
        <ele>211.754356</ele>
        <time>2023-09-12T02:25:35.900Z</time>
      </trkpt>
      <trkpt lat="45.913738" lon="12.071572">
        <ele>212.230784</ele>
        <time>2023-09-12T02:25:40.173Z</time>
      </trkpt>
      <trkpt lat="45.913757" lon="12.071808">
        <ele>213.399892</ele>
        <time>2023-09-12T02:25:50.158Z</time>
      </trkpt>
      <trkpt lat="45.913813" lon="12.072020">
        <ele>214.515806</ele>
        <time>2023-09-12T02:26:00.227Z</time>
      </trkpt>
      <trkpt lat="45.913878" lon="12.072161">
        <ele>215.348159</ele>
        <time>2023-09-12T02:26:08.384Z</time>
      </trkpt>
      <trkpt lat="45.913994" lon="12.072250">
        <ele>216.278209</ele>
        <time>2023-09-12T02:26:16.908Z</time>
      </trkpt>
      <trkpt lat="45.914112" lon="12.072280">
        <ele>217.125785</ele>
        <time>2023-09-12T02:26:25.326Z</time>
      </trkpt>
      <trkpt lat="45.914177" lon="12.072264">
        <ele>217.592226</ele>
        <time>2023-09-12T02:26:29.981Z</time>
      </trkpt>
      <trkpt lat="45.914235" lon="12.072171">
        <ele>218.206830</ele>
        <time>2023-09-12T02:26:35.805Z</time>
      </trkpt>
      <trkpt lat="45.914201" lon="12.071909">
        <ele>219.518359</ele>
        <time>2023-09-12T02:26:48.582Z</time>
      </trkpt>
      <trkpt lat="45.914218" lon="12.071806">
        <ele>220.039286</ele>
        <time>2023-09-12T02:26:53.858Z</time>
      </trkpt>
      <trkpt lat="45.914262" lon="12.071766">
        <ele>220.407525</ele>
        <time>2023-09-12T02:26:57.527Z</time>
      </trkpt>
      <trkpt lat="45.914377" lon="12.071766">
        <ele>221.220925</ele>
        <time>2023-09-12T02:27:05.635Z</time>
      </trkpt>
      <trkpt lat="45.914511" lon="12.071855">
        <ele>222.265012</ele>
        <time>2023-09-12T02:27:16.679Z</time>
      </trkpt>
      <trkpt lat="45.914861" lon="12.072187">
        <ele>226.267789</ele>
        <time>2023-09-12T02:27:48.304Z</time>
      </trkpt>
      <trkpt lat="45.915008" lon="12.072591">
        <ele>229.411367</ele>
        <time>2023-09-12T02:28:12.815Z</time>
      </trkpt>
      <trkpt lat="45.915704" lon="12.071606">
        <ele>239.091527</ele>
        <time>2023-09-12T02:29:30.706Z</time>
      </trkpt>
      <trkpt lat="45.915704" lon="12.071605">
        <ele>239.098422</ele>
        <time>2023-09-12T02:29:30.731Z</time>
      </trkpt>
      <trkpt lat="45.916082" lon="12.071402">
        <ele>241.903508</ele>
        <time>2023-09-12T02:30:02.127Z</time>
      </trkpt>
      <trkpt lat="45.916717" lon="12.070938">
        <ele>245.751823</ele>
        <time>2023-09-12T02:30:50.090Z</time>
      </trkpt>
      <trkpt lat="45.916753" lon="12.070987">
        <ele>246.019666</ele>
        <time>2023-09-12T02:30:52.685Z</time>
      </trkpt>
      <trkpt lat="45.916651" lon="12.071336">
        <ele>247.442404</ele>
        <time>2023-09-12T02:31:06.854Z</time>
      </trkpt>
      <trkpt lat="45.916663" lon="12.071432">
        <ele>247.808991</ele>
        <time>2023-09-12T02:31:10.382Z</time>
      </trkpt>
      <trkpt lat="45.916809" lon="12.071508">
        <ele>248.647863</ele>
        <time>2023-09-12T02:31:17.410Z</time>
      </trkpt>
      <trkpt lat="45.916970" lon="12.071516">
        <ele>249.518160</ele>
        <time>2023-09-12T02:31:24.367Z</time>
      </trkpt>
      <trkpt lat="45.917344" lon="12.071422">
        <ele>249.275671</ele>
        <time>2023-09-12T02:31:38.063Z</time>
      </trkpt>
      <trkpt lat="45.917352" lon="12.071490">
        <ele>249.103995</ele>
        <time>2023-09-12T02:31:39.590Z</time>
      </trkpt>
      <trkpt lat="45.917310" lon="12.071703">
        <ele>248.552889</ele>
        <time>2023-09-12T02:31:44.246Z</time>
      </trkpt>
      <trkpt lat="45.917308" lon="12.071829">
        <ele>248.239156</ele>
        <time>2023-09-12T02:31:46.833Z</time>
      </trkpt>
      <trkpt lat="45.917376" lon="12.071907">
        <ele>247.927866</ele>
        <time>2023-09-12T02:31:49.445Z</time>
      </trkpt>
      <trkpt lat="45.917508" lon="12.071931">
        <ele>247.451789</ele>
        <time>2023-09-12T02:31:53.186Z</time>
      </trkpt>
      <trkpt lat="45.917620" lon="12.071895">
        <ele>247.041140</ele>
        <time>2023-09-12T02:31:56.303Z</time>
      </trkpt>
      <trkpt lat="45.917731" lon="12.071723">
        <ele>246.457133</ele>
        <time>2023-09-12T02:32:00.838Z</time>
      </trkpt>
      <trkpt lat="45.917795" lon="12.071735">
        <ele>246.226192</ele>
        <time>2023-09-12T02:32:02.536Z</time>
      </trkpt>
      <trkpt lat="45.917814" lon="12.071870">
        <ele>245.883332</ele>
        <time>2023-09-12T02:32:05.040Z</time>
      </trkpt>
      <trkpt lat="45.917605" lon="12.072364">
        <ele>244.444088</ele>
        <time>2023-09-12T02:32:15.642Z</time>
      </trkpt>
      <trkpt lat="45.917561" lon="12.072602">
        <ele>243.831077</ele>
        <time>2023-09-12T02:32:20.309Z</time>
      </trkpt>
      <trkpt lat="45.917487" lon="12.072818">
        <ele>243.544845</ele>
        <time>2023-09-12T02:32:24.777Z</time>
      </trkpt>
      <trkpt lat="45.917604" lon="12.073124">
        <ele>243.197024</ele>
        <time>2023-09-12T02:32:31.842Z</time>
      </trkpt>
      <trkpt lat="45.917656" lon="12.073605">
        <ele>242.712134</ele>
        <time>2023-09-12T02:32:37.875Z</time>
      </trkpt>
      <trkpt lat="45.917857" lon="12.073957">
        <ele>242.258506</ele>
        <time>2023-09-12T02:32:43.921Z</time>
      </trkpt>
      <trkpt lat="45.917990" lon="12.074103">
        <ele>242.018886</ele>
        <time>2023-09-12T02:32:47.579Z</time>
      </trkpt>
      <trkpt lat="45.918557" lon="12.074515">
        <ele>241.382112</ele>
        <time>2023-09-12T02:33:04.283Z</time>
      </trkpt>
      <trkpt lat="45.918598" lon="12.074632">
        <ele>241.766719</ele>
        <time>2023-09-12T02:33:07.310Z</time>
      </trkpt>
      <trkpt lat="45.918573" lon="12.074731">
        <ele>242.075920</ele>
        <time>2023-09-12T02:33:09.845Z</time>
      </trkpt>
      <trkpt lat="45.918449" lon="12.074964">
        <ele>242.937168</ele>
        <time>2023-09-12T02:33:17.113Z</time>
      </trkpt>
      <trkpt lat="45.918371" lon="12.075227">
        <ele>243.776525</ele>
        <time>2023-09-12T02:33:24.837Z</time>
      </trkpt>
      <trkpt lat="45.918145" lon="12.075432">
        <ele>244.904277</ele>
        <time>2023-09-12T02:33:36.026Z</time>
      </trkpt>
      <trkpt lat="45.917884" lon="12.075939">
        <ele>246.755955</ele>
        <time>2023-09-12T02:33:55.870Z</time>
      </trkpt>
      <trkpt lat="45.917827" lon="12.076125">
        <ele>247.352656</ele>
        <time>2023-09-12T02:34:02.145Z</time>
      </trkpt>
      <trkpt lat="45.917806" lon="12.076417">
        <ele>248.214493</ele>
        <time>2023-09-12T02:34:11.425Z</time>
      </trkpt>
      <trkpt lat="45.917843" lon="12.076529">
        <ele>248.578499</ele>
        <time>2023-09-12T02:34:15.134Z</time>
      </trkpt>
      <trkpt lat="45.917953" lon="12.076553">
        <ele>249.275765</ele>
        <time>2023-09-12T02:34:20.206Z</time>
      </trkpt>
      <trkpt lat="45.918243" lon="12.076427">
        <ele>251.596733</ele>
        <time>2023-09-12T02:34:33.622Z</time>
      </trkpt>
      <trkpt lat="45.918497" lon="12.076345">
        <ele>253.591105</ele>
        <time>2023-09-12T02:34:45.533Z</time>
      </trkpt>
      <trkpt lat="45.918584" lon="12.076346">
        <ele>254.257635</ele>
        <time>2023-09-12T02:34:49.488Z</time>
      </trkpt>
      <trkpt lat="45.918799" lon="12.076454">
        <ele>256.002432</ele>
        <time>2023-09-12T02:35:00.495Z</time>
      </trkpt>
      <trkpt lat="45.919418" lon="12.076607">
        <ele>260.814200</ele>
        <time>2023-09-12T02:35:36.517Z</time>
      </trkpt>
      <trkpt lat="45.919528" lon="12.076727">
        <ele>261.872113</ele>
        <time>2023-09-12T02:35:45.186Z</time>
      </trkpt>
      <trkpt lat="45.919558" lon="12.076809">
        <ele>262.365884</ele>
        <time>2023-09-12T02:35:49.504Z</time>
      </trkpt>
      <trkpt lat="45.919597" lon="12.077540">
        <ele>267.753176</ele>
        <time>2023-09-12T02:36:27.852Z</time>
      </trkpt>
      <trkpt lat="45.919700" lon="12.077610">
        <ele>268.972784</ele>
        <time>2023-09-12T02:36:35.761Z</time>
      </trkpt>
      <trkpt lat="45.920478" lon="12.077671">
        <ele>277.313471</ele>
        <time>2023-09-12T02:37:27.110Z</time>
      </trkpt>
      <trkpt lat="45.920527" lon="12.077625">
        <ele>277.939953</ele>
        <time>2023-09-12T02:37:31.058Z</time>
      </trkpt>
      <trkpt lat="45.920554" lon="12.077539">
        <ele>278.642579</ele>
        <time>2023-09-12T02:37:34.876Z</time>
      </trkpt>
      <trkpt lat="45.920559" lon="12.077089">
        <ele>281.947901</ele>
        <time>2023-09-12T02:37:54.625Z</time>
      </trkpt>
      <trkpt lat="45.920561" lon="12.076884">
        <ele>283.107208</ele>
        <time>2023-09-12T02:38:03.004Z</time>
      </trkpt>
      <trkpt lat="45.920609" lon="12.076785">
        <ele>283.789564</ele>
        <time>2023-09-12T02:38:08.175Z</time>
      </trkpt>
      <trkpt lat="45.921430" lon="12.076592">
        <ele>290.551665</ele>
        <time>2023-09-12T02:38:59.917Z</time>
      </trkpt>
      <trkpt lat="45.921588" lon="12.076506">
        <ele>291.924941</ele>
        <time>2023-09-12T02:39:08.618Z</time>
      </trkpt>
      <trkpt lat="45.921802" lon="12.076142">
        <ele>294.619775</ele>
        <time>2023-09-12T02:39:24.559Z</time>
      </trkpt>
      <trkpt lat="45.921946" lon="12.075842">
        <ele>296.644725</ele>
        <time>2023-09-12T02:39:34.796Z</time>
      </trkpt>
      <trkpt lat="45.922091" lon="12.075738">
        <ele>297.778234</ele>
        <time>2023-09-12T02:39:41.700Z</time>
      </trkpt>
      <trkpt lat="45.922164" lon="12.075789">
        <ele>298.345976</ele>
        <time>2023-09-12T02:39:45.309Z</time>
      </trkpt>
      <trkpt lat="45.922195" lon="12.076014">
        <ele>299.462082</ele>
        <time>2023-09-12T02:39:52.407Z</time>
      </trkpt>
      <trkpt lat="45.922240" lon="12.076132">
        <ele>300.116885</ele>
        <time>2023-09-12T02:39:56.677Z</time>
      </trkpt>
      <trkpt lat="45.922655" lon="12.076589">
        <ele>303.773642</ele>
        <time>2023-09-12T02:40:30.029Z</time>
      </trkpt>
      <trkpt lat="45.922783" lon="12.077051">
        <ele>306.193430</ele>
        <time>2023-09-12T02:40:53.226Z</time>
      </trkpt>
      <trkpt lat="45.923073" lon="12.077476">
        <ele>309.119175</ele>
        <time>2023-09-12T02:41:22.634Z</time>
      </trkpt>
      <trkpt lat="45.923130" lon="12.077692">
        <ele>310.619500</ele>
        <time>2023-09-12T02:41:34.424Z</time>
      </trkpt>
      <trkpt lat="45.923056" lon="12.078202">
        <ele>314.002902</ele>
        <time>2023-09-12T02:42:02.095Z</time>
      </trkpt>
      <trkpt lat="45.923246" lon="12.078517">
        <ele>316.710571</ele>
        <time>2023-09-12T02:42:24.710Z</time>
      </trkpt>
      <trkpt lat="45.923266" lon="12.078729">
        <ele>318.099972</ele>
        <time>2023-09-12T02:42:36.231Z</time>
      </trkpt>
      <trkpt lat="45.923800" lon="12.079224">
        <ele>324.031974</ele>
        <time>2023-09-12T02:43:23.353Z</time>
      </trkpt>
      <trkpt lat="45.923942" lon="12.079518">
        <ele>326.173514</ele>
        <time>2023-09-12T02:43:42.181Z</time>
      </trkpt>
      <trkpt lat="45.923971" lon="12.079645">
        <ele>326.758284</ele>
        <time>2023-09-12T02:43:48.987Z</time>
      </trkpt>
      <trkpt lat="45.923991" lon="12.079730">
        <ele>327.150839</ele>
        <time>2023-09-12T02:43:53.489Z</time>
      </trkpt>
      <trkpt lat="45.923972" lon="12.079942">
        <ele>328.085962</ele>
        <time>2023-09-12T02:44:04.445Z</time>
      </trkpt>
      <trkpt lat="45.923866" lon="12.080245">
        <ele>329.569721</ele>
        <time>2023-09-12T02:44:21.288Z</time>
      </trkpt>
      <trkpt lat="45.923922" lon="12.080276">
        <ele>329.947122</ele>
        <time>2023-09-12T02:44:25.628Z</time>
      </trkpt>
      <trkpt lat="45.924027" lon="12.080261">
        <ele>330.610733</ele>
        <time>2023-09-12T02:44:33.116Z</time>
      </trkpt>
      <trkpt lat="45.924163" lon="12.080052">
        <ele>331.862762</ele>
        <time>2023-09-12T02:44:46.269Z</time>
      </trkpt>
      <trkpt lat="45.924605" lon="12.079947">
        <ele>334.680256</ele>
        <time>2023-09-12T02:45:12.866Z</time>
      </trkpt>
      <trkpt lat="45.924727" lon="12.079873">
        <ele>335.513030</ele>
        <time>2023-09-12T02:45:19.839Z</time>
      </trkpt>
      <trkpt lat="45.924775" lon="12.079906">
        <ele>335.847652</ele>
        <time>2023-09-12T02:45:22.452Z</time>
      </trkpt>
      <trkpt lat="45.924864" lon="12.080064">
        <ele>336.737072</ele>
        <time>2023-09-12T02:45:29.201Z</time>
      </trkpt>
      <trkpt lat="45.925232" lon="12.080492">
        <ele>336.881743</ele>
        <time>2023-09-12T02:45:50.278Z</time>
      </trkpt>
      <trkpt lat="45.926243" lon="12.081918">
        <ele>335.981243</ele>
        <time>2023-09-12T02:46:37.411Z</time>
      </trkpt>
      <trkpt lat="45.926361" lon="12.082171">
        <ele>335.023552</ele>
        <time>2023-09-12T02:46:40.796Z</time>
      </trkpt>
      <trkpt lat="45.926530" lon="12.082304">
        <ele>334.152723</ele>
        <time>2023-09-12T02:46:43.922Z</time>
      </trkpt>
      <trkpt lat="45.926815" lon="12.082726">
        <ele>332.303485</ele>
        <time>2023-09-12T02:46:50.422Z</time>
      </trkpt>
      <trkpt lat="45.926899" lon="12.082903">
        <ele>331.629821</ele>
        <time>2023-09-12T02:46:52.761Z</time>
      </trkpt>
      <trkpt lat="45.926979" lon="12.083196">
        <ele>330.640216</ele>
        <time>2023-09-12T02:46:56.232Z</time>
      </trkpt>
      <trkpt lat="45.927217" lon="12.083808">
        <ele>328.435821</ele>
        <time>2023-09-12T02:47:03.867Z</time>
      </trkpt>
      <trkpt lat="45.927765" lon="12.084994">
        <ele>323.186600</ele>
        <time>2023-09-12T02:47:19.433Z</time>
      </trkpt>
      <trkpt lat="45.928193" lon="12.085779">
        <ele>319.450526</ele>
        <time>2023-09-12T02:47:30.264Z</time>
      </trkpt>
      <trkpt lat="45.928326" lon="12.086088">
        <ele>318.009060</ele>
        <time>2023-09-12T02:47:34.250Z</time>
      </trkpt>
      <trkpt lat="45.928427" lon="12.086443">
        <ele>316.050158</ele>
        <time>2023-09-12T02:47:38.421Z</time>
      </trkpt>
      <trkpt lat="45.928444" lon="12.086677">
        <ele>314.848549</ele>
        <time>2023-09-12T02:47:40.959Z</time>
      </trkpt>
      <trkpt lat="45.928259" lon="12.087523">
        <ele>310.319266</ele>
        <time>2023-09-12T02:47:50.287Z</time>
      </trkpt>
      <trkpt lat="45.928246" lon="12.087682">
        <ele>309.501612</ele>
        <time>2023-09-12T02:47:51.920Z</time>
      </trkpt>
      <trkpt lat="45.928286" lon="12.087853">
        <ele>308.580197</ele>
        <time>2023-09-12T02:47:53.751Z</time>
      </trkpt>
      <trkpt lat="45.928402" lon="12.088046">
        <ele>307.277463</ele>
        <time>2023-09-12T02:47:56.325Z</time>
      </trkpt>
      <trkpt lat="45.928524" lon="12.088325">
        <ele>305.594333</ele>
        <time>2023-09-12T02:47:59.613Z</time>
      </trkpt>
      <trkpt lat="45.928770" lon="12.088446">
        <ele>303.304553</ele>
        <time>2023-09-12T02:48:03.307Z</time>
      </trkpt>
      <trkpt lat="45.929007" lon="12.088482">
        <ele>301.084943</ele>
        <time>2023-09-12T02:48:06.720Z</time>
      </trkpt>
      <trkpt lat="45.929117" lon="12.088589">
        <ele>299.847990</ele>
        <time>2023-09-12T02:48:08.614Z</time>
      </trkpt>
      <trkpt lat="45.929264" lon="12.088866">
        <ele>297.590918</ele>
        <time>2023-09-12T02:48:12.110Z</time>
      </trkpt>
      <trkpt lat="45.929273" lon="12.089074">
        <ele>296.240881</ele>
        <time>2023-09-12T02:48:14.211Z</time>
      </trkpt>
      <trkpt lat="45.929298" lon="12.089148">
        <ele>295.707950</ele>
        <time>2023-09-12T02:48:15.049Z</time>
      </trkpt>
      <trkpt lat="45.929414" lon="12.089326">
        <ele>294.127814</ele>
        <time>2023-09-12T02:48:17.507Z</time>
      </trkpt>
      <trkpt lat="45.929486" lon="12.089360">
        <ele>293.421989</ele>
        <time>2023-09-12T02:48:18.615Z</time>
      </trkpt>
      <trkpt lat="45.929682" lon="12.089653">
        <ele>290.788562</ele>
        <time>2023-09-12T02:48:22.686Z</time>
      </trkpt>
      <trkpt lat="45.929927" lon="12.090151">
        <ele>287.005473</ele>
        <time>2023-09-12T02:48:28.752Z</time>
      </trkpt>
      <trkpt lat="45.930014" lon="12.090283">
        <ele>285.958410</ele>
        <time>2023-09-12T02:48:30.576Z</time>
      </trkpt>
      <trkpt lat="45.930173" lon="12.090449">
        <ele>284.331752</ele>
        <time>2023-09-12T02:48:33.384Z</time>
      </trkpt>
      <trkpt lat="45.930359" lon="12.090582">
        <ele>282.612087</ele>
        <time>2023-09-12T02:48:36.386Z</time>
      </trkpt>
      <trkpt lat="45.930702" lon="12.090604">
        <ele>279.769837</ele>
        <time>2023-09-12T02:48:41.384Z</time>
      </trkpt>
      <trkpt lat="45.930796" lon="12.090646">
        <ele>278.954975</ele>
        <time>2023-09-12T02:48:42.821Z</time>
      </trkpt>
      <trkpt lat="45.932573" lon="12.092733">
        <ele>262.669277</ele>
        <time>2023-09-12T02:49:17.345Z</time>
      </trkpt>
      <trkpt lat="45.932789" lon="12.093018">
        <ele>260.801658</ele>
        <time>2023-09-12T02:49:21.972Z</time>
      </trkpt>
      <trkpt lat="45.933638" lon="12.093924">
        <ele>254.415137</ele>
        <time>2023-09-12T02:49:38.495Z</time>
      </trkpt>
      <trkpt lat="45.933782" lon="12.094179">
        <ele>253.035192</ele>
        <time>2023-09-12T02:49:42.039Z</time>
      </trkpt>
      <trkpt lat="45.934525" lon="12.095774">
        <ele>244.553493</ele>
        <time>2023-09-12T02:50:01.897Z</time>
      </trkpt>
      <trkpt lat="45.934579" lon="12.096011">
        <ele>243.429492</ele>
        <time>2023-09-12T02:50:04.469Z</time>
      </trkpt>
      <trkpt lat="45.934565" lon="12.096296">
        <ele>242.141820</ele>
        <time>2023-09-12T02:50:07.426Z</time>
      </trkpt>
      <trkpt lat="45.934625" lon="12.096410">
        <ele>241.497492</ele>
        <time>2023-09-12T02:50:08.941Z</time>
      </trkpt>
      <trkpt lat="45.934726" lon="12.096520">
        <ele>240.676418</ele>
        <time>2023-09-12T02:50:10.873Z</time>
      </trkpt>
      <trkpt lat="45.935492" lon="12.097009">
        <ele>238.422533</ele>
        <time>2023-09-12T02:50:24.798Z</time>
      </trkpt>
      <trkpt lat="45.935741" lon="12.096989">
        <ele>238.159854</ele>
        <time>2023-09-12T02:50:29.494Z</time>
      </trkpt>
      <trkpt lat="45.936032" lon="12.097171">
        <ele>237.825605</ele>
        <time>2023-09-12T02:50:35.745Z</time>
      </trkpt>
      <trkpt lat="45.936183" lon="12.097056">
        <ele>237.645626</ele>
        <time>2023-09-12T02:50:40.221Z</time>
      </trkpt>
      <trkpt lat="45.936824" lon="12.096715">
        <ele>237.695848</ele>
        <time>2023-09-12T02:51:01.941Z</time>
      </trkpt>
      <trkpt lat="45.936919" lon="12.096641">
        <ele>237.982321</ele>
        <time>2023-09-12T02:51:06.021Z</time>
      </trkpt>
      <trkpt lat="45.937084" lon="12.096405">
        <ele>238.599388</ele>
        <time>2023-09-12T02:51:14.309Z</time>
      </trkpt>
      <trkpt lat="45.937221" lon="12.096133">
        <ele>239.218666</ele>
        <time>2023-09-12T02:51:21.905Z</time>
      </trkpt>
      <trkpt lat="45.937215" lon="12.096380">
        <ele>239.674397</ele>
        <time>2023-09-12T02:51:28.180Z</time>
      </trkpt>
      <trkpt lat="45.937013" lon="12.096947">
        <ele>240.849117</ele>
        <time>2023-09-12T02:51:42.752Z</time>
      </trkpt>
      <trkpt lat="45.936956" lon="12.097029">
        <ele>241.062901</ele>
        <time>2023-09-12T02:51:44.830Z</time>
      </trkpt>
      <trkpt lat="45.936344" lon="12.097393">
        <ele>243.403415</ele>
        <time>2023-09-12T02:52:07.126Z</time>
      </trkpt>
      <trkpt lat="45.936255" lon="12.097473">
        <ele>243.861399</ele>
        <time>2023-09-12T02:52:10.702Z</time>
      </trkpt>
      <trkpt lat="45.936140" lon="12.097701">
        <ele>244.716097</ele>
        <time>2023-09-12T02:52:19.212Z</time>
      </trkpt>
      <trkpt lat="45.936118" lon="12.097876">
        <ele>245.255758</ele>
        <time>2023-09-12T02:52:24.178Z</time>
      </trkpt>
      <trkpt lat="45.936097" lon="12.098918">
        <ele>248.419142</ele>
        <time>2023-09-12T02:52:54.751Z</time>
      </trkpt>
      <trkpt lat="45.936132" lon="12.099199">
        <ele>249.285433</ele>
        <time>2023-09-12T02:53:03.770Z</time>
      </trkpt>
      <trkpt lat="45.936519" lon="12.099945">
        <ele>253.165951</ele>
        <time>2023-09-12T02:53:33.600Z</time>
      </trkpt>
      <trkpt lat="45.936681" lon="12.100697">
        <ele>256.629774</ele>
        <time>2023-09-12T02:54:01.110Z</time>
      </trkpt>
      <trkpt lat="45.936722" lon="12.100774">
        <ele>257.056463</ele>
        <time>2023-09-12T02:54:04.295Z</time>
      </trkpt>
      <trkpt lat="45.936940" lon="12.100987">
        <ele>258.723949</ele>
        <time>2023-09-12T02:54:18.114Z</time>
      </trkpt>
      <trkpt lat="45.937058" lon="12.101316">
        <ele>260.352673</ele>
        <time>2023-09-12T02:54:30.968Z</time>
      </trkpt>
      <trkpt lat="45.937142" lon="12.101619">
        <ele>261.718172</ele>
        <time>2023-09-12T02:54:45.308Z</time>
      </trkpt>
      <trkpt lat="45.937250" lon="12.101870">
        <ele>262.876855</ele>
        <time>2023-09-12T02:54:58.442Z</time>
      </trkpt>
      <trkpt lat="45.937405" lon="12.102068">
        <ele>264.047188</ele>
        <time>2023-09-12T02:55:11.068Z</time>
      </trkpt>
      <trkpt lat="45.937478" lon="12.102458">
        <ele>265.632667</ele>
        <time>2023-09-12T02:55:28.078Z</time>
      </trkpt>
      <trkpt lat="45.937630" lon="12.102744">
        <ele>267.045711</ele>
        <time>2023-09-12T02:55:43.026Z</time>
      </trkpt>
      <trkpt lat="45.937709" lon="12.103190">
        <ele>268.852431</ele>
        <time>2023-09-12T02:56:01.472Z</time>
      </trkpt>
      <trkpt lat="45.938009" lon="12.103689">
        <ele>271.343915</ele>
        <time>2023-09-12T02:56:27.893Z</time>
      </trkpt>
      <trkpt lat="45.938023" lon="12.104009">
        <ele>271.767176</ele>
        <time>2023-09-12T02:56:40.671Z</time>
      </trkpt>
      <trkpt lat="45.938196" lon="12.104422">
        <ele>272.403632</ele>
        <time>2023-09-12T02:56:58.889Z</time>
      </trkpt>
      <trkpt lat="45.938285" lon="12.104901">
        <ele>273.058128</ele>
        <time>2023-09-12T02:57:15.882Z</time>
      </trkpt>
      <trkpt lat="45.938447" lon="12.105178">
        <ele>273.535904</ele>
        <time>2023-09-12T02:57:26.955Z</time>
      </trkpt>
      <trkpt lat="45.938502" lon="12.105610">
        <ele>274.115652</ele>
        <time>2023-09-12T02:57:38.706Z</time>
      </trkpt>
      <trkpt lat="45.938676" lon="12.105941">
        <ele>274.663383</ele>
        <time>2023-09-12T02:57:48.325Z</time>
      </trkpt>
      <trkpt lat="45.938696" lon="12.105987">
        <ele>274.649700</ele>
        <time>2023-09-12T02:57:49.511Z</time>
      </trkpt>
      <trkpt lat="45.938869" lon="12.106480">
        <ele>273.030989</ele>
        <time>2023-09-12T02:58:01.004Z</time>
      </trkpt>
      <trkpt lat="45.939284" lon="12.106942">
        <ele>270.818734</ele>
        <time>2023-09-12T02:58:15.941Z</time>
      </trkpt>
      <trkpt lat="45.939339" lon="12.107613">
        <ele>268.838210</ele>
        <time>2023-09-12T02:58:28.962Z</time>
      </trkpt>
      <trkpt lat="45.939480" lon="12.107982">
        <ele>267.604027</ele>
        <time>2023-09-12T02:58:36.753Z</time>
      </trkpt>
      <trkpt lat="45.939610" lon="12.108737">
        <ele>264.860522</ele>
        <time>2023-09-12T02:58:50.895Z</time>
      </trkpt>
      <trkpt lat="45.939829" lon="12.109213">
        <ele>262.757342</ele>
        <time>2023-09-12T02:59:01.307Z</time>
      </trkpt>
      <trkpt lat="45.939856" lon="12.109495">
        <ele>261.708380</ele>
        <time>2023-09-12T02:59:06.636Z</time>
      </trkpt>
      <trkpt lat="45.940061" lon="12.109999">
        <ele>259.556806</ele>
        <time>2023-09-12T02:59:17.849Z</time>
      </trkpt>
      <trkpt lat="45.940098" lon="12.110635">
        <ele>257.487782</ele>
        <time>2023-09-12T02:59:30.653Z</time>
      </trkpt>
      <trkpt lat="45.940276" lon="12.111008">
        <ele>257.026372</ele>
        <time>2023-09-12T02:59:39.990Z</time>
      </trkpt>
      <trkpt lat="45.940496" lon="12.111661">
        <ele>256.286290</ele>
        <time>2023-09-12T02:59:55.358Z</time>
      </trkpt>
      <trkpt lat="45.940670" lon="12.111892">
        <ele>255.938953</ele>
        <time>2023-09-12T03:00:02.979Z</time>
      </trkpt>
      <trkpt lat="45.940732" lon="12.112304">
        <ele>255.509005</ele>
        <time>2023-09-12T03:00:13.619Z</time>
      </trkpt>
      <trkpt lat="45.941055" lon="12.112932">
        <ele>255.122294</ele>
        <time>2023-09-12T03:00:36.159Z</time>
      </trkpt>
      <trkpt lat="45.941304" lon="12.113149">
        <ele>255.408086</ele>
        <time>2023-09-12T03:00:49.262Z</time>
      </trkpt>
      <trkpt lat="45.941426" lon="12.113516">
        <ele>255.685745</ele>
        <time>2023-09-12T03:01:00.715Z</time>
      </trkpt>
      <trkpt lat="45.941533" lon="12.113953">
        <ele>256.001984</ele>
        <time>2023-09-12T03:01:14.354Z</time>
      </trkpt>
      <trkpt lat="45.941628" lon="12.114101">
        <ele>256.139464</ele>
        <time>2023-09-12T03:01:20.093Z</time>
      </trkpt>
      <trkpt lat="45.941843" lon="12.114291">
        <ele>256.387167</ele>
        <time>2023-09-12T03:01:30.860Z</time>
      </trkpt>
      <trkpt lat="45.941903" lon="12.114386">
        <ele>256.474765</ele>
        <time>2023-09-12T03:01:34.459Z</time>
      </trkpt>
      <trkpt lat="45.941938" lon="12.114477">
        <ele>256.545748</ele>
        <time>2023-09-12T03:01:37.067Z</time>
      </trkpt>
      <trkpt lat="45.941947" lon="12.114609">
        <ele>256.636280</ele>
        <time>2023-09-12T03:01:41.135Z</time>
      </trkpt>
      <trkpt lat="45.941901" lon="12.114884">
        <ele>256.485145</ele>
        <time>2023-09-12T03:01:49.076Z</time>
      </trkpt>
      <trkpt lat="45.941906" lon="12.115091">
        <ele>256.167071</ele>
        <time>2023-09-12T03:01:54.393Z</time>
      </trkpt>
      <trkpt lat="45.942039" lon="12.115391">
        <ele>255.620711</ele>
        <time>2023-09-12T03:02:03.338Z</time>
      </trkpt>
      <trkpt lat="45.942073" lon="12.115447">
        <ele>255.506549</ele>
        <time>2023-09-12T03:02:04.994Z</time>
      </trkpt>
      <trkpt lat="45.942274" lon="12.115565">
        <ele>255.027107</ele>
        <time>2023-09-12T03:02:12.503Z</time>
      </trkpt>
      <trkpt lat="45.942406" lon="12.115977">
        <ele>254.330495</ele>
        <time>2023-09-12T03:02:21.973Z</time>
      </trkpt>
      <trkpt lat="45.942577" lon="12.116400">
        <ele>253.579127</ele>
        <time>2023-09-12T03:02:31.663Z</time>
      </trkpt>
      <trkpt lat="45.942952" lon="12.116979">
        <ele>252.030864</ele>
        <time>2023-09-12T03:02:46.882Z</time>
      </trkpt>
      <trkpt lat="45.942988" lon="12.117210">
        <ele>251.354592</ele>
        <time>2023-09-12T03:02:51.722Z</time>
      </trkpt>
      <trkpt lat="45.942957" lon="12.117809">
        <ele>249.638684</ele>
        <time>2023-09-12T03:03:03.505Z</time>
      </trkpt>
      <trkpt lat="45.942985" lon="12.117943">
        <ele>249.238974</ele>
        <time>2023-09-12T03:03:06.278Z</time>
      </trkpt>
      <trkpt lat="45.943199" lon="12.118151">
        <ele>248.177855</ele>
        <time>2023-09-12T03:03:13.681Z</time>
      </trkpt>
      <trkpt lat="45.943271" lon="12.118268">
        <ele>247.731533</ele>
        <time>2023-09-12T03:03:16.758Z</time>
      </trkpt>
      <trkpt lat="45.943363" lon="12.118555">
        <ele>246.828737</ele>
        <time>2023-09-12T03:03:23.006Z</time>
      </trkpt>
      <trkpt lat="45.943575" lon="12.118956">
        <ele>245.389718</ele>
        <time>2023-09-12T03:03:32.947Z</time>
      </trkpt>
      <trkpt lat="45.943602" lon="12.119071">
        <ele>244.926947</ele>
        <time>2023-09-12T03:03:35.366Z</time>
      </trkpt>
      <trkpt lat="45.943621" lon="12.119373">
        <ele>243.745878</ele>
        <time>2023-09-12T03:03:41.483Z</time>
      </trkpt>
      <trkpt lat="45.943673" lon="12.119544">
        <ele>243.018946</ele>
        <time>2023-09-12T03:03:45.132Z</time>
      </trkpt>
      <trkpt lat="45.943833" lon="12.119762">
        <ele>241.784392</ele>
        <time>2023-09-12T03:03:51.414Z</time>
      </trkpt>
      <trkpt lat="45.943897" lon="12.119909">
        <ele>241.108877</ele>
        <time>2023-09-12T03:03:54.730Z</time>
      </trkpt>
      <trkpt lat="45.944051" lon="12.120397">
        <ele>239.021596</ele>
        <time>2023-09-12T03:04:04.968Z</time>
      </trkpt>
      <trkpt lat="45.944107" lon="12.120680">
        <ele>237.875583</ele>
        <time>2023-09-12T03:04:10.466Z</time>
      </trkpt>
      <trkpt lat="45.944113" lon="12.120820">
        <ele>237.329266</ele>
        <time>2023-09-12T03:04:12.996Z</time>
      </trkpt>
      <trkpt lat="45.944097" lon="12.120896">
        <ele>237.019986</ele>
        <time>2023-09-12T03:04:14.438Z</time>
      </trkpt>
      <trkpt lat="45.943981" lon="12.121106">
        <ele>235.975396</ele>
        <time>2023-09-12T03:04:19.334Z</time>
      </trkpt>
      <trkpt lat="45.943814" lon="12.121342">
        <ele>233.928367</ele>
        <time>2023-09-12T03:04:25.310Z</time>
      </trkpt>
      <trkpt lat="45.943576" lon="12.121464">
        <ele>230.843903</ele>
        <time>2023-09-12T03:04:31.571Z</time>
      </trkpt>
      <trkpt lat="45.943576" lon="12.121464">
        <ele>230.843903</ele>
        <time>2023-09-12T03:04:31.580Z</time>
      </trkpt>
      <trkpt lat="45.943363" lon="12.121629">
        <ele>227.890439</ele>
        <time>2023-09-12T03:04:37.434Z</time>
      </trkpt>
      <trkpt lat="45.943065" lon="12.121996">
        <ele>223.100896</ele>
        <time>2023-09-12T03:04:46.705Z</time>
      </trkpt>
      <trkpt lat="45.943037" lon="12.122055">
        <ele>222.494531</ele>
        <time>2023-09-12T03:04:47.855Z</time>
      </trkpt>
      <trkpt lat="45.943028" lon="12.122183">
        <ele>221.402419</ele>
        <time>2023-09-12T03:04:49.954Z</time>
      </trkpt>
      <trkpt lat="45.943113" lon="12.122633">
        <ele>217.444022</ele>
        <time>2023-09-12T03:04:57.507Z</time>
      </trkpt>
      <trkpt lat="45.943002" lon="12.123420">
        <ele>210.356369</ele>
        <time>2023-09-12T03:05:04.750Z</time>
      </trkpt>
      <trkpt lat="45.942896" lon="12.123860">
        <ele>206.007333</ele>
        <time>2023-09-12T03:05:08.949Z</time>
      </trkpt>
      <trkpt lat="45.942661" lon="12.124267">
        <ele>201.066548</ele>
        <time>2023-09-12T03:05:13.735Z</time>
      </trkpt>
      <trkpt lat="45.941887" lon="12.124999">
        <ele>188.893361</ele>
        <time>2023-09-12T03:05:25.970Z</time>
      </trkpt>
      <trkpt lat="45.941843" lon="12.125132">
        <ele>188.192299</ele>
        <time>2023-09-12T03:05:27.375Z</time>
      </trkpt>
      <trkpt lat="45.941914" lon="12.125440">
        <ele>186.647786</ele>
        <time>2023-09-12T03:05:30.442Z</time>
      </trkpt>
      <trkpt lat="45.941713" lon="12.125462">
        <ele>185.267960</ele>
        <time>2023-09-12T03:05:33.410Z</time>
      </trkpt>
      <trkpt lat="45.941129" lon="12.125763">
        <ele>181.021474</ele>
        <time>2023-09-12T03:05:42.773Z</time>
      </trkpt>
      <trkpt lat="45.940887" lon="12.127216">
        <ele>175.891212</ele>
        <time>2023-09-12T03:06:13.035Z</time>
      </trkpt>
      <trkpt lat="45.940758" lon="12.127835">
        <ele>174.880365</ele>
        <time>2023-09-12T03:06:27.119Z</time>
      </trkpt>
      <trkpt lat="45.940648" lon="12.128009">
        <ele>174.512513</ele>
        <time>2023-09-12T03:06:32.249Z</time>
      </trkpt>
      <trkpt lat="45.940504" lon="12.128122">
        <ele>174.143494</ele>
        <time>2023-09-12T03:06:37.400Z</time>
      </trkpt>
      <trkpt lat="45.940381" lon="12.128136">
        <ele>173.865941</ele>
        <time>2023-09-12T03:06:39.746Z</time>
      </trkpt>
      <trkpt lat="45.940255" lon="12.128209">
        <ele>173.560366</ele>
        <time>2023-09-12T03:06:42.283Z</time>
      </trkpt>
      <trkpt lat="45.939919" lon="12.128579">
        <ele>172.700843</ele>
        <time>2023-09-12T03:06:50.520Z</time>
      </trkpt>
      <trkpt lat="45.939164" lon="12.129949">
        <ele>171.188979</ele>
        <time>2023-09-12T03:07:15.022Z</time>
      </trkpt>
      <trkpt lat="45.939091" lon="12.129852">
        <ele>171.065361</ele>
        <time>2023-09-12T03:07:16.912Z</time>
      </trkpt>
      <trkpt lat="45.939064" lon="12.130278">
        <ele>170.695385</ele>
        <time>2023-09-12T03:07:26.710Z</time>
      </trkpt>
      <trkpt lat="45.939025" lon="12.130347">
        <ele>170.618481</ele>
        <time>2023-09-12T03:07:28.735Z</time>
      </trkpt>
      <trkpt lat="45.937941" lon="12.130728">
        <ele>168.846956</ele>
        <time>2023-09-12T03:08:04.736Z</time>
      </trkpt>
      <trkpt lat="45.937612" lon="12.131077">
        <ele>168.193719</ele>
        <time>2023-09-12T03:08:17.742Z</time>
      </trkpt>
      <trkpt lat="45.937363" lon="12.131484">
        <ele>167.633129</ele>
        <time>2023-09-12T03:08:29.750Z</time>
      </trkpt>
      <trkpt lat="45.936974" lon="12.132221">
        <ele>166.985020</ele>
        <time>2023-09-12T03:08:50.822Z</time>
      </trkpt>
      <trkpt lat="45.936848" lon="12.132339">
        <ele>166.833563</ele>
        <time>2023-09-12T03:08:55.886Z</time>
      </trkpt>
      <trkpt lat="45.936770" lon="12.132295">
        <ele>166.749168</ele>
        <time>2023-09-12T03:08:58.745Z</time>
      </trkpt>
      <trkpt lat="45.936694" lon="12.132131">
        <ele>166.611119</ele>
        <time>2023-09-12T03:09:03.440Z</time>
      </trkpt>
      <trkpt lat="45.936583" lon="12.131783">
        <ele>166.342931</ele>
        <time>2023-09-12T03:09:12.767Z</time>
      </trkpt>
      <trkpt lat="45.936422" lon="12.130964">
        <ele>165.804715</ele>
        <time>2023-09-12T03:09:33.740Z</time>
      </trkpt>
      <trkpt lat="45.936240" lon="12.130290">
        <ele>165.499455</ele>
        <time>2023-09-12T03:09:51.745Z</time>
      </trkpt>
      <trkpt lat="45.936119" lon="12.130132">
        <ele>165.400228</ele>
        <time>2023-09-12T03:09:57.580Z</time>
      </trkpt>
      <trkpt lat="45.935954" lon="12.130079">
        <ele>165.297590</ele>
        <time>2023-09-12T03:10:03.588Z</time>
      </trkpt>
      <trkpt lat="45.935478" lon="12.130268">
        <ele>164.997803</ele>
        <time>2023-09-12T03:10:20.791Z</time>
      </trkpt>
      <trkpt lat="45.935158" lon="12.130445">
        <ele>164.780693</ele>
        <time>2023-09-12T03:10:32.445Z</time>
      </trkpt>
      <trkpt lat="45.934292" lon="12.131175">
        <ele>163.677900</ele>
        <time>2023-09-12T03:11:05.500Z</time>
      </trkpt>
      <trkpt lat="45.934138" lon="12.131304">
        <ele>163.482105</ele>
        <time>2023-09-12T03:11:11.323Z</time>
      </trkpt>
      <trkpt lat="45.933276" lon="12.132198">
        <ele>162.702159</ele>
        <time>2023-09-12T03:11:47.678Z</time>
      </trkpt>
      <trkpt lat="45.933061" lon="12.132527">
        <ele>162.619259</ele>
        <time>2023-09-12T03:11:58.653Z</time>
      </trkpt>
      <trkpt lat="45.932924" lon="12.132836">
        <ele>162.551967</ele>
        <time>2023-09-12T03:12:07.603Z</time>
      </trkpt>
      <trkpt lat="45.932716" lon="12.133642">
        <ele>162.394098</ele>
        <time>2023-09-12T03:12:28.353Z</time>
      </trkpt>
      <trkpt lat="45.932563" lon="12.134033">
        <ele>162.846473</ele>
        <time>2023-09-12T03:12:40.701Z</time>
      </trkpt>
      <trkpt lat="45.932444" lon="12.134194">
        <ele>163.407341</ele>
        <time>2023-09-12T03:12:47.788Z</time>
      </trkpt>
      <trkpt lat="45.931639" lon="12.135069">
        <ele>166.871228</ele>
        <time>2023-09-12T03:13:40.542Z</time>
      </trkpt>
      <trkpt lat="45.930681" lon="12.135987">
        <ele>170.077304</ele>
        <time>2023-09-12T03:14:47.420Z</time>
      </trkpt>
      <trkpt lat="45.930110" lon="12.136534">
        <ele>171.668682</ele>
        <time>2023-09-12T03:15:17.646Z</time>
      </trkpt>
      <trkpt lat="45.930135" lon="12.137775">
        <ele>172.230713</ele>
        <time>2023-09-12T03:15:34.871Z</time>
      </trkpt>
      <trkpt lat="45.930182" lon="12.138115">
        <ele>171.964536</ele>
        <time>2023-09-12T03:15:39.555Z</time>
      </trkpt>
      <trkpt lat="45.930300" lon="12.138338">
        <ele>171.749384</ele>
        <time>2023-09-12T03:15:42.778Z</time>
      </trkpt>
      <trkpt lat="45.930016" lon="12.139054">
        <ele>171.116482</ele>
        <time>2023-09-12T03:16:00.854Z</time>
      </trkpt>
      <trkpt lat="45.929855" lon="12.139564">
        <ele>170.787908</ele>
        <time>2023-09-12T03:16:14.132Z</time>
      </trkpt>
      <trkpt lat="45.929757" lon="12.139733">
        <ele>171.356401</ele>
        <time>2023-09-12T03:16:19.524Z</time>
      </trkpt>
      <trkpt lat="45.929547" lon="12.139599">
        <ele>172.209861</ele>
        <time>2023-09-12T03:16:28.183Z</time>
      </trkpt>
      <trkpt lat="45.929392" lon="12.139578">
        <ele>172.788187</ele>
        <time>2023-09-12T03:16:34.387Z</time>
      </trkpt>
      <trkpt lat="45.929220" lon="12.139913">
        <ele>173.864012</ele>
        <time>2023-09-12T03:16:49.702Z</time>
      </trkpt>
      <trkpt lat="45.929008" lon="12.140545">
        <ele>175.676911</ele>
        <time>2023-09-12T03:17:17.704Z</time>
      </trkpt>
      <trkpt lat="45.928927" lon="12.140861">
        <ele>176.547052</ele>
        <time>2023-09-12T03:17:33.180Z</time>
      </trkpt>
      <trkpt lat="45.928804" lon="12.141619">
        <ele>179.318290</ele>
        <time>2023-09-12T03:18:07.883Z</time>
      </trkpt>
      <trkpt lat="45.928629" lon="12.141721">
        <ele>180.476641</ele>
        <time>2023-09-12T03:18:19.211Z</time>
      </trkpt>
      <trkpt lat="45.928197" lon="12.142613">
        <ele>185.114231</ele>
        <time>2023-09-12T03:19:11.873Z</time>
      </trkpt>
      <trkpt lat="45.927840" lon="12.143635">
        <ele>187.719649</ele>
        <time>2023-09-12T03:20:07.193Z</time>
      </trkpt>
      <trkpt lat="45.927532" lon="12.144645">
        <ele>185.607015</ele>
        <time>2023-09-12T03:21:00.518Z</time>
      </trkpt>
      <trkpt lat="45.927532" lon="12.144645">
        <ele>185.607015</ele>
        <time>2023-09-12T03:21:00.521Z</time>
      </trkpt>
      <trkpt lat="45.927718" lon="12.146401">
        <ele>179.631354</ele>
        <time>2023-09-12T03:22:26.568Z</time>
      </trkpt>
      <trkpt lat="45.927577" lon="12.146924">
        <ele>176.373572</ele>
        <time>2023-09-12T03:22:36.086Z</time>
      </trkpt>
      <trkpt lat="45.927442" lon="12.147327">
        <ele>173.775633</ele>
        <time>2023-09-12T03:22:43.711Z</time>
      </trkpt>
      <trkpt lat="45.927381" lon="12.147761">
        <ele>171.203995</ele>
        <time>2023-09-12T03:22:51.462Z</time>
      </trkpt>
      <trkpt lat="45.927266" lon="12.147998">
        <ele>169.525643</ele>
        <time>2023-09-12T03:22:56.629Z</time>
      </trkpt>
      <trkpt lat="45.927188" lon="12.148239">
        <ele>168.179644</ele>
        <time>2023-09-12T03:23:01.464Z</time>
      </trkpt>
      <trkpt lat="45.927040" lon="12.148394">
        <ele>167.294287</ele>
        <time>2023-09-12T03:23:06.412Z</time>
      </trkpt>
      <trkpt lat="45.926969" lon="12.148602">
        <ele>166.515035</ele>
        <time>2023-09-12T03:23:10.797Z</time>
      </trkpt>
      <trkpt lat="45.926892" lon="12.148981">
        <ele>165.187102</ele>
        <time>2023-09-12T03:23:18.263Z</time>
      </trkpt>
      <trkpt lat="45.926611" lon="12.149294">
        <ele>163.468314</ele>
        <time>2023-09-12T03:23:28.007Z</time>
      </trkpt>
      <trkpt lat="45.926450" lon="12.149567">
        <ele>162.264545</ele>
        <time>2023-09-12T03:23:34.989Z</time>
      </trkpt>
      <trkpt lat="45.926349" lon="12.149945">
        <ele>160.902652</ele>
        <time>2023-09-12T03:23:43.015Z</time>
      </trkpt>
      <trkpt lat="45.926067" lon="12.150311">
        <ele>159.570500</ele>
        <time>2023-09-12T03:23:54.286Z</time>
      </trkpt>
      <trkpt lat="45.925838" lon="12.150537">
        <ele>159.211032</ele>
        <time>2023-09-12T03:24:02.803Z</time>
      </trkpt>
      <trkpt lat="45.925624" lon="12.150654">
        <ele>158.914734</ele>
        <time>2023-09-12T03:24:09.981Z</time>
      </trkpt>
      <trkpt lat="45.925366" lon="12.150684">
        <ele>158.579755</ele>
        <time>2023-09-12T03:24:18.628Z</time>
      </trkpt>
      <trkpt lat="45.925075" lon="12.150806">
        <ele>158.187473</ele>
        <time>2023-09-12T03:24:29.228Z</time>
      </trkpt>
      <trkpt lat="45.924278" lon="12.151484">
        <ele>157.062076</ele>
        <time>2023-09-12T03:25:04.066Z</time>
      </trkpt>
      <trkpt lat="45.923786" lon="12.151845">
        <ele>156.466424</ele>
        <time>2023-09-12T03:25:23.438Z</time>
      </trkpt>
      <trkpt lat="45.923088" lon="12.152190">
        <ele>155.670496</ele>
        <time>2023-09-12T03:25:47.140Z</time>
      </trkpt>
      <trkpt lat="45.922758" lon="12.152640">
        <ele>154.777365</ele>
        <time>2023-09-12T03:26:01.356Z</time>
      </trkpt>
      <trkpt lat="45.922560" lon="12.152794">
        <ele>154.216976</ele>
        <time>2023-09-12T03:26:08.191Z</time>
      </trkpt>
      <trkpt lat="45.922065" lon="12.152882">
        <ele>152.975403</ele>
        <time>2023-09-12T03:26:16.426Z</time>
      </trkpt>
      <trkpt lat="45.921884" lon="12.152951">
        <ele>152.509273</ele>
        <time>2023-09-12T03:26:19.448Z</time>
      </trkpt>
      <trkpt lat="45.920581" lon="12.153451">
        <ele>150.883980</ele>
        <time>2023-09-12T03:26:42.729Z</time>
      </trkpt>
      <trkpt lat="45.920144" lon="12.153717">
        <ele>150.803581</ele>
        <time>2023-09-12T03:26:53.838Z</time>
      </trkpt>
      <trkpt lat="45.919685" lon="12.153942">
        <ele>150.721421</ele>
        <time>2023-09-12T03:27:07.431Z</time>
      </trkpt>
      <trkpt lat="45.919526" lon="12.153975">
        <ele>151.032988</ele>
        <time>2023-09-12T03:27:12.391Z</time>
      </trkpt>
      <trkpt lat="45.919432" lon="12.153962">
        <ele>151.487232</ele>
        <time>2023-09-12T03:27:15.590Z</time>
      </trkpt>
      <trkpt lat="45.919545" lon="12.153648">
        <ele>152.670233</ele>
        <time>2023-09-12T03:27:23.938Z</time>
      </trkpt>
      <trkpt lat="45.919777" lon="12.153053">
        <ele>154.952686</ele>
        <time>2023-09-12T03:27:43.456Z</time>
      </trkpt>
      <trkpt lat="45.920392" lon="12.151828">
        <ele>160.267883</ele>
        <time>2023-09-12T03:28:35.296Z</time>
      </trkpt>
      <trkpt lat="45.920712" lon="12.150973">
        <ele>164.815914</ele>
        <time>2023-09-12T03:29:13.867Z</time>
      </trkpt>
      <trkpt lat="45.920855" lon="12.150431">
        <ele>167.531323</ele>
        <time>2023-09-12T03:29:36.393Z</time>
      </trkpt>
      <trkpt lat="45.920958" lon="12.149919">
        <ele>170.027996</ele>
        <time>2023-09-12T03:29:55.183Z</time>
      </trkpt>
      <trkpt lat="45.921016" lon="12.149477">
        <ele>171.961070</ele>
        <time>2023-09-12T03:30:09.090Z</time>
      </trkpt>
      <trkpt lat="45.921041" lon="12.149063">
        <ele>173.399138</ele>
        <time>2023-09-12T03:30:20.664Z</time>
      </trkpt>
      <trkpt lat="45.921020" lon="12.148327">
        <ele>175.948266</ele>
        <time>2023-09-12T03:30:40.359Z</time>
      </trkpt>
      <trkpt lat="45.921059" lon="12.147921">
        <ele>177.366593</ele>
        <time>2023-09-12T03:30:52.608Z</time>
      </trkpt>
      <trkpt lat="45.921340" lon="12.147458">
        <ele>179.492906</ele>
        <time>2023-09-12T03:31:12.904Z</time>
      </trkpt>
      <trkpt lat="45.921523" lon="12.147081">
        <ele>181.322345</ele>
        <time>2023-09-12T03:31:29.410Z</time>
      </trkpt>
      <trkpt lat="45.921569" lon="12.146862">
        <ele>182.397186</ele>
        <time>2023-09-12T03:31:37.999Z</time>
      </trkpt>
      <trkpt lat="45.921514" lon="12.146458">
        <ele>184.331364</ele>
        <time>2023-09-12T03:31:52.462Z</time>
      </trkpt>
      <trkpt lat="45.921509" lon="12.146125">
        <ele>185.896310</ele>
        <time>2023-09-12T03:32:03.768Z</time>
      </trkpt>
      <trkpt lat="45.921561" lon="12.145769">
        <ele>187.605430</ele>
        <time>2023-09-12T03:32:16.235Z</time>
      </trkpt>
      <trkpt lat="45.921519" lon="12.145432">
        <ele>189.214015</ele>
        <time>2023-09-12T03:32:28.430Z</time>
      </trkpt>
      <trkpt lat="45.921352" lon="12.144843">
        <ele>192.202437</ele>
        <time>2023-09-12T03:32:53.319Z</time>
      </trkpt>
      <trkpt lat="45.921348" lon="12.144660">
        <ele>192.917143</ele>
        <time>2023-09-12T03:33:00.756Z</time>
      </trkpt>
      <trkpt lat="45.921444" lon="12.143818">
        <ele>195.753734</ele>
        <time>2023-09-12T03:33:33.186Z</time>
      </trkpt>
      <trkpt lat="45.921389" lon="12.143071">
        <ele>198.251018</ele>
        <time>2023-09-12T03:33:55.197Z</time>
      </trkpt>
      <trkpt lat="45.921273" lon="12.142195">
        <ele>201.186555</ele>
        <time>2023-09-12T03:34:15.486Z</time>
      </trkpt>
      <trkpt lat="45.921291" lon="12.141774">
        <ele>201.845915</ele>
        <time>2023-09-12T03:34:25.421Z</time>
      </trkpt>
      <trkpt lat="45.921179" lon="12.141369">
        <ele>202.527214</ele>
        <time>2023-09-12T03:34:36.069Z</time>
      </trkpt>
      <trkpt lat="45.921045" lon="12.141085">
        <ele>203.063657</ele>
        <time>2023-09-12T03:34:43.823Z</time>
      </trkpt>
      <trkpt lat="45.920986" lon="12.140832">
        <ele>203.480786</ele>
        <time>2023-09-12T03:34:49.965Z</time>
      </trkpt>
      <trkpt lat="45.920973" lon="12.140392">
        <ele>204.169229</ele>
        <time>2023-09-12T03:34:59.393Z</time>
      </trkpt>
      <trkpt lat="45.920900" lon="12.139870">
        <ele>205.001564</ele>
        <time>2023-09-12T03:35:10.749Z</time>
      </trkpt>
      <trkpt lat="45.920670" lon="12.138599">
        <ele>210.287581</ele>
        <time>2023-09-12T03:35:46.398Z</time>
      </trkpt>
      <trkpt lat="45.920625" lon="12.138440">
        <ele>211.024369</ele>
        <time>2023-09-12T03:35:52.296Z</time>
      </trkpt>
      <trkpt lat="45.920404" lon="12.137458">
        <ele>215.454459</ele>
        <time>2023-09-12T03:36:33.815Z</time>
      </trkpt>
      <trkpt lat="45.920335" lon="12.137261">
        <ele>216.459958</ele>
        <time>2023-09-12T03:36:44.127Z</time>
      </trkpt>
      <trkpt lat="45.920131" lon="12.137083">
        <ele>218.791805</ele>
        <time>2023-09-12T03:36:59.668Z</time>
      </trkpt>
      <trkpt lat="45.919854" lon="12.136899">
        <ele>221.773495</ele>
        <time>2023-09-12T03:37:21.073Z</time>
      </trkpt>
      <trkpt lat="45.919490" lon="12.136387">
        <ele>226.749819</ele>
        <time>2023-09-12T03:37:57.257Z</time>
      </trkpt>
      <trkpt lat="45.919251" lon="12.135865">
        <ele>230.997749</ele>
        <time>2023-09-12T03:38:25.762Z</time>
      </trkpt>
      <trkpt lat="45.919137" lon="12.135338">
        <ele>234.478130</ele>
        <time>2023-09-12T03:38:47.479Z</time>
      </trkpt>
      <trkpt lat="45.919123" lon="12.135045">
        <ele>235.854825</ele>
        <time>2023-09-12T03:38:57.107Z</time>
      </trkpt>
      <trkpt lat="45.919160" lon="12.134736">
        <ele>237.324585</ele>
        <time>2023-09-12T03:39:07.193Z</time>
      </trkpt>
      <trkpt lat="45.919294" lon="12.134100">
        <ele>240.439607</ele>
        <time>2023-09-12T03:39:28.815Z</time>
      </trkpt>
      <trkpt lat="45.919388" lon="12.133761">
        <ele>242.150269</ele>
        <time>2023-09-12T03:39:40.862Z</time>
      </trkpt>
      <trkpt lat="45.919648" lon="12.133146">
        <ele>245.523696</ele>
        <time>2023-09-12T03:40:06.555Z</time>
      </trkpt>
      <trkpt lat="45.919745" lon="12.132979">
        <ele>246.980874</ele>
        <time>2023-09-12T03:40:14.684Z</time>
      </trkpt>
      <trkpt lat="45.919814" lon="12.132767">
        <ele>248.953313</ele>
        <time>2023-09-12T03:40:24.583Z</time>
      </trkpt>
      <trkpt lat="45.919873" lon="12.132566">
        <ele>250.791801</ele>
        <time>2023-09-12T03:40:33.572Z</time>
      </trkpt>
      <trkpt lat="45.919863" lon="12.132469">
        <ele>251.618170</ele>
        <time>2023-09-12T03:40:37.734Z</time>
      </trkpt>
      <trkpt lat="45.919783" lon="12.132404">
        <ele>252.731380</ele>
        <time>2023-09-12T03:40:44.115Z</time>
      </trkpt>
      <trkpt lat="45.919745" lon="12.132411">
        <ele>253.195474</ele>
        <time>2023-09-12T03:40:46.802Z</time>
      </trkpt>
      <trkpt lat="45.919608" lon="12.132563">
        <ele>255.291928</ele>
        <time>2023-09-12T03:40:58.832Z</time>
      </trkpt>
      <trkpt lat="45.919527" lon="12.132578">
        <ele>256.281267</ele>
        <time>2023-09-12T03:41:05.032Z</time>
      </trkpt>
      <trkpt lat="45.919457" lon="12.132521">
        <ele>257.255846</ele>
        <time>2023-09-12T03:41:11.663Z</time>
      </trkpt>
      <trkpt lat="45.919438" lon="12.132307">
        <ele>259.073915</ele>
        <time>2023-09-12T03:41:23.959Z</time>
      </trkpt>
      <trkpt lat="45.919533" lon="12.132176">
        <ele>260.668643</ele>
        <time>2023-09-12T03:41:35.300Z</time>
      </trkpt>
      <trkpt lat="45.919683" lon="12.132063">
        <ele>262.720145</ele>
        <time>2023-09-12T03:41:50.556Z</time>
      </trkpt>
      <trkpt lat="45.919703" lon="12.132001">
        <ele>263.296074</ele>
        <time>2023-09-12T03:41:54.861Z</time>
      </trkpt>
      <trkpt lat="45.919685" lon="12.131665">
        <ele>266.136015</ele>
        <time>2023-09-12T03:42:16.666Z</time>
      </trkpt>
      <trkpt lat="45.919637" lon="12.131423">
        <ele>268.197138</ele>
        <time>2023-09-12T03:42:31.897Z</time>
      </trkpt>
      <trkpt lat="45.919390" lon="12.131249">
        <ele>271.109543</ele>
        <time>2023-09-12T03:42:53.997Z</time>
      </trkpt>
      <trkpt lat="45.919362" lon="12.131120">
        <ele>272.104904</ele>
        <time>2023-09-12T03:43:00.179Z</time>
      </trkpt>
      <trkpt lat="45.919387" lon="12.130752">
        <ele>274.828403</ele>
        <time>2023-09-12T03:43:15.113Z</time>
      </trkpt>
      <trkpt lat="45.919231" lon="12.130431">
        <ele>277.712617</ele>
        <time>2023-09-12T03:43:28.942Z</time>
      </trkpt>
      <trkpt lat="45.919174" lon="12.130240">
        <ele>279.243470</ele>
        <time>2023-09-12T03:43:37.208Z</time>
      </trkpt>
      <trkpt lat="45.919112" lon="12.130200">
        <ele>279.963015</ele>
        <time>2023-09-12T03:43:40.575Z</time>
      </trkpt>
      <trkpt lat="45.919049" lon="12.130217">
        <ele>280.641712</ele>
        <time>2023-09-12T03:43:44.182Z</time>
      </trkpt>
      <trkpt lat="45.918962" lon="12.130432">
        <ele>282.473785</ele>
        <time>2023-09-12T03:43:56.086Z</time>
      </trkpt>
      <trkpt lat="45.918943" lon="12.130647">
        <ele>284.070165</ele>
        <time>2023-09-12T03:44:04.721Z</time>
      </trkpt>
      <trkpt lat="45.918971" lon="12.130974">
        <ele>286.496968</ele>
        <time>2023-09-12T03:44:21.522Z</time>
      </trkpt>
      <trkpt lat="45.919018" lon="12.131149">
        <ele>288.215226</ele>
        <time>2023-09-12T03:44:29.844Z</time>
      </trkpt>
      <trkpt lat="45.919058" lon="12.131482">
        <ele>291.501557</ele>
        <time>2023-09-12T03:44:48.589Z</time>
      </trkpt>
      <trkpt lat="45.919054" lon="12.131596">
        <ele>292.611611</ele>
        <time>2023-09-12T03:44:53.884Z</time>
      </trkpt>
      <trkpt lat="45.919024" lon="12.131666">
        <ele>293.411169</ele>
        <time>2023-09-12T03:44:57.768Z</time>
      </trkpt>
      <trkpt lat="45.918974" lon="12.131655">
        <ele>294.118267</ele>
        <time>2023-09-12T03:45:01.814Z</time>
      </trkpt>
      <trkpt lat="45.918871" lon="12.131324">
        <ele>297.644588</ele>
        <time>2023-09-12T03:45:21.731Z</time>
      </trkpt>
      <trkpt lat="45.918670" lon="12.131025">
        <ele>301.688129</ele>
        <time>2023-09-12T03:45:45.172Z</time>
      </trkpt>
      <trkpt lat="45.918632" lon="12.130918">
        <ele>302.856455</ele>
        <time>2023-09-12T03:45:51.329Z</time>
      </trkpt>
      <trkpt lat="45.918612" lon="12.130697">
        <ele>305.023796</ele>
        <time>2023-09-12T03:46:04.522Z</time>
      </trkpt>
      <trkpt lat="45.918631" lon="12.130082">
        <ele>311.010584</ele>
        <time>2023-09-12T03:46:42.034Z</time>
      </trkpt>
      <trkpt lat="45.918667" lon="12.129785">
        <ele>313.480202</ele>
        <time>2023-09-12T03:47:01.750Z</time>
      </trkpt>
      <trkpt lat="45.918600" lon="12.129432">
        <ele>316.204040</ele>
        <time>2023-09-12T03:47:29.215Z</time>
      </trkpt>
      <trkpt lat="45.918587" lon="12.128696">
        <ele>321.684720</ele>
        <time>2023-09-12T03:48:14.357Z</time>
      </trkpt>
      <trkpt lat="45.918587" lon="12.128696">
        <ele>321.684720</ele>
        <time>2023-09-12T03:48:14.359Z</time>
      </trkpt>
      <trkpt lat="45.918641" lon="12.128434">
        <ele>323.718890</ele>
        <time>2023-09-12T03:48:27.518Z</time>
      </trkpt>
      <trkpt lat="45.918775" lon="12.127989">
        <ele>327.328553</ele>
        <time>2023-09-12T03:48:45.079Z</time>
      </trkpt>
      <trkpt lat="45.918710" lon="12.128058">
        <ele>328.193195</ele>
        <time>2023-09-12T03:48:48.687Z</time>
      </trkpt>
      <trkpt lat="45.918475" lon="12.128542">
        <ele>330.386517</ele>
        <time>2023-09-12T03:49:03.287Z</time>
      </trkpt>
      <trkpt lat="45.918380" lon="12.128841">
        <ele>328.899882</ele>
        <time>2023-09-12T03:49:09.571Z</time>
      </trkpt>
      <trkpt lat="45.918334" lon="12.129167">
        <ele>327.395468</ele>
        <time>2023-09-12T03:49:14.833Z</time>
      </trkpt>
      <trkpt lat="45.918149" lon="12.129451">
        <ele>325.635847</ele>
        <time>2023-09-12T03:49:20.356Z</time>
      </trkpt>
      <trkpt lat="45.918149" lon="12.129452">
        <ele>325.631324</ele>
        <time>2023-09-12T03:49:20.367Z</time>
      </trkpt>
      <trkpt lat="45.918078" lon="12.129666">
        <ele>324.559038</ele>
        <time>2023-09-12T03:49:23.577Z</time>
      </trkpt>
      <trkpt lat="45.918054" lon="12.129938">
        <ele>323.319010</ele>
        <time>2023-09-12T03:49:27.193Z</time>
      </trkpt>
      <trkpt lat="45.918000" lon="12.129975">
        <ele>322.930109</ele>
        <time>2023-09-12T03:49:28.307Z</time>
      </trkpt>
      <trkpt lat="45.917971" lon="12.129982">
        <ele>322.738939</ele>
        <time>2023-09-12T03:49:29.050Z</time>
      </trkpt>
      <trkpt lat="45.917785" lon="12.129813">
        <ele>321.308425</ele>
        <time>2023-09-12T03:49:34.295Z</time>
      </trkpt>
      <trkpt lat="45.917575" lon="12.129672">
        <ele>319.801608</ele>
        <time>2023-09-12T03:49:39.721Z</time>
      </trkpt>
      <trkpt lat="45.917431" lon="12.129421">
        <ele>317.587927</ele>
        <time>2023-09-12T03:49:44.970Z</time>
      </trkpt>
      <trkpt lat="45.917351" lon="12.129427">
        <ele>316.743612</ele>
        <time>2023-09-12T03:49:46.839Z</time>
      </trkpt>
      <trkpt lat="45.917327" lon="12.129425">
        <ele>316.490237</ele>
        <time>2023-09-12T03:49:47.411Z</time>
      </trkpt>
      <trkpt lat="45.917215" lon="12.129425">
        <ele>315.309801</ele>
        <time>2023-09-12T03:49:49.985Z</time>
      </trkpt>
      <trkpt lat="45.917134" lon="12.129310">
        <ele>314.109867</ele>
        <time>2023-09-12T03:49:52.641Z</time>
      </trkpt>
      <trkpt lat="45.916980" lon="12.128727">
        <ele>309.537315</ele>
        <time>2023-09-12T03:50:02.889Z</time>
      </trkpt>
      <trkpt lat="45.916908" lon="12.128689">
        <ele>308.728928</ele>
        <time>2023-09-12T03:50:04.742Z</time>
      </trkpt>
      <trkpt lat="45.916830" lon="12.128880">
        <ele>307.104980</ele>
        <time>2023-09-12T03:50:08.473Z</time>
      </trkpt>
      <trkpt lat="45.916736" lon="12.129053">
        <ele>305.495431</ele>
        <time>2023-09-12T03:50:12.193Z</time>
      </trkpt>
      <trkpt lat="45.916595" lon="12.129155">
        <ele>303.831756</ele>
        <time>2023-09-12T03:50:16.086Z</time>
      </trkpt>
      <trkpt lat="45.916561" lon="12.129218">
        <ele>303.247115</ele>
        <time>2023-09-12T03:50:17.520Z</time>
      </trkpt>
      <trkpt lat="45.916494" lon="12.129738">
        <ele>300.894920</ele>
        <time>2023-09-12T03:50:27.071Z</time>
      </trkpt>
      <trkpt lat="45.916034" lon="12.130812">
        <ele>303.416721</ele>
        <time>2023-09-12T03:51:01.005Z</time>
      </trkpt>
      <trkpt lat="45.915927" lon="12.130884">
        <ele>303.756275</ele>
        <time>2023-09-12T03:51:09.101Z</time>
      </trkpt>
      <trkpt lat="45.915864" lon="12.130887">
        <ele>303.937439</ele>
        <time>2023-09-12T03:51:13.344Z</time>
      </trkpt>
      <trkpt lat="45.915689" lon="12.132332">
        <ele>308.005741</ele>
        <time>2023-09-12T03:52:30.186Z</time>
      </trkpt>
      <trkpt lat="45.915570" lon="12.132784">
        <ele>309.940796</ele>
        <time>2023-09-12T03:52:52.276Z</time>
      </trkpt>
      <trkpt lat="45.915588" lon="12.132919">
        <ele>310.491172</ele>
        <time>2023-09-12T03:52:58.393Z</time>
      </trkpt>
      <trkpt lat="45.915741" lon="12.133077">
        <ele>311.575415</ele>
        <time>2023-09-12T03:53:09.335Z</time>
      </trkpt>
      <trkpt lat="45.915721" lon="12.133342">
        <ele>312.642696</ele>
        <time>2023-09-12T03:53:19.502Z</time>
      </trkpt>
      <trkpt lat="45.915807" lon="12.133736">
        <ele>314.296085</ele>
        <time>2023-09-12T03:53:33.794Z</time>
      </trkpt>
      <trkpt lat="45.915850" lon="12.133775">
        <ele>314.588707</ele>
        <time>2023-09-12T03:53:36.178Z</time>
      </trkpt>
      <trkpt lat="45.915929" lon="12.133749">
        <ele>315.055134</ele>
        <time>2023-09-12T03:53:39.622Z</time>
      </trkpt>
      <trkpt lat="45.916006" lon="12.133781">
        <ele>315.516435</ele>
        <time>2023-09-12T03:53:43.225Z</time>
      </trkpt>
      <trkpt lat="45.916050" lon="12.133987">
        <ele>316.349763</ele>
        <time>2023-09-12T03:53:50.820Z</time>
      </trkpt>
      <trkpt lat="45.916278" lon="12.134237">
        <ele>317.832493</ele>
        <time>2023-09-12T03:54:03.838Z</time>
      </trkpt>
      <trkpt lat="45.916419" lon="12.134490">
        <ele>318.998580</ele>
        <time>2023-09-12T03:54:14.868Z</time>
      </trkpt>
      <trkpt lat="45.916525" lon="12.135157">
        <ele>321.459692</ele>
        <time>2023-09-12T03:54:39.534Z</time>
      </trkpt>
      <trkpt lat="45.916395" lon="12.135621">
        <ele>323.259040</ele>
        <time>2023-09-12T03:55:00.178Z</time>
      </trkpt>
      <trkpt lat="45.916063" lon="12.136311">
        <ele>327.080680</ele>
        <time>2023-09-12T03:55:41.700Z</time>
      </trkpt>
      <trkpt lat="45.916025" lon="12.136764">
        <ele>330.207806</ele>
        <time>2023-09-12T03:56:07.687Z</time>
      </trkpt>
      <trkpt lat="45.916127" lon="12.137174">
        <ele>333.191995</ele>
        <time>2023-09-12T03:56:33.269Z</time>
      </trkpt>
      <trkpt lat="45.916409" lon="12.137844">
        <ele>338.558764</ele>
        <time>2023-09-12T03:57:19.025Z</time>
      </trkpt>
      <trkpt lat="45.917002" lon="12.139509">
        <ele>347.154890</ele>
        <time>2023-09-12T03:58:48.143Z</time>
      </trkpt>
      <trkpt lat="45.917003" lon="12.140037">
        <ele>348.925730</ele>
        <time>2023-09-12T03:59:07.895Z</time>
      </trkpt>
      <trkpt lat="45.917027" lon="12.140128">
        <ele>349.252125</ele>
        <time>2023-09-12T03:59:11.242Z</time>
      </trkpt>
      <trkpt lat="45.917069" lon="12.140215">
        <ele>349.607279</ele>
        <time>2023-09-12T03:59:14.807Z</time>
      </trkpt>
      <trkpt lat="45.917257" lon="12.140374">
        <ele>350.658838</ele>
        <time>2023-09-12T03:59:24.840Z</time>
      </trkpt>
      <trkpt lat="45.917323" lon="12.140499">
        <ele>351.185135</ele>
        <time>2023-09-12T03:59:29.563Z</time>
      </trkpt>
      <trkpt lat="45.917334" lon="12.140709">
        <ele>351.663128</ele>
        <time>2023-09-12T03:59:35.519Z</time>
      </trkpt>
      <trkpt lat="45.917578" lon="12.141241">
        <ele>349.481496</ele>
        <time>2023-09-12T03:59:50.313Z</time>
      </trkpt>
      <trkpt lat="45.917586" lon="12.141400">
        <ele>348.935702</ele>
        <time>2023-09-12T03:59:53.697Z</time>
      </trkpt>
      <trkpt lat="45.917530" lon="12.141763">
        <ele>347.662699</ele>
        <time>2023-09-12T04:00:01.195Z</time>
      </trkpt>
      <trkpt lat="45.917334" lon="12.142610">
        <ele>344.606581</ele>
        <time>2023-09-12T04:00:17.667Z</time>
      </trkpt>
      <trkpt lat="45.917156" lon="12.143133">
        <ele>341.965069</ele>
        <time>2023-09-12T04:00:27.723Z</time>
      </trkpt>
      <trkpt lat="45.916833" lon="12.143753">
        <ele>333.832252</ele>
        <time>2023-09-12T04:00:40.456Z</time>
      </trkpt>
      <trkpt lat="45.916680" lon="12.143993">
        <ele>330.414307</ele>
        <time>2023-09-12T04:00:45.757Z</time>
      </trkpt>
      <trkpt lat="45.916372" lon="12.144152">
        <ele>325.475133</ele>
        <time>2023-09-12T04:00:53.318Z</time>
      </trkpt>
      <trkpt lat="45.916157" lon="12.144415">
        <ele>321.214266</ele>
        <time>2023-09-12T04:00:59.704Z</time>
      </trkpt>
      <trkpt lat="45.916055" lon="12.144636">
        <ele>318.429571</ele>
        <time>2023-09-12T04:01:03.880Z</time>
      </trkpt>
      <trkpt lat="45.916063" lon="12.144911">
        <ele>315.450594</ele>
        <time>2023-09-12T04:01:08.159Z</time>
      </trkpt>
      <trkpt lat="45.916135" lon="12.145164">
        <ele>311.522332</ele>
        <time>2023-09-12T04:01:12.432Z</time>
      </trkpt>
      <trkpt lat="45.916241" lon="12.145527">
        <ele>305.864821</ele>
        <time>2023-09-12T04:01:18.539Z</time>
      </trkpt>
      <trkpt lat="45.916214" lon="12.145450">
        <ele>304.625660</ele>
        <time>2023-09-12T04:01:19.298Z</time>
      </trkpt>
      <trkpt lat="45.916168" lon="12.145376">
        <ele>303.199552</ele>
        <time>2023-09-12T04:01:20.176Z</time>
      </trkpt>
      <trkpt lat="45.916015" lon="12.145249">
        <ele>299.549988</ele>
        <time>2023-09-12T04:01:22.408Z</time>
      </trkpt>
      <trkpt lat="45.915595" lon="12.145143">
        <ele>290.741576</ele>
        <time>2023-09-12T04:01:27.796Z</time>
      </trkpt>
      <trkpt lat="45.915550" lon="12.145159">
        <ele>289.784021</ele>
        <time>2023-09-12T04:01:28.385Z</time>
      </trkpt>
      <trkpt lat="45.915691" lon="12.145805">
        <ele>280.054191</ele>
        <time>2023-09-12T04:01:34.339Z</time>
      </trkpt>
      <trkpt lat="45.915871" lon="12.146797">
        <ele>267.298687</ele>
        <time>2023-09-12T04:01:43.398Z</time>
      </trkpt>
      <trkpt lat="45.916153" lon="12.149674">
        <ele>233.347491</ele>
        <time>2023-09-12T04:02:09.495Z</time>
      </trkpt>
      <trkpt lat="45.916149" lon="12.149831">
        <ele>231.626675</ele>
        <time>2023-09-12T04:02:10.921Z</time>
      </trkpt>
      <trkpt lat="45.916124" lon="12.150075">
        <ele>228.925250</ele>
        <time>2023-09-12T04:02:13.145Z</time>
      </trkpt>
      <trkpt lat="45.916109" lon="12.151040">
        <ele>218.380159</ele>
        <time>2023-09-12T04:02:21.837Z</time>
      </trkpt>
      <trkpt lat="45.916184" lon="12.151534">
        <ele>213.310280</ele>
        <time>2023-09-12T04:02:26.364Z</time>
      </trkpt>
      <trkpt lat="45.916186" lon="12.152337">
        <ele>205.258604</ele>
        <time>2023-09-12T04:02:33.610Z</time>
      </trkpt>
      <trkpt lat="45.916109" lon="12.152474">
        <ele>203.492648</ele>
        <time>2023-09-12T04:02:35.193Z</time>
      </trkpt>
      <trkpt lat="45.915927" lon="12.152696">
        <ele>200.052365</ele>
        <time>2023-09-12T04:02:38.328Z</time>
      </trkpt>
      <trkpt lat="45.915729" lon="12.152804">
        <ele>197.000123</ele>
        <time>2023-09-12T04:02:41.074Z</time>
      </trkpt>
      <trkpt lat="45.915610" lon="12.153002">
        <ele>194.376548</ele>
        <time>2023-09-12T04:02:43.486Z</time>
      </trkpt>
      <trkpt lat="45.915587" lon="12.153171">
        <ele>192.697422</ele>
        <time>2023-09-12T04:02:45.047Z</time>
      </trkpt>
      <trkpt lat="45.915690" lon="12.153692">
        <ele>189.738311</ele>
        <time>2023-09-12T04:02:50.116Z</time>
      </trkpt>
      <trkpt lat="45.915712" lon="12.153913">
        <ele>188.518608</ele>
        <time>2023-09-12T04:02:52.319Z</time>
      </trkpt>
      <trkpt lat="45.915571" lon="12.154066">
        <ele>187.131259</ele>
        <time>2023-09-12T04:02:54.753Z</time>
      </trkpt>
      <trkpt lat="45.915183" lon="12.154280">
        <ele>183.867725</ele>
        <time>2023-09-12T04:03:00.888Z</time>
      </trkpt>
      <trkpt lat="45.914935" lon="12.154216">
        <ele>181.889072</ele>
        <time>2023-09-12T04:03:04.671Z</time>
      </trkpt>
      <trkpt lat="45.915031" lon="12.154659">
        <ele>179.354076</ele>
        <time>2023-09-12T04:03:09.535Z</time>
      </trkpt>
      <trkpt lat="45.915131" lon="12.154697">
        <ele>178.561916</ele>
        <time>2023-09-12T04:03:11.063Z</time>
      </trkpt>
      <trkpt lat="45.915186" lon="12.154861">
        <ele>177.794451</ele>
        <time>2023-09-12T04:03:13.017Z</time>
      </trkpt>
      <trkpt lat="45.915210" lon="12.155374">
        <ele>175.627034</ele>
        <time>2023-09-12T04:03:18.057Z</time>
      </trkpt>
      <trkpt lat="45.915207" lon="12.155408">
        <ele>175.482560</ele>
        <time>2023-09-12T04:03:18.426Z</time>
      </trkpt>
      <trkpt lat="45.915251" lon="12.155617">
        <ele>174.562075</ele>
        <time>2023-09-12T04:03:20.732Z</time>
      </trkpt>
      <trkpt lat="45.915380" lon="12.155721">
        <ele>173.665894</ele>
        <time>2023-09-12T04:03:23.229Z</time>
      </trkpt>
      <trkpt lat="45.915585" lon="12.156258">
        <ele>171.083809</ele>
        <time>2023-09-12T04:03:30.172Z</time>
      </trkpt>
      <trkpt lat="45.915951" lon="12.156661">
        <ele>168.290266</ele>
        <time>2023-09-12T04:03:37.974Z</time>
      </trkpt>
      <trkpt lat="45.916137" lon="12.156827">
        <ele>167.421457</ele>
        <time>2023-09-12T04:03:41.991Z</time>
      </trkpt>
      <trkpt lat="45.916188" lon="12.157038">
        <ele>167.041127</ele>
        <time>2023-09-12T04:03:44.591Z</time>
      </trkpt>
      <trkpt lat="45.916690" lon="12.157146">
        <ele>165.798847</ele>
        <time>2023-09-12T04:03:53.250Z</time>
      </trkpt>
      <trkpt lat="45.916772" lon="12.157124">
        <ele>165.594694</ele>
        <time>2023-09-12T04:03:54.894Z</time>
      </trkpt>
      <trkpt lat="45.917070" lon="12.156918">
        <ele>164.785411</ele>
        <time>2023-09-12T04:04:00.940Z</time>
      </trkpt>
      <trkpt lat="45.917152" lon="12.156800">
        <ele>164.501437</ele>
        <time>2023-09-12T04:04:02.909Z</time>
      </trkpt>
      <trkpt lat="45.917190" lon="12.156693">
        <ele>164.296889</ele>
        <time>2023-09-12T04:04:04.282Z</time>
      </trkpt>
      <trkpt lat="45.917428" lon="12.155620">
        <ele>161.599362</ele>
        <time>2023-09-12T04:04:19.313Z</time>
      </trkpt>
      <trkpt lat="45.917526" lon="12.155373">
        <ele>160.717859</ele>
        <time>2023-09-12T04:04:22.979Z</time>
      </trkpt>
      <trkpt lat="45.917578" lon="12.155320">
        <ele>160.433799</ele>
        <time>2023-09-12T04:04:24.059Z</time>
      </trkpt>
      <trkpt lat="45.917555" lon="12.155565">
        <ele>159.667389</ele>
        <time>2023-09-12T04:04:29.154Z</time>
      </trkpt>
      <trkpt lat="45.917594" lon="12.155970">
        <ele>158.399876</ele>
        <time>2023-09-12T04:04:37.247Z</time>
      </trkpt>
      <trkpt lat="45.917609" lon="12.156174">
        <ele>157.763932</ele>
        <time>2023-09-12T04:04:41.064Z</time>
      </trkpt>
      <trkpt lat="45.917591" lon="12.156302">
        <ele>157.359094</ele>
        <time>2023-09-12T04:04:43.565Z</time>
      </trkpt>
      <trkpt lat="45.917440" lon="12.156721">
        <ele>155.896212</ele>
        <time>2023-09-12T04:04:52.033Z</time>
      </trkpt>
      <trkpt lat="45.917404" lon="12.157054">
        <ele>154.647841</ele>
        <time>2023-09-12T04:04:57.857Z</time>
      </trkpt>
      <trkpt lat="45.917264" lon="12.157670">
        <ele>151.755519</ele>
        <time>2023-09-12T04:05:08.816Z</time>
      </trkpt>
      <trkpt lat="45.916930" lon="12.158569">
        <ele>147.206775</ele>
        <time>2023-09-12T04:05:27.203Z</time>
      </trkpt>
      <trkpt lat="45.916538" lon="12.159623">
        <ele>143.209791</ele>
        <time>2023-09-12T04:05:51.800Z</time>
      </trkpt>
      <trkpt lat="45.916455" lon="12.159779">
        <ele>142.949213</ele>
        <time>2023-09-12T04:05:56.289Z</time>
      </trkpt>
      <trkpt lat="45.916314" lon="12.159961">
        <ele>142.587787</ele>
        <time>2023-09-12T04:06:02.408Z</time>
      </trkpt>
      <trkpt lat="45.916824" lon="12.161088">
        <ele>140.803938</ele>
        <time>2023-09-12T04:06:32.909Z</time>
      </trkpt>
      <trkpt lat="45.916951" lon="12.161469">
        <ele>140.275522</ele>
        <time>2023-09-12T04:06:42.551Z</time>
      </trkpt>
      <trkpt lat="45.917026" lon="12.161839">
        <ele>139.925596</ele>
        <time>2023-09-12T04:06:51.339Z</time>
      </trkpt>
      <trkpt lat="45.917034" lon="12.161957">
        <ele>139.817946</ele>
        <time>2023-09-12T04:06:54.024Z</time>
      </trkpt>
      <trkpt lat="45.916982" lon="12.161999">
        <ele>139.740098</ele>
        <time>2023-09-12T04:06:55.975Z</time>
      </trkpt>
      <trkpt lat="45.916630" lon="12.162107">
        <ele>139.270338</ele>
        <time>2023-09-12T04:07:07.660Z</time>
      </trkpt>
      <trkpt lat="45.916510" lon="12.162200">
        <ele>139.092407</ele>
        <time>2023-09-12T04:07:12.057Z</time>
      </trkpt>
      <trkpt lat="45.916515" lon="12.162365">
        <ele>138.942445</ele>
        <time>2023-09-12T04:07:15.878Z</time>
      </trkpt>
      <trkpt lat="45.916287" lon="12.162419">
        <ele>138.640860</ele>
        <time>2023-09-12T04:07:23.457Z</time>
      </trkpt>
      <trkpt lat="45.916256" lon="12.162456">
        <ele>138.588270</ele>
        <time>2023-09-12T04:07:24.766Z</time>
      </trkpt>
      <trkpt lat="45.916204" lon="12.162503">
        <ele>138.508100</ele>
        <time>2023-09-12T04:07:26.835Z</time>
      </trkpt>
      <trkpt lat="45.916062" lon="12.162477">
        <ele>138.321272</ele>
        <time>2023-09-12T04:07:31.630Z</time>
      </trkpt>
      <trkpt lat="45.915642" lon="12.162562">
        <ele>137.979152</ele>
        <time>2023-09-12T04:07:45.991Z</time>
      </trkpt>
      <trkpt lat="45.915575" lon="12.162579">
        <ele>137.971991</ele>
        <time>2023-09-12T04:07:48.325Z</time>
      </trkpt>
      <trkpt lat="45.915538" lon="12.162609">
        <ele>137.967519</ele>
        <time>2023-09-12T04:07:49.794Z</time>
      </trkpt>
      <trkpt lat="45.915647" lon="12.162904">
        <ele>137.943059</ele>
        <time>2023-09-12T04:07:57.861Z</time>
      </trkpt>
      <trkpt lat="45.915745" lon="12.163820">
        <ele>137.875193</ele>
        <time>2023-09-12T04:08:20.804Z</time>
      </trkpt>
      <trkpt lat="45.915846" lon="12.164116">
        <ele>137.851051</ele>
        <time>2023-09-12T04:08:30.224Z</time>
      </trkpt>
      <trkpt lat="45.915982" lon="12.164296">
        <ele>137.831592</ele>
        <time>2023-09-12T04:08:38.185Z</time>
      </trkpt>
      <trkpt lat="45.916013" lon="12.164417">
        <ele>137.822150</ele>
        <time>2023-09-12T04:08:41.790Z</time>
      </trkpt>
      <trkpt lat="45.915990" lon="12.164535">
        <ele>137.813176</ele>
        <time>2023-09-12T04:08:45.215Z</time>
      </trkpt>
      <trkpt lat="45.915676" lon="12.165056">
        <ele>137.873194</ele>
        <time>2023-09-12T04:09:04.105Z</time>
      </trkpt>
      <trkpt lat="45.915679" lon="12.165163">
        <ele>137.884320</ele>
        <time>2023-09-12T04:09:06.975Z</time>
      </trkpt>
      <trkpt lat="45.915506" lon="12.165418">
        <ele>137.921325</ele>
        <time>2023-09-12T04:09:15.823Z</time>
      </trkpt>
      <trkpt lat="45.915744" lon="12.165912">
        <ele>137.983753</ele>
        <time>2023-09-12T04:09:26.103Z</time>
      </trkpt>
      <trkpt lat="45.915651" lon="12.166021">
        <ele>138.001673</ele>
        <time>2023-09-12T04:09:28.570Z</time>
      </trkpt>
      <trkpt lat="45.915493" lon="12.166327">
        <ele>138.041264</ele>
        <time>2023-09-12T04:09:35.088Z</time>
      </trkpt>
      <trkpt lat="45.915389" lon="12.166302">
        <ele>138.057011</ele>
        <time>2023-09-12T04:09:37.152Z</time>
      </trkpt>
      <trkpt lat="45.915135" lon="12.166049">
        <ele>137.964275</ele>
        <time>2023-09-12T04:09:44.293Z</time>
      </trkpt>
      <trkpt lat="45.915060" lon="12.166007">
        <ele>137.912524</ele>
        <time>2023-09-12T04:09:45.897Z</time>
      </trkpt>
      <trkpt lat="45.914992" lon="12.166076">
        <ele>137.859008</ele>
        <time>2023-09-12T04:09:48.931Z</time>
      </trkpt>
      <trkpt lat="45.914934" lon="12.166560">
        <ele>137.639322</ele>
        <time>2023-09-12T04:10:01.392Z</time>
      </trkpt>
      <trkpt lat="45.914870" lon="12.166795">
        <ele>137.526438</ele>
        <time>2023-09-12T04:10:07.773Z</time>
      </trkpt>
      <trkpt lat="45.914667" lon="12.167121">
        <ele>137.330737</ele>
        <time>2023-09-12T04:10:17.572Z</time>
      </trkpt>
      <trkpt lat="45.914331" lon="12.167869">
        <ele>136.932468</ele>
        <time>2023-09-12T04:10:38.369Z</time>
      </trkpt>
      <trkpt lat="45.914268" lon="12.167965">
        <ele>136.888201</ele>
        <time>2023-09-12T04:10:41.753Z</time>
      </trkpt>
      <trkpt lat="45.914206" lon="12.168005">
        <ele>136.858196</ele>
        <time>2023-09-12T04:10:44.215Z</time>
      </trkpt>
      <trkpt lat="45.914062" lon="12.168016">
        <ele>136.794527</ele>
        <time>2023-09-12T04:10:49.532Z</time>
      </trkpt>
      <trkpt lat="45.913996" lon="12.168121">
        <ele>136.751059</ele>
        <time>2023-09-12T04:10:52.984Z</time>
      </trkpt>
      <trkpt lat="45.913935" lon="12.168321">
        <ele>136.683979</ele>
        <time>2023-09-12T04:10:58.479Z</time>
      </trkpt>
      <trkpt lat="45.913842" lon="12.168416">
        <ele>136.633604</ele>
        <time>2023-09-12T04:11:02.535Z</time>
      </trkpt>
      <trkpt lat="45.913645" lon="12.168496">
        <ele>136.543220</ele>
        <time>2023-09-12T04:11:09.811Z</time>
      </trkpt>
      <trkpt lat="45.913462" lon="12.168615">
        <ele>136.454538</ele>
        <time>2023-09-12T04:11:16.941Z</time>
      </trkpt>
      <trkpt lat="45.913205" lon="12.168936">
        <ele>136.304209</ele>
        <time>2023-09-12T04:11:29.090Z</time>
      </trkpt>
      <trkpt lat="45.912343" lon="12.169655">
        <ele>135.716158</ele>
        <time>2023-09-12T04:12:04.711Z</time>
      </trkpt>
      <trkpt lat="45.911892" lon="12.169869">
        <ele>135.388110</ele>
        <time>2023-09-12T04:12:21.242Z</time>
      </trkpt>
      <trkpt lat="45.911045" lon="12.170376">
        <ele>134.706536</ele>
        <time>2023-09-12T04:12:52.222Z</time>
      </trkpt>
      <trkpt lat="45.911045" lon="12.170376">
        <ele>134.706536</ele>
        <time>2023-09-12T04:12:52.224Z</time>
      </trkpt>
      <trkpt lat="45.910249" lon="12.170722">
        <ele>133.920329</ele>
        <time>2023-09-12T04:13:20.385Z</time>
      </trkpt>
      <trkpt lat="45.909977" lon="12.170772">
        <ele>133.661084</ele>
        <time>2023-09-12T04:13:29.669Z</time>
      </trkpt>
      <trkpt lat="45.909639" lon="12.170862">
        <ele>133.336099</ele>
        <time>2023-09-12T04:13:41.320Z</time>
      </trkpt>
      <trkpt lat="45.909339" lon="12.171044">
        <ele>133.074474</ele>
        <time>2023-09-12T04:13:52.358Z</time>
      </trkpt>
      <trkpt lat="45.909212" lon="12.171081">
        <ele>132.988411</ele>
        <time>2023-09-12T04:13:56.785Z</time>
      </trkpt>
      <trkpt lat="45.908490" lon="12.171082">
        <ele>132.508893</ele>
        <time>2023-09-12T04:14:21.807Z</time>
      </trkpt>
      <trkpt lat="45.907831" lon="12.171355">
        <ele>132.053396</ele>
        <time>2023-09-12T04:14:46.034Z</time>
      </trkpt>
      <trkpt lat="45.907533" lon="12.171559">
        <ele>131.994972</ele>
        <time>2023-09-12T04:14:57.602Z</time>
      </trkpt>
      <trkpt lat="45.907442" lon="12.171629">
        <ele>131.997585</ele>
        <time>2023-09-12T04:15:01.236Z</time>
      </trkpt>
      <trkpt lat="45.906979" lon="12.171816">
        <ele>132.009760</ele>
        <time>2023-09-12T04:15:18.352Z</time>
      </trkpt>
      <trkpt lat="45.906314" lon="12.172423">
        <ele>132.029704</ele>
        <time>2023-09-12T04:15:48.338Z</time>
      </trkpt>
      <trkpt lat="45.906102" lon="12.172728">
        <ele>132.163189</ele>
        <time>2023-09-12T04:16:00.266Z</time>
      </trkpt>
      <trkpt lat="45.905643" lon="12.173117">
        <ele>132.806566</ele>
        <time>2023-09-12T04:16:21.741Z</time>
      </trkpt>
      <trkpt lat="45.905643" lon="12.173117">
        <ele>132.806566</ele>
        <time>2023-09-12T04:16:21.765Z</time>
      </trkpt>
      <trkpt lat="45.905643" lon="12.173117">
        <ele>132.806566</ele>
        <time>2023-09-12T04:16:21.765Z</time>
      </trkpt>
      <trkpt lat="45.905611" lon="12.173080">
        <ele>132.856155</ele>
        <time>2023-09-12T04:16:22.827Z</time>
      </trkpt>
      <trkpt lat="45.904889" lon="12.173755">
        <ele>133.896116</ele>
        <time>2023-09-12T04:16:45.102Z</time>
      </trkpt>
      <trkpt lat="45.905147" lon="12.174871">
        <ele>134.598260</ele>
        <time>2023-09-12T04:17:06.264Z</time>
      </trkpt>
      <trkpt lat="45.905147" lon="12.174871">
        <ele>134.598260</ele>
        <time>2023-09-12T04:17:06.325Z</time>
      </trkpt>
      <trkpt lat="45.903524" lon="12.175219">
        <ele>135.381042</ele>
        <time>2023-09-12T04:17:44.701Z</time>
      </trkpt>
      <trkpt lat="45.902044" lon="12.175519">
        <ele>135.035037</ele>
        <time>2023-09-12T04:18:15.987Z</time>
      </trkpt>
      <trkpt lat="45.901858" lon="12.175555">
        <ele>134.910942</ele>
        <time>2023-09-12T04:18:20.029Z</time>
      </trkpt>
      <trkpt lat="45.901072" lon="12.175691">
        <ele>134.387481</ele>
        <time>2023-09-12T04:18:36.216Z</time>
      </trkpt>
      <trkpt lat="45.900183" lon="12.175892">
        <ele>133.911732</ele>
        <time>2023-09-12T04:18:53.563Z</time>
      </trkpt>
      <trkpt lat="45.900040" lon="12.175937">
        <ele>133.911732</ele>
        <time>2023-09-12T04:18:56.378Z</time>
      </trkpt>
      <trkpt lat="45.900020" lon="12.175795">
        <ele>133.911732</ele>
        <time>2023-09-12T04:18:58.375Z</time>
      </trkpt>
      <trkpt lat="45.900009" lon="12.175638">
        <ele>133.911732</ele>
        <time>2023-09-12T04:19:00.596Z</time>
      </trkpt>
      <trkpt lat="45.899995" lon="12.174847">
        <ele>133.911732</ele>
        <time>2023-09-12T04:19:11.777Z</time>
      </trkpt>
      <trkpt lat="45.900013" lon="12.174472">
        <ele>133.911732</ele>
        <time>2023-09-12T04:19:17.114Z</time>
      </trkpt>
      <trkpt lat="45.900035" lon="12.174242">
        <ele>133.911732</ele>
        <time>2023-09-12T04:19:20.522Z</time>
      </trkpt>
      <trkpt lat="45.900043" lon="12.174161">
        <ele>133.911732</ele>
        <time>2023-09-12T04:19:21.691Z</time>
      </trkpt>
      <trkpt lat="45.900060" lon="12.173813">
        <ele>133.911732</ele>
        <time>2023-09-12T04:19:26.799Z</time>
      </trkpt>
      <trkpt lat="45.900040" lon="12.173603">
        <ele>133.911732</ele>
        <time>2023-09-12T04:19:29.925Z</time>
      </trkpt>
      <trkpt lat="45.899936" lon="12.173319">
        <ele>133.911732</ele>
        <time>2023-09-12T04:19:34.900Z</time>
      </trkpt>
    </trkseg>
  </trk>
</gpx>